Date StartTime U_cm/s V_cm/s W_cm/s Ustd_cm/s Vstd_cm/s Wstd_cm/s Uvar_(cm/s)^2 Vvar_(cm/s)^2 Wvar_(cm/s)^2 KE_(m/s)^2 TurbulentKE_(m/s)^2 HorizWindSpeed_cm/s FrictionSpeec_cm/s DragCoef SpeedOfSound_m/s SonicTemperature_C Pressure_mb 
12/21/2013  00:00:00      -56.360      -21.962       -6.876       12.609        6.795        6.365      158.990       46.167       40.508        0.198        0.012       60.488        5.617        0.009      331.948        0.291      859.149
12/21/2013  00:01:00      -37.153      -26.228        0.963       37.239       13.907       12.154     1386.711      193.417      147.731        0.190        0.086       45.478       15.099        0.110      332.010        0.396      859.114
12/21/2013  00:02:00       38.739       25.023       26.337       22.597       26.300       19.148      510.641      691.682      366.630        0.219        0.078       46.118       18.679        0.164      332.067        0.490      859.070
12/21/2013  00:03:00       71.554       56.017        8.767       18.449       20.012       20.552      340.376      400.496      422.376        0.475        0.058       90.873       12.980        0.020      332.012        0.396      859.037
12/21/2013  00:04:00       76.198       37.518        5.087       32.147       22.896       26.186     1033.450      524.246      685.700        0.474        0.112       84.933       13.011        0.023      331.996        0.371      858.972
12/21/2013  00:05:00       71.725       28.515       20.784       24.217       23.027       24.623      586.444      530.245      606.304        0.406        0.086       77.186       13.986        0.033      331.941        0.281      858.949
12/21/2013  00:06:00       23.607       11.987       30.576       24.796       17.362       17.222      614.860      301.438      296.591        0.142        0.061       26.475       10.036        0.144      331.909        0.227      858.900
12/21/2013  00:07:00       10.000       22.651       36.563       20.299       19.003       13.416      412.053      361.128      180.001        0.145        0.048       24.760       12.966        0.274      331.994        0.368      858.842
12/21/2013  00:08:00        7.716      -24.632        2.825       31.892       26.402       20.314     1017.122      697.088      412.645        0.140        0.106       25.812       21.376        0.686      332.088        0.523      858.784
12/21/2013  00:09:00      -29.855      -16.518        4.332       22.534       21.112       15.240      507.785      445.730      232.273        0.118        0.059       34.120       13.306        0.152      332.027        0.422      858.764
12/21/2013  00:10:00      -29.871      -19.985        7.853       35.895       26.854       15.126     1288.467      721.152      228.799        0.180        0.112       35.940       13.659        0.144      332.007        0.390      858.739
12/21/2013  00:11:00      -46.548      -91.224       14.058       63.294       65.731       27.548     4006.182     4320.554      758.910        0.988        0.454      102.414       38.719        0.143      332.119        0.574      858.684
12/21/2013  00:12:00      -51.818      -66.685        0.774       46.690       65.410       25.463     2179.962     4278.408      648.376        0.712        0.355       84.451       20.701        0.060      332.081        0.513      858.666
12/21/2013  00:13:00     -104.718     -112.743       -6.991       53.002       35.001       27.707     2809.193     1225.044      767.681        1.426        0.240      153.873       31.611        0.042      332.038        0.440      858.715
12/21/2013  00:14:00      -44.643      -59.837        6.420       44.064       37.926       20.033     1941.644     1438.350      401.335        0.470        0.189       74.655       23.518        0.099      332.135        0.601      858.724
12/21/2013  00:15:00      -77.964      -61.008        4.661       47.067       25.958       20.598     2215.309      673.818      424.262        0.657        0.166       98.997       18.050        0.033      332.111        0.562      858.717
12/21/2013  00:16:00      -62.042      -75.240       -1.076       39.892       31.883       19.493     1591.389     1016.498      379.991        0.625        0.149       97.521       19.334        0.039      332.183        0.681      858.678
12/21/2013  00:17:00      -73.602      -43.095       -8.583       22.306       27.488       14.174      497.579      755.578      200.895        0.440        0.073       85.290        9.707        0.013      332.140        0.610      858.634
12/21/2013  00:18:00      -60.330       19.699       -6.038       18.325       15.919       11.400      335.797      253.427      129.968        0.239        0.036       63.465        5.166        0.007      332.149        0.624      858.646
12/21/2013  00:19:00      -59.302       19.499       -9.220       18.730       14.490       10.503      350.830      209.963      110.316        0.233        0.034       62.426        4.247        0.005      332.086        0.520      858.664
12/21/2013  00:20:00      -31.600      -60.286       -8.442       26.607       29.611       16.349      707.939      876.786      267.283        0.328        0.093       68.066       13.537        0.040      332.127        0.586      858.626
12/21/2013  00:21:00      -43.725      -41.100       -4.348       29.299       28.927       12.550      858.428      836.751      157.505        0.274        0.093       60.009        5.486        0.008      332.129        0.590      858.574
12/21/2013  00:22:00      -44.643       -5.648        2.619       25.477       33.194       16.398      649.089     1101.857      268.880        0.203        0.101       44.999       13.677        0.092      332.108        0.555      858.569
12/21/2013  00:23:00      -39.287     -111.063        7.158       67.769       67.645       34.095     4592.646     4575.853     1162.452        1.213        0.517      117.807       37.609        0.102      332.047        0.455      858.558
12/21/2013  00:24:00      -89.725      -95.732        2.821       67.534       67.787       51.165     4560.837     4595.024     2617.845        1.450        0.589      131.207       51.523        0.154      331.937        0.273      858.523
12/21/2013  00:25:00     -185.578     -143.785      -14.383       58.612       55.031       34.698     3435.358     3028.431     1203.968        3.149        0.383      234.763       15.784        0.005      331.776        0.006      858.501
12/21/2013  00:26:00      -99.954      -82.286       13.335       84.854       48.018       31.397     7200.256     2305.757      985.792        1.371        0.525      129.468       40.010        0.096      331.852        0.132      858.481
12/21/2013  00:27:00     -120.683     -102.194       -9.801       47.096       48.806       26.760     2218.012     2382.031      716.077        1.521        0.266      158.139       26.658        0.028      331.852        0.133      858.436
12/21/2013  00:28:00     -121.793     -103.807      -19.071       30.371       23.798       21.076      922.392      566.325      444.210        1.395        0.097      160.030       13.411        0.007      331.878        0.178      858.429
12/21/2013  00:29:00     -113.251     -105.671       -6.749       53.646       36.734       26.466     2877.897     1349.398      700.465        1.448        0.246      154.894       30.066        0.038      331.906        0.222      858.431
12/21/2013  00:30:00     -110.507     -100.543       -0.398       68.485       55.467       42.405     4690.244     3076.577     1798.213        1.594        0.478      149.401       42.701        0.082      331.893        0.200      858.435
12/21/2013  00:31:00     -112.941     -106.690        4.014       52.238       44.107       31.094     2728.770     1945.442      966.859        1.490        0.282      155.365       30.697        0.039      331.842        0.117      858.398
12/21/2013  00:32:00      -74.216      -62.896        3.060       45.178       42.350       28.334     2041.059     1793.507      802.805        0.705        0.232       97.282       23.609        0.059      331.925        0.255      858.379
12/21/2013  00:33:00     -103.845      -53.190       -4.085       24.638       32.598       18.993      607.008     1062.633      360.722        0.783        0.102      116.675       12.620        0.012      331.894        0.203      858.389
12/21/2013  00:34:00      -66.431      -33.196       -1.111       21.472       34.596       15.836      461.033     1196.909      250.771        0.371        0.095       74.263       15.187        0.042      331.914        0.236      858.401
12/21/2013  00:35:00     -132.217      -36.889        2.075       42.627       51.870       26.383     1817.063     2690.515      696.079        1.202        0.260      137.267       18.597        0.018      331.873        0.168      858.418
12/21/2013  00:36:00      -73.556      -79.267        2.474       49.288       46.106       26.590     2429.323     2125.779      707.052        0.848        0.263      108.138       31.052        0.082      331.870        0.164      858.389
12/21/2013  00:37:00     -159.782      -63.980      -13.964       93.131       53.142       33.313     8673.305     2824.071     1109.757        2.121        0.630      172.116       42.358        0.061      331.912        0.231      858.371
12/21/2013  00:38:00     -205.579      -81.354       -9.013       52.983       38.476       30.174     2807.176     1480.413      910.442        2.708        0.260      221.091        9.971        0.002      331.840        0.111      858.414
12/21/2013  00:39:00      -89.653     -159.131       -1.742       76.904       88.437       40.862     5914.256     7821.054     1669.721        2.438        0.770      182.648       28.881        0.025      331.864        0.153      858.297
12/21/2013  00:40:00     -175.895     -101.666       -0.369       98.580       72.410       42.789     9718.036     5243.177     1830.872        2.903        0.840      203.163       44.459        0.048      331.946        0.287      858.276
12/21/2013  00:41:00     -121.964       30.122       -6.038       67.523       56.366       34.843     4559.378     3177.116     1214.067        1.238        0.448      125.628       23.516        0.035      331.899        0.210      858.338
12/21/2013  00:42:00     -137.718       33.907      -17.033       39.075       50.111       28.893     1526.836     2511.087      834.791        1.264        0.244      141.831       19.915        0.020      331.861        0.150      858.326
12/21/2013  00:43:00     -172.498      -78.025       -9.917       48.633       66.549       25.696     2365.186     4428.766      660.269        2.170        0.373      189.323       19.669        0.011      331.870        0.162      858.252
12/21/2013  00:44:00     -176.978     -130.715      -11.028       78.552       71.657       39.077     6170.426     5134.705     1526.983        3.068        0.642      220.017       41.134        0.035      331.877        0.172      858.161
12/21/2013  00:45:00      -30.855      -30.097       24.833       79.522       66.896       41.088     6323.744     4475.075     1688.202        0.748        0.624       43.103       45.678        1.123      331.918        0.242      858.141
12/21/2013  00:46:00      -62.359       12.395       -6.026       36.867       27.744       14.410     1359.174      769.717      207.639        0.321        0.117       63.578       10.596        0.028      331.849        0.130      858.077
12/21/2013  00:47:00      -80.742      -35.851       -6.708       42.016       32.030       18.081     1765.337     1025.904      326.928        0.548        0.156       88.343       14.789        0.028      331.906        0.223      858.037
12/21/2013  00:48:00     -111.317      -39.369       -2.406       64.240       44.193       32.953     4126.802     1952.992     1085.884        1.056        0.358      118.073       37.036        0.098      331.940        0.278      858.037
12/21/2013  00:49:00     -133.046      -70.492       -3.110       65.354       38.486       28.934     4271.103     1481.185      837.203        1.463        0.329      150.566       25.255        0.028      331.966        0.321      858.072
12/21/2013  00:50:00     -198.889      -81.233      -11.869       44.393       49.861       36.880     1970.750     2486.114     1360.151        2.606        0.291      214.838       30.516        0.020      331.914        0.233      858.098
12/21/2013  00:51:00     -108.578      -50.784       -5.875       61.962       41.141       25.460     3839.303     1692.581      648.190        1.029        0.309      119.868       27.474        0.053      331.950        0.297      858.105
12/21/2013  00:52:00      -68.597       12.208        2.867       35.041       22.592       19.438     1227.848      510.386      377.838        0.349        0.106       69.675       14.068        0.041      331.956        0.304      858.109
12/21/2013  00:53:00     -115.000       23.890       -8.030       26.184       16.519       12.104      685.624      272.882      146.501        0.748        0.055      117.456        5.391        0.002      331.964        0.318      858.132
12/21/2013  00:54:00      -65.937      -26.646       -4.107       55.725       33.612       14.638     3105.274     1129.740      214.265        0.476        0.222       71.118       17.347        0.059      332.040        0.441      858.182
12/21/2013  00:55:00       -2.793      -27.890       12.957       51.829       44.321       35.948     2686.242     1964.370     1292.253        0.345        0.297       28.030       29.792        1.130      332.187        0.688      858.161
12/21/2013  00:56:00      -51.209       20.111       20.432       36.348       32.913       24.493     1321.201     1083.248      599.889        0.322        0.150       55.016       20.915        0.145      332.208        0.720      858.210
12/21/2013  00:57:00       32.093       40.985       46.513       44.607       42.305       33.158     1989.763     1789.693     1099.450        0.488        0.244       52.055       30.784        0.350      332.188        0.688      858.252
12/21/2013  00:58:00      121.162       88.524       85.942       69.633       56.665       52.677     4848.734     3210.875     2774.887        2.037        0.542      150.056       25.953        0.030      332.094        0.533      858.231
12/21/2013  00:59:00      117.008       79.798      103.397       66.617       48.168       43.782     4437.829     2320.172     1916.849        1.971        0.434      141.628       36.016        0.065      332.033        0.432      858.230
12/21/2013  01:00:00      112.226       81.118       68.332       62.964       50.863       46.141     3964.470     2587.057     2128.976        1.626        0.434      138.473       36.980        0.071      331.988        0.356      858.280
12/21/2013  01:01:00      113.076       61.986       47.636       63.298       48.753       50.157     4006.627     2376.892     2515.701        1.390        0.445      128.951       33.320        0.067      331.982        0.348      858.297
12/21/2013  01:02:00      100.145       63.775       41.531       38.551       46.135       40.360     1486.211     2128.484     1628.954        1.053        0.262      118.728       24.331        0.042      331.953        0.302      858.318
12/21/2013  01:03:00      118.208       55.778        1.586       40.928       31.366       28.446     1675.074      983.820      809.158        1.028        0.173      130.707       22.693        0.030      331.914        0.236      858.343
12/21/2013  01:04:00      121.629       84.440       50.081       44.781       42.203       49.975     2005.305     1781.096     2497.497        1.536        0.314      148.066       37.235        0.063      331.970        0.328      858.291
12/21/2013  01:05:00       74.256       59.774       65.245       46.527       60.128       41.129     2164.766     3615.361     1691.602        1.041        0.374       95.325       37.852        0.158      331.989        0.360      858.295
12/21/2013  01:06:00       96.666       82.489       68.320       71.100       48.213       41.954     5055.223     2324.479     1760.168        1.498        0.457      127.077       30.299        0.057      331.969        0.327      858.342
12/21/2013  01:07:00      164.341      103.164       37.663       68.967       53.758       42.543     4756.487     2889.908     1809.931        2.426        0.473      194.038       34.860        0.032      331.899        0.210      858.317
12/21/2013  01:08:00      190.022       93.056       36.029       74.547       61.970       50.223     5557.288     3840.330     2522.347        2.899        0.596      211.584       32.368        0.023      331.861        0.147      858.272
12/21/2013  01:09:00      117.312       75.171       59.503       66.883       50.127       47.559     4473.300     2512.742     2261.820        1.610        0.462      139.330       40.516        0.085      331.846        0.124      858.257
12/21/2013  01:10:00      164.333       84.608       21.895       48.914       35.912       35.093     2392.626     1289.651     1231.508        1.978        0.246      184.835       23.280        0.016      331.838        0.111      858.275
12/21/2013  01:11:00       27.495       34.244       12.241       25.290       42.263       23.824      639.606     1786.126      567.571        0.254        0.150       43.917       26.212        0.356      331.822        0.082      858.262
12/21/2013  01:12:00       43.347       43.420       39.370       40.640       31.835       32.321     1651.575     1013.439     1044.642        0.451        0.185       61.354       28.148        0.210      331.881        0.182      858.189
12/21/2013  01:13:00      106.548       68.264       18.484       52.525       25.755       22.537     2758.838      663.333      507.932        1.014        0.197      126.540       18.236        0.021      331.813        0.070      858.176
12/21/2013  01:14:00       73.983       35.284       19.600       43.144       35.753       31.486     1861.421     1278.295      991.348        0.562        0.207       81.967       24.781        0.091      331.843        0.120      858.176
12/21/2013  01:15:00       47.810       39.290       -5.759       31.354       32.639       23.289      983.084     1065.324      542.391        0.323        0.130       61.883       17.161        0.077      331.843        0.120      858.239
12/21/2013  01:16:00       46.987       46.302       14.140       39.212       31.789       18.200     1537.610     1010.555      331.224        0.372        0.144       65.967       19.931        0.091      331.851        0.133      858.257
12/21/2013  01:17:00      -13.592       19.349        2.799       10.864       14.306       15.269      118.032      204.665      233.137        0.056        0.028       23.646        9.669        0.167      331.858        0.144      858.348
12/21/2013  01:18:00       26.893       23.527       20.488       22.801       25.766       19.694      519.869      663.878      387.865        0.163        0.079       35.732       20.596        0.332      331.897        0.207      858.408
12/21/2013  01:19:00       49.807       69.301       -4.629       30.609       31.326       20.642      936.939      981.302      426.105        0.482        0.117       85.343       16.581        0.038      331.813        0.069      858.446
12/21/2013  01:20:00       63.892       52.269        9.795       44.870       25.863       25.742     2013.280      668.910      662.664        0.513        0.167       82.548       18.659        0.051      331.845        0.122      858.470
12/21/2013  01:21:00       76.651       59.522       13.136       42.376       39.973       29.994     1795.761     1597.827      899.627        0.694        0.215       97.047       11.795        0.015      331.804        0.055      858.480
12/21/2013  01:22:00       64.935       77.044        8.035       41.611       42.545       37.403     1731.435     1810.077     1398.985        0.758        0.247      100.759       32.548        0.104      331.762       -0.013      858.495
12/21/2013  01:23:00       52.254       42.126        4.985       49.645       35.387       32.612     2464.613     1252.226     1063.558        0.465        0.239       67.120       18.573        0.077      331.761       -0.015      858.511
12/21/2013  01:24:00       66.154       38.404        6.855       26.373       18.964       17.972      695.530      359.647      322.975        0.364        0.069       76.494       13.514        0.031      331.742       -0.043      858.501
12/21/2013  01:25:00       39.661       43.130        3.712       36.659       20.432       21.371     1343.911      417.471      456.710        0.283        0.111       58.594       19.395        0.110      331.740       -0.049      858.495
12/21/2013  01:26:00       27.516       -5.534      -13.362       31.153       22.590       13.740      970.540      510.320      188.788        0.132        0.083       28.067       10.679        0.145      331.710       -0.100      858.492
12/21/2013  01:27:00       -1.892      -25.779       -6.833       13.581       21.600       12.216      184.446      466.564      149.222        0.076        0.040       25.848       13.858        0.287      331.751       -0.031      858.487
12/21/2013  01:28:00      -35.206      -11.517        3.871       41.026       22.951       13.379     1683.096      526.731      179.003        0.189        0.119       37.042       16.271        0.193      331.864        0.154      858.469
12/21/2013  01:29:00      -62.834      -18.681        3.903       36.251       20.787       17.336     1314.129      432.099      300.552        0.318        0.102       65.552       16.800        0.066      331.874        0.172      858.432
12/21/2013  01:30:00      -20.027       10.828       -1.702       21.334       14.704       14.201      455.122      216.194      201.657        0.070        0.044       22.767       14.779        0.421      331.940        0.279      858.391
12/21/2013  01:31:00      -52.419       -9.981       -4.113       19.025       16.958       11.578      361.964      287.560      134.051        0.182        0.039       53.361        9.592        0.032      331.902        0.217      858.380
12/21/2013  01:32:00      -68.839        3.624       -0.375       44.764       39.258       14.969     2003.810     1541.169      224.081        0.426        0.188       68.934       15.583        0.051      331.924        0.252      858.439
12/21/2013  01:33:00       16.105       28.901       17.936       22.237       16.687       16.207      494.488      278.469      262.664        0.123        0.052       33.085       12.625        0.146      331.903        0.218      858.500
12/21/2013  01:34:00       53.706       44.548        3.642       15.564       17.400       14.040      242.239      302.771      197.133        0.281        0.037       69.777       12.277        0.031      331.853        0.136      858.539
12/21/2013  01:35:00       10.776       40.090       48.524       30.975       26.126       32.524      959.461      682.547     1057.834        0.339        0.135       41.513       29.072        0.490      331.902        0.216      858.510
12/21/2013  01:36:00       23.569       79.744       82.894       32.341       29.767       19.857     1045.970      886.084      394.314        0.806        0.116       83.154       15.271        0.034      331.879        0.180      858.460
12/21/2013  01:37:00       17.963      -41.923       13.882       28.437       54.414       29.825      808.690     2960.883      889.531        0.347        0.233       45.609       36.547        0.642      331.925        0.253      858.440
12/21/2013  01:38:00      -17.821      -19.121       -0.156       27.051       17.122       17.583      731.760      293.164      309.175        0.101        0.067       26.138        9.168        0.123      332.040        0.444      858.482
12/21/2013  01:39:00       -2.825      -27.664       -0.278       19.182       28.921       15.440      367.934      836.413      238.406        0.111        0.072       27.807       11.802        0.180      332.006        0.389      858.474
12/21/2013  01:40:00        4.213       13.360        9.544       21.951       21.553       19.530      481.853      464.528      381.410        0.081        0.066       14.008       14.499        1.071      331.945        0.288      858.415
12/21/2013  01:41:00      -18.467        7.464       23.514       13.869       21.470       22.481      192.347      460.980      505.382        0.105        0.058       19.919       19.032        0.913      331.930        0.262      858.388
12/21/2013  01:42:00      -21.522        1.122       14.552       20.119       12.953       14.196      404.761      167.784      201.520        0.073        0.039       21.551       10.336        0.230      331.985        0.355      858.391
12/21/2013  01:43:00      -12.717       -4.366       35.175       30.800       13.682       21.950      948.665      187.203      481.802        0.152        0.081       13.446       17.860        1.765      331.952        0.299      858.389
12/21/2013  01:44:00        1.462       27.270       -1.057       13.188       12.910       12.786      173.928      166.669      163.477        0.063        0.025       27.309        9.870        0.131      331.830        0.095      858.390
12/21/2013  01:45:00      -13.190       -3.457       -3.514       15.484       29.550        9.765      239.766      873.229       95.360        0.070        0.060       13.635        9.616        0.497      331.837        0.108      858.367
12/21/2013  01:46:00      -62.418      -44.870       -6.895       38.102       24.683       13.929     1451.797      609.241      194.031        0.411        0.113       76.872       13.720        0.032      331.929        0.261      858.383
12/21/2013  01:47:00      -51.483       -7.194        0.462       26.486       14.278        8.194      701.517      203.865       67.143        0.184        0.049       51.983       10.265        0.039      331.851        0.132      858.408
12/21/2013  01:48:00       15.595       20.954       22.662       13.547       12.003       11.493      183.528      144.074      132.085        0.083        0.023       26.120        8.193        0.098      331.896        0.207      858.426
12/21/2013  01:49:00       37.083       28.767       21.422       19.417       15.733       18.501      377.020      247.515      342.294        0.181        0.048       46.933       14.907        0.101      331.865        0.157      858.443
12/21/2013  01:50:00       13.362       36.062       47.669       22.473       25.387       16.987      505.029      644.517      288.575        0.259        0.072       38.458       13.430        0.122      331.822        0.085      858.471
12/21/2013  01:51:00      133.254       64.292       22.323       39.764       38.034       34.417     1581.190     1446.547     1184.510        1.330        0.211      147.953       25.520        0.030      331.766       -0.008      858.482
12/21/2013  01:52:00       73.847      104.226       88.457       44.935       41.113       36.801     2019.186     1690.307     1354.305        1.460        0.253      127.736       29.847        0.055      331.738       -0.052      858.491
12/21/2013  01:53:00      151.268       73.743       37.357       46.620       41.342       48.486     2173.395     1709.123     2350.908        1.797        0.312      168.286       30.371        0.033      331.679       -0.151      858.503
12/21/2013  01:54:00      103.246       56.789       47.963       64.108       42.379       39.409     4109.849     1795.938     1553.101        1.182        0.373      117.833       28.649        0.059      331.648       -0.202      858.545
12/21/2013  01:55:00       42.911       31.197       50.488       50.822       31.804       26.241     2582.845     1011.463      688.613        0.482        0.214       53.053       28.067        0.280      331.691       -0.128      858.585
12/21/2013  01:56:00       88.165       57.629       52.521       71.647       54.201       56.850     5133.233     2937.739     3231.882        1.258        0.565      105.329       37.878        0.129      331.677       -0.153      858.590
12/21/2013  01:57:00      116.056       78.586       20.311       28.455       33.612       37.149      809.664     1129.745     1380.034        1.169        0.166      140.160       19.990        0.020      331.634       -0.225      858.609
12/21/2013  01:58:00       75.116        2.639       29.655       51.063       32.400       26.268     2607.409     1049.754      690.007        0.544        0.217       75.162       31.114        0.171      331.750       -0.033      858.594
12/21/2013  01:59:00       55.419       20.699       28.859       39.700       22.455       25.709     1576.116      504.240      660.974        0.354        0.137       59.159       12.705        0.046      331.718       -0.084      858.541
12/21/2013  02:00:00       69.246       43.801       28.058       26.037       21.183       16.372      677.950      448.720      268.055        0.445        0.070       81.936       14.289        0.030      331.696       -0.120      858.539
12/21/2013  02:01:00        6.923      -45.364       21.699       10.329       29.628       14.344      106.688      877.790      205.744        0.188        0.060       45.889        7.867        0.029      331.823        0.086      858.473
12/21/2013  02:02:00      -14.426      -46.689        0.487       52.025       26.960       20.758     2706.549      726.849      430.876        0.313        0.193       48.867       18.245        0.139      331.877        0.175      858.354
12/21/2013  02:03:00      -70.490      -36.968        6.980       54.519       36.480       28.737     2972.297     1330.826      825.794        0.576        0.256       79.596       18.712        0.055      331.894        0.204      858.301
12/21/2013  02:04:00     -115.748      -50.790        2.536       58.811       49.785       22.666     3458.738     2478.577      513.768        1.122        0.323      126.401       20.604        0.027      331.830        0.098      858.299
12/21/2013  02:05:00      -65.687        6.964        2.627       40.262       29.221       20.533     1621.025      853.869      421.622        0.363        0.145       66.056       22.116        0.112      331.868        0.162      858.339
12/21/2013  02:06:00      -45.114      100.300      -16.170       44.662       37.405       19.148     1994.727     1399.121      366.629        0.806        0.188      109.979       18.948        0.030      331.842        0.118      858.371
12/21/2013  02:07:00      -24.940       48.141       -5.725       23.516       62.133       21.051      553.000     3860.536      443.157        0.391        0.243       54.217       27.356        0.255      331.880        0.179      858.332
12/21/2013  02:08:00      -32.183       -5.905        0.744       23.575       26.980       16.385      555.769      727.899      268.474        0.131        0.078       32.720       17.001        0.270      331.884        0.186      858.303
12/21/2013  02:09:00      -14.264       22.426       18.484       23.429       25.774       17.969      548.915      664.304      322.887        0.129        0.077       26.578       16.065        0.365      331.925        0.255      858.347
12/21/2013  02:10:00      -16.180       35.631      -11.030       13.392       16.354        6.209      179.342      267.467       38.547        0.107        0.024       39.132        6.253        0.026      331.810        0.065      858.437
12/21/2013  02:11:00      -18.022       33.646        1.918       18.196       19.521       16.274      331.094      381.081      264.829        0.122        0.049       38.168       10.518        0.076      331.862        0.151      858.477
12/21/2013  02:12:00       20.767       50.013        5.268       19.659       32.098       20.159      386.464     1030.251      406.367        0.239        0.091       54.153       22.246        0.169      331.879        0.179      858.473
12/21/2013  02:13:00       46.630       51.932      -12.656       26.404       30.559       18.412      697.169      933.864      339.007        0.350        0.099       69.795       18.269        0.069      331.827        0.093      858.480
12/21/2013  02:14:00       32.016       59.594       -5.599       28.370       34.592       16.883      804.834     1196.584      285.035        0.345        0.114       67.649       17.009        0.063      331.769       -0.002      858.462
12/21/2013  02:15:00       32.998       34.328       -6.224       19.108       39.928       20.080      365.106     1594.229      403.203        0.233        0.118       47.616        7.326        0.024      331.775        0.006      858.423
12/21/2013  02:16:00      -33.653       -7.472       -4.127       27.627       12.734       11.277      763.263      162.157      127.165        0.113        0.053       34.473        7.614        0.049      331.786        0.024      858.388
12/21/2013  02:17:00      -13.516        6.677        7.237       16.487       12.202       13.623      271.817      148.877      185.599        0.044        0.030       15.075       11.637        0.596      331.808        0.063      858.360
12/21/2013  02:18:00      -65.154       14.373       -7.476       23.777       12.605        8.904      565.347      158.886       79.276        0.266        0.040       66.721        4.555        0.005      331.757       -0.021      858.349
12/21/2013  02:19:00      -96.437       12.581       -9.317       19.586       11.246       11.611      383.621      126.471      134.819        0.509        0.032       97.254        8.340        0.007      331.790        0.032      858.376
12/21/2013  02:20:00      -43.116       29.202        3.726       31.267       17.065       14.633      977.612      291.208      214.118        0.210        0.074       52.074       14.171        0.074      331.785        0.024      858.392
12/21/2013  02:21:00      -13.395        7.233       -1.860       14.597       16.403       11.144      213.064      269.051      124.183        0.042        0.030       15.223        4.564        0.090      331.760       -0.018      858.392
12/21/2013  02:22:00       32.000       26.309        3.472       17.036       21.109       15.476      290.239      445.579      239.519        0.135        0.049       41.427       15.583        0.141      331.768       -0.003      858.404
12/21/2013  02:23:00       75.637       36.361       15.348       39.678       32.122       26.319     1574.349     1031.844      692.711        0.529        0.165       83.923       10.263        0.015      331.738       -0.053      858.375
12/21/2013  02:24:00      126.348       64.610        5.814       19.468       15.792       17.702      378.989      249.391      313.343        1.056        0.047      141.909        8.413        0.004      331.662       -0.177      858.348
12/21/2013  02:25:00      105.820       61.135       -1.434       24.072       22.100       21.732      579.441      488.404      472.278        0.824        0.077      122.210       12.582        0.011      331.641       -0.212      858.335
12/21/2013  02:26:00       81.324       55.719       -7.126       33.828       19.220       15.822     1144.320      369.402      250.324        0.577        0.088       98.581       14.286        0.021      331.588       -0.300      858.338
12/21/2013  02:27:00       35.374       54.860        3.177       24.685       32.602       20.823      609.361     1062.890      433.618        0.319        0.105       65.276       18.936        0.084      331.576       -0.320      858.356
12/21/2013  02:28:00       21.954      112.632      -12.716       26.676       23.816       21.268      711.635      567.192      452.311        0.753        0.087      114.751       17.953        0.024      331.639       -0.215      858.367
12/21/2013  02:29:00       17.431      113.958      -16.834       14.107       15.814       13.385      199.000      250.070      179.162        0.710        0.031      115.284        8.670        0.006      331.689       -0.132      858.356
12/21/2013  02:30:00       25.343       95.878      -11.013       17.437       28.658       16.701      304.040      821.293      278.931        0.568        0.070       99.171       16.415        0.027      331.722       -0.079      858.354
12/21/2013  02:31:00       19.694       79.561       -3.472       18.120       27.691       12.882      328.320      766.803      165.935        0.400        0.063       81.962       15.097        0.034      331.779        0.014      858.341
12/21/2013  02:32:00        6.265       61.409       -9.948       16.246       11.113       10.025      263.918      123.495      100.503        0.220        0.024       61.728        5.739        0.009      331.826        0.091      858.340
12/21/2013  02:33:00        3.261       65.028       -8.793        8.551        9.922        5.575       73.123       98.449       31.081        0.226        0.010       65.109        3.932        0.004      331.898        0.211      858.353
12/21/2013  02:34:00       -3.023       62.454       -7.295       10.585       10.836        7.796      112.038      117.421       60.780        0.213        0.015       62.527        7.205        0.013      331.878        0.177      858.356
12/21/2013  02:35:00      -20.778       47.420       -9.542       22.836       24.964       12.070      521.467      623.192      145.686        0.203        0.065       51.772        7.019        0.018      331.849        0.129      858.352
12/21/2013  02:36:00      -76.971       87.065      -27.768       21.125       20.762       12.875      446.248      431.078      165.775        0.766        0.052      116.210       11.523        0.010      331.926        0.256      858.335
12/21/2013  02:37:00      -81.843       41.745      -13.546       23.368       28.358       16.396      546.042      804.179      268.829        0.512        0.081       91.875       16.561        0.032      331.868        0.159      858.337
12/21/2013  02:38:00      -71.621       39.547      -11.117       24.646       19.300       13.725      607.422      372.474      188.382        0.399        0.058       81.814       12.933        0.025      331.745       -0.040      858.334
12/21/2013  02:39:00      -62.221       32.180       -3.732       25.376       25.125       17.361      643.939      631.255      301.419        0.325        0.079       70.050       15.192        0.047      331.832        0.101      858.328
12/21/2013  02:40:00      -45.159       46.816       -3.500       19.146       27.897       17.432      366.566      778.238      303.858        0.285        0.072       65.047       13.704        0.044      331.975        0.337      858.343
12/21/2013  02:41:00       28.357       25.492        2.667       27.464       20.966       20.473      754.289      439.561      419.133        0.154        0.081       38.131       15.984        0.176      331.888        0.194      858.354
12/21/2013  02:42:00        4.076       17.940      -14.461       15.691       10.064        8.875      246.207      101.278       78.758        0.049        0.021       18.398        5.886        0.102      331.796        0.041      858.367
12/21/2013  02:43:00        3.473       -4.654        2.996       19.994       16.763       15.341      399.741      281.006      235.336        0.048        0.046        5.807       15.689        7.299      331.828        0.095      858.382
12/21/2013  02:44:00       29.314       27.893       10.614       10.711       11.481       14.802      114.725      131.818      219.109        0.111        0.023       40.464        7.658        0.036      331.851        0.134      858.396
12/21/2013  02:45:00       23.168       42.383        0.244        6.668        8.613        8.625       44.460       74.191       74.392        0.126        0.010       48.302        6.281        0.017      331.954        0.301      858.402
12/21/2013  02:46:00       27.433       32.414        6.595       15.308       17.744       16.026      234.336      314.844      256.822        0.133        0.040       42.464       11.638        0.075      331.902        0.216      858.432
12/21/2013  02:47:00       18.328       27.033       32.645       28.199       31.393       30.941      795.161      985.547      957.340        0.243        0.137       32.660       29.621        0.823      331.779        0.015      858.452
12/21/2013  02:48:00       28.600       64.354       52.877       30.990       31.313       31.872      960.361      980.511     1015.809        0.536        0.148       70.423       23.550        0.112      331.736       -0.054      858.494
12/21/2013  02:49:00       55.664       67.638       46.154       29.447       23.701       24.942      867.124      561.745      622.108        0.593        0.103       87.598       18.975        0.047      331.740       -0.049      858.517
12/21/2013  02:50:00       74.816       62.424       43.695       26.344       22.845       24.980      694.021      521.873      624.008        0.662        0.092       97.438       12.345        0.016      331.762       -0.014      858.514
12/21/2013  02:51:00       90.816       73.226       46.287       38.537       25.632       23.553     1485.069      657.012      554.731        0.922        0.135      116.660       21.725        0.035      331.703       -0.108      858.491
12/21/2013  02:52:00       19.648       32.610       37.737       35.534       28.609       24.676     1262.694      818.465      608.928        0.278        0.135       38.072       18.544        0.237      331.701       -0.112      858.492
12/21/2013  02:53:00       13.345      -22.637        6.948        9.585       11.962        8.422       91.874      143.088       70.931        0.052        0.015       26.278        4.733        0.032      331.737       -0.056      858.510
12/21/2013  02:54:00       -1.213       -1.086       17.048       11.265       16.348        8.435      126.892      267.257       71.143        0.038        0.023        1.628        8.720       28.686      331.787        0.026      858.515
12/21/2013  02:55:00      -34.011       -7.564        3.772       21.110       13.024       10.098      445.641      169.634      101.975        0.097        0.036       34.842       11.933        0.117      331.848        0.126      858.486
12/21/2013  02:56:00      -93.557      -26.368      -12.683       19.124       23.488        8.846      365.718      551.689       78.245        0.530        0.050       97.201        7.480        0.006      331.746       -0.040      858.476
12/21/2013  02:57:00     -132.914      -35.011       -9.428       35.325       23.580       16.138     1247.832      556.013      260.427        1.052        0.103      137.448       13.376        0.009      331.617       -0.253      858.532
12/21/2013  02:58:00     -115.432      -20.683       -7.514       39.153       27.669       18.075     1532.957      765.561      326.692        0.822        0.131      117.270       19.579        0.028      331.517       -0.416      858.547
12/21/2013  02:59:00     -154.701      -35.973      -11.946       26.686       25.206       14.278      712.144      635.343      203.872        1.346        0.078      158.829        7.607        0.002      331.564       -0.338      858.538
12/21/2013  03:00:00     -105.103        5.842       -8.712       56.408       29.724       25.299     3181.884      883.495      640.029        0.793        0.235      105.265       22.329        0.045      331.571       -0.328      858.554
12/21/2013  03:01:00     -144.391       42.348      -16.446       52.854       37.016       18.498     2793.561     1370.157      342.166        1.371        0.225      150.473       16.320        0.012      331.664       -0.174      858.544
12/21/2013  03:02:00     -189.170      -60.104      -15.500       24.221       31.997       18.446      586.639     1023.796      340.267        2.079        0.098      198.489       12.896        0.004      331.556       -0.354      858.521
12/21/2013  03:03:00     -120.235      -34.498       -4.214       52.978       35.584       22.336     2806.702     1266.253      498.901        1.012        0.229      125.086       18.519        0.022      331.484       -0.473      858.509
12/21/2013  03:04:00     -100.446      -29.900        1.267       55.431       34.653       22.435     3072.651     1200.832      503.330        0.788        0.239      104.802       27.024        0.066      331.510       -0.430      858.499
12/21/2013  03:05:00     -168.093      -66.185       -7.035       30.748       25.030       19.261      945.442      626.502      371.001        1.731        0.097      180.654       12.350        0.005      331.530       -0.395      858.502
12/21/2013  03:06:00     -154.093      -60.915       -4.806       45.165       50.025       28.685     2039.863     2502.461      822.849        1.642        0.268      165.696       21.308        0.017      331.517       -0.418      858.513
12/21/2013  03:07:00     -218.548      -72.034       -8.219       47.184       45.952       37.165     2226.303     2111.566     1381.243        2.937        0.286      230.113       31.330        0.019      331.543       -0.379      858.507
12/21/2013  03:08:00     -139.620      -43.434       -1.747       49.787       46.488       32.413     2478.714     2161.106     1050.589        1.354        0.285      146.220       27.915        0.036      331.456       -0.518      858.498
12/21/2013  03:09:00     -176.851        8.266      -13.822       53.026       30.262       26.289     2811.800      915.808      691.136        1.798        0.221      177.045       30.470        0.030      331.483       -0.475      858.509
12/21/2013  03:10:00     -132.060        0.029      -10.824       34.991       26.119       20.666     1224.346      682.220      427.080        0.994        0.117      132.060       13.688        0.011      331.473       -0.491      858.508
12/21/2013  03:11:00     -172.530      -16.066      -15.668       52.433       36.385       21.913     2749.248     1323.888      480.175        1.741        0.228      173.277       21.781        0.016      331.378       -0.645      858.536
12/21/2013  03:12:00     -143.339      -37.155       -4.172       44.328       35.418       24.718     1965.012     1254.421      610.980        1.289        0.192      148.077       21.085        0.020      331.327       -0.731      858.543
12/21/2013  03:13:00     -166.187      -44.750      -10.789       60.640       38.626       24.780     3677.170     1491.961      614.043        1.776        0.289      172.107       21.706        0.016      331.345       -0.701      858.536
12/21/2013  03:14:00     -176.770      -58.103       -3.946       37.385       33.294       23.948     1397.659     1108.510      573.492        1.886        0.154      186.075       19.326        0.011      331.383       -0.637      858.538
12/21/2013  03:15:00     -163.164      -28.926       -0.326       53.063       46.186       31.075     2815.634     2133.159      965.673        1.669        0.296      165.708       33.084        0.040      331.445       -0.536      858.513
12/21/2013  03:16:00     -118.044      -33.196        2.766       58.966       36.574       23.990     3477.047     1337.683      575.539        1.022        0.270      122.623       27.279        0.049      331.469       -0.495      858.511
12/21/2013  03:17:00      -78.076      -33.605        3.867       51.980       37.642       21.516     2701.970     1416.900      462.918        0.591        0.229       85.000       25.505        0.090      331.524       -0.405      858.520
12/21/2013  03:18:00      -12.926      -49.013        4.912       33.526       26.954       19.093     1124.020      726.510      364.538        0.240        0.111       50.689       19.130        0.142      331.657       -0.186      858.566
12/21/2013  03:19:00       -5.201       10.437       22.956       28.953       53.185       51.689      838.287     2828.647     2671.727        0.350        0.317       11.661       41.393       12.601      331.734       -0.060      858.599
12/21/2013  03:20:00       79.569      102.560      105.840       73.072       58.030       38.154     5339.549     3367.483     1455.762        1.911        0.508      129.807       26.894        0.043      331.685       -0.142      858.633
12/21/2013  03:21:00       71.849      108.354      118.522       60.917       62.586       36.461     3710.931     3916.951     1329.436        1.995        0.448      130.011       30.733        0.056      331.539       -0.381      858.681
12/21/2013  03:22:00       39.548       41.295       80.791       44.586       81.950       51.825     1987.947     6715.724     2685.832        1.059        0.569       57.178       55.292        0.935      331.570       -0.329      858.673
12/21/2013  03:23:00       94.991       -3.813       55.593       70.314      103.779       62.707     4943.998    10770.096     3932.221        1.588        0.982       95.068       80.803        0.722      331.524       -0.407      858.675
12/21/2013  03:24:00       74.260      -48.651       20.963       52.997       80.409       42.195     2808.637     6465.662     1780.454        0.969        0.553       88.778       54.453        0.376      331.565       -0.338      858.659
12/21/2013  03:25:00      -40.147        1.165        2.131       28.073       33.781       15.921      788.079     1141.182      253.473        0.190        0.109       40.164       10.768        0.072      331.635       -0.222      858.604
12/21/2013  03:26:00      -31.169      -15.749        2.082       42.651       27.735       18.233     1819.078      769.249      332.447        0.207        0.146       34.921       12.285        0.124      331.652       -0.194      858.580
12/21/2013  03:27:00      -67.417      -58.562        2.909       43.982       29.601       24.654     1934.402      876.216      607.795        0.570        0.171       89.300       20.963        0.055      331.710       -0.101      858.558
12/21/2013  03:28:00      -17.707       -2.184        3.645       26.997       20.376       16.545      728.841      415.195      273.746        0.087        0.071       17.842       14.042        0.619      331.758       -0.022      858.537
12/21/2013  03:29:00      -30.469      -13.470        8.097       16.597       17.368       10.431      275.454      301.658      108.802        0.093        0.034       33.314        8.766        0.069      331.731       -0.064      858.574
12/21/2013  03:30:00      -46.765      -20.845       -3.296       25.018       16.633       11.847      625.882      276.665      140.351        0.184        0.052       51.200       12.631        0.061      331.638       -0.217      858.542
12/21/2013  03:31:00      -52.995      -26.354        2.789       38.627       20.408       14.036     1492.053      416.492      197.020        0.281        0.105       59.186       17.503        0.087      331.641       -0.213      858.561
12/21/2013  03:32:00        5.970      -10.792       12.331       26.469       12.841       20.027      700.626      164.898      401.070        0.079        0.063       12.333       17.325        1.973      331.662       -0.178      858.602
12/21/2013  03:33:00      -11.988      -10.262       -8.375       20.289        9.499        7.836      411.635       90.234       61.401        0.044        0.028       15.780        8.350        0.280      331.763       -0.015      858.573
12/21/2013  03:34:00      -34.125       37.112       -3.383       17.300       16.529       10.782      299.293      273.210      116.251        0.162        0.034       50.416        9.326        0.034      331.702       -0.110      858.589
12/21/2013  03:35:00      -23.323       -3.838       -3.113       13.644       11.003        6.888      186.167      121.058       47.443        0.046        0.018       23.637        6.978        0.087      331.663       -0.176      858.561
12/21/2013  03:36:00      -20.022       -0.391       -1.208       11.369        8.911        7.074      129.253       79.415       50.041        0.033        0.013       20.026        5.128        0.066      331.733       -0.060      858.548
12/21/2013  03:37:00       11.441       24.021       11.702       21.462       14.944       12.573      460.636      223.325      158.083        0.084        0.042       26.606       10.645        0.160      331.746       -0.040      858.571
12/21/2013  03:38:00       52.452       64.497       -5.224       20.041       22.339       15.627      401.644      499.021      244.209        0.404        0.057       83.133       10.818        0.017      331.638       -0.217      858.617
12/21/2013  03:39:00       68.687       58.368       -5.580       41.491       26.015       26.987     1721.468      676.767      728.310        0.564        0.156       90.137       18.101        0.040      331.494       -0.456      858.655
12/21/2013  03:40:00       33.660       97.095      -14.671       28.517       61.182       26.990      813.239     3743.208      728.465        0.803        0.264      102.764       31.840        0.096      331.423       -0.572      858.684
12/21/2013  03:41:00      -22.463       64.306      -13.857       20.902       59.744       17.279      436.877     3569.376      298.555        0.457        0.215       68.117       23.939        0.124      331.474       -0.487      858.650
12/21/2013  03:42:00      -42.747       -0.080      -11.267       10.015       21.751        8.829      100.297      473.104       77.952        0.130        0.033       42.747        9.096        0.045      331.486       -0.469      858.623
12/21/2013  03:43:00      -34.560       20.137       -3.383       10.487        7.871        7.511      109.967       61.949       56.416        0.092        0.011       39.999        3.575        0.008      331.413       -0.587      858.655
12/21/2013  03:44:00      -16.287       15.131        2.705       15.005       19.145       13.850      225.144      366.531      191.835        0.064        0.039       22.231       11.574        0.271      331.439       -0.545      858.691
12/21/2013  03:45:00      -67.084        6.373       -5.986       26.174       25.082       14.852      685.079      629.104      220.569        0.306        0.077       67.386       13.738        0.042      331.593       -0.291      858.700
12/21/2013  03:46:00     -135.778      -68.974      -19.066       28.289       30.324       15.170      800.291      919.567      230.136        1.275        0.097      152.292        4.499        0.001      331.372       -0.656      858.666
12/21/2013  03:47:00     -169.306      -47.555      -13.265       30.105       41.413       17.408      906.322     1715.016      303.031        1.701        0.146      175.858       19.646        0.012      331.352       -0.689      858.654
12/21/2013  03:48:00     -104.866      -17.071      -10.465       39.561       29.228       24.332     1565.110      854.275      592.059        0.720        0.151      106.246       22.510        0.045      331.284       -0.798      858.665
12/21/2013  03:49:00      -92.723       15.422       -8.328       39.566       36.832       24.316     1565.477     1356.604      591.256        0.621        0.176       93.997       13.778        0.021      331.385       -0.634      858.627
12/21/2013  03:50:00     -139.514      -29.151      -22.739       34.411       36.626       16.037     1184.139     1341.463      257.200        1.181        0.139      142.527       13.137        0.008      331.349       -0.693      858.566
12/21/2013  03:51:00     -163.178      -60.853      -12.028       53.273       34.449       20.439     2838.023     1186.747      417.759        1.746        0.222      174.155       24.005        0.019      331.334       -0.717      858.502
12/21/2013  03:52:00     -149.145       -7.774      -10.412       41.778       35.365       24.209     1745.429     1250.687      586.088        1.300        0.179      149.348       22.390        0.022      331.366       -0.665      858.488
12/21/2013  03:53:00     -121.194       29.758      -16.778       31.699       25.051       15.236     1004.799      627.533      232.137        0.886        0.093      124.794       10.098        0.007      331.375       -0.650      858.525
12/21/2013  03:54:00     -111.426       12.269      -14.915       32.955       38.122       22.414     1086.059     1453.295      502.404        0.791        0.152      112.099       11.830        0.011      331.493       -0.455      858.584
12/21/2013  03:55:00     -163.090      -60.806       -1.722       60.543       53.571       33.697     3665.465     2869.810     1135.500        1.898        0.384      174.056       29.639        0.029      331.444       -0.538      858.521
12/21/2013  03:56:00      -80.497      -39.368        6.105       58.796       49.947       23.827     3457.026     2494.710      567.746        0.729        0.326       89.608       20.219        0.051      331.374       -0.653      858.508
12/21/2013  03:57:00     -132.821      -45.908       -7.656       39.466       32.796       24.051     1557.574     1075.606      578.462        1.151        0.161      140.531       23.661        0.028      331.329       -0.726      858.505
12/21/2013  03:58:00     -152.520      -80.116      -14.442       44.758       37.493       23.802     2003.256     1405.696      566.546        1.693        0.199      172.282       15.142        0.008      331.406       -0.600      858.477
12/21/2013  03:59:00     -154.272      -44.871      -16.673       37.418       39.529       22.953     1400.136     1562.518      526.828        1.479        0.174      160.665       16.663        0.011      331.370       -0.660      858.481
12/21/2013  04:00:00     -136.114       -0.268      -14.879       61.350       42.029       35.592     3763.809     1766.468     1266.779        1.277        0.340      136.114       31.106        0.052      331.310       -0.758      858.486
12/21/2013  04:01:00     -177.472       37.879       -9.087       53.658       53.218       28.307     2879.165     2832.122      801.280        1.976        0.326      181.469       23.686        0.017      331.318       -0.743      858.484
12/21/2013  04:02:00     -175.680      -85.750       -7.170       55.102       46.771       36.003     3036.250     2187.539     1296.207        2.239        0.326      195.491       29.594        0.023      331.204       -0.934      858.495
12/21/2013  04:03:00     -192.979      -56.972        2.097       71.256       58.222       38.988     5077.406     3389.785     1520.083        2.524        0.499      201.213       30.567        0.023      331.124       -1.066      858.513
12/21/2013  04:04:00     -164.074        3.037      -12.296       85.025       38.348       33.464     7229.314     1470.587     1119.827        1.845        0.491      164.102       37.924        0.053      331.076       -1.144      858.523
12/21/2013  04:05:00      -74.545       -0.271        3.048       51.767       47.422       30.472     2679.793     2248.864      928.550        0.571        0.293       74.546       18.092        0.059      331.079       -1.138      858.506
12/21/2013  04:06:00     -111.286      -14.338       -7.726       43.013       34.148       25.907     1850.126     1166.112      671.156        0.817        0.184      112.206       18.555        0.027      331.138       -1.040      858.481
12/21/2013  04:07:00      -62.669       30.647        3.691       30.819       26.759       21.475      949.789      716.053      461.189        0.350        0.106       69.761       10.282        0.022      331.154       -1.014      858.469
12/21/2013  04:08:00      -63.981       10.678      -10.226       29.296       17.121       16.168      858.236      293.121      261.416        0.286        0.071       64.866        9.998        0.024      331.262       -0.836      858.470
12/21/2013  04:09:00     -111.439       -0.326      -15.619       23.719       33.846       16.967      562.590     1145.543      287.868        0.733        0.100      111.439       14.274        0.016      331.365       -0.666      858.475
12/21/2013  04:10:00     -134.865      -20.301      -17.158       32.618       40.820       20.078     1063.935     1666.293      403.139        1.101        0.157      136.385       22.412        0.027      331.356       -0.682      858.435
12/21/2013  04:11:00     -121.603      -30.041       -5.483       47.157       39.083       25.185     2223.817     1527.455      634.309        1.005        0.219      125.258       22.847        0.033      331.243       -0.869      858.402
12/21/2013  04:12:00     -119.396      -70.770       -1.518       29.135       35.599       20.376      848.864     1267.263      415.189        1.090        0.127      138.794       11.368        0.007      331.265       -0.832      858.369
12/21/2013  04:13:00     -139.306      -45.855       -7.816       24.852       39.023       19.513      617.636     1522.785      380.771        1.205        0.126      146.659       13.878        0.009      331.298       -0.775      858.361
12/21/2013  04:14:00     -113.810        9.839      -10.194       42.409       18.986       18.444     1798.507      360.480      340.171        0.783        0.125      114.234       21.718        0.036      331.294       -0.782      858.376
12/21/2013  04:15:00     -175.667      -25.988      -20.910       25.277       37.074       17.518      638.915     1374.508      306.872        1.715        0.116      177.579       12.755        0.005      331.321       -0.740      858.380
12/21/2013  04:16:00     -179.439      -73.841       -4.492       34.017       34.480       25.061     1157.167     1188.856      628.031        2.032        0.149      194.038       20.535        0.011      331.346       -0.697      858.387
12/21/2013  04:17:00      -95.084      -30.168        1.633       42.685       36.050       20.503     1822.004     1299.574      420.361        0.675        0.177       99.755       14.832        0.022      331.428       -0.564      858.415
12/21/2013  04:18:00      -61.884        6.669       -4.337       36.666       16.573       14.900     1344.372      274.655      222.024        0.287        0.092       62.242       17.879        0.083      331.479       -0.481      858.424
12/21/2013  04:19:00     -107.032       22.635       -8.137       32.244       15.273       11.969     1039.661      233.252      143.257        0.673        0.071      109.399       13.378        0.015      331.533       -0.392      858.418
12/21/2013  04:20:00      -62.748        6.906       -3.523       40.549       23.614       17.204     1644.227      557.644      295.961        0.325        0.125       63.127       15.996        0.064      331.485       -0.469      858.451
12/21/2013  04:21:00      -35.663        5.282       -3.948       28.860       25.157       15.735      832.889      632.898      247.582        0.151        0.086       36.052       18.920        0.275      331.605       -0.273      858.480
12/21/2013  04:22:00       -8.109      -24.302        8.767       22.229       21.669       16.509      494.135      469.525      272.560        0.098        0.062       25.620       15.154        0.350      331.694       -0.125      858.505
12/21/2013  04:23:00       19.938       52.623       58.500       27.190       50.743       28.648      739.288     2574.883      820.728        0.536        0.207       56.273       32.238        0.328      331.656       -0.187      858.502
12/21/2013  04:24:00       21.759       65.577       82.089       40.612       44.422       30.386     1649.341     1973.341      923.313        0.803        0.227       69.092       24.258        0.123      331.589       -0.298      858.503
12/21/2013  04:25:00       46.558       22.332       32.631       46.090       49.198       34.966     2124.249     2420.441     1222.655        0.475        0.288       51.637       28.667        0.308      331.495       -0.454      858.525
12/21/2013  04:26:00       43.806       18.423        4.289       36.058       28.471       17.086     1300.195      810.618      291.946        0.234        0.120       47.522        9.196        0.037      331.563       -0.341      858.531
12/21/2013  04:27:00       69.172       52.922        8.614       18.522       19.735       21.105      343.068      389.455      445.430        0.442        0.059       87.095       14.619        0.028      331.285       -0.799      858.520
12/21/2013  04:28:00       68.555       55.334       -1.612       23.100       15.209       16.565      533.627      231.321      274.415        0.440        0.052       88.100        3.023        0.001      331.119       -1.073      858.490
12/21/2013  04:29:00       34.218       53.490       21.406       20.672       17.922       23.641      427.342      321.202      558.880        0.290        0.065       63.498       15.441        0.059      331.024       -1.227      858.510
12/21/2013  04:30:00       28.865       91.069       -3.884       27.113       42.667       29.265      735.125     1820.512      856.420        0.628        0.171       95.534       28.262        0.088      330.911       -1.412      858.571
12/21/2013  04:31:00       64.302       55.698        4.156       43.847       34.145       27.805     1922.595     1165.877      773.104        0.556        0.193       85.070       23.686        0.078      331.022       -1.230      858.616
12/21/2013  04:32:00      122.660       44.440       10.575       33.209       31.988       30.516     1102.858     1023.209      931.227        1.009        0.153      130.463       17.847        0.019      331.219       -0.907      858.612
12/21/2013  04:33:00       72.688       48.195       24.532       26.852       19.158       25.536      721.052      367.011      652.109        0.497        0.087       87.214       16.570        0.036      331.191       -0.953      858.634
12/21/2013  04:34:00       25.955       54.960        4.563       34.029       29.407       25.546     1157.999      864.773      652.595        0.319        0.134       60.781       20.873        0.118      331.177       -0.976      858.679
12/21/2013  04:35:00        8.677       99.308      -15.510        8.871       11.285        8.760       78.695      127.347       76.739        0.523        0.014       99.687        3.371        0.001      331.335       -0.716      858.676
12/21/2013  04:36:00       25.066       98.887      -11.567       21.599       25.005       15.881      466.518      625.226      252.199        0.594        0.067      102.015       15.853        0.024      331.306       -0.764      858.651
12/21/2013  04:37:00        3.687       85.297      -10.627       15.350       18.986       10.449      235.607      360.470      109.182        0.405        0.035       85.377       10.360        0.015      331.546       -0.368      858.640
12/21/2013  04:38:00      -61.487       41.181       -9.104       36.384       26.817       12.764     1323.762      719.144      162.924        0.388        0.110       74.004        5.357        0.005      331.612       -0.261      858.643
12/21/2013  04:39:00     -184.652      -81.496      -17.718       58.533       41.197       20.097     3426.129     1697.217      403.906        2.329        0.276      201.836        7.512        0.001      331.158       -1.011      858.642
12/21/2013  04:40:00     -229.351      -66.266      -16.092       64.505       66.054       35.086     4160.877     4363.190     1231.054        3.350        0.488      238.732       36.137        0.023      331.211       -0.924      858.669
12/21/2013  04:41:00     -145.411      -40.100       -3.867       43.858       38.264       24.233     1923.507     1464.165      587.220        1.337        0.199      150.839       21.616        0.021      331.202       -0.936      858.712
12/21/2013  04:42:00     -155.707      -34.221      -18.081       27.063       29.328       20.691      732.404      860.112      428.134        1.388        0.101      159.423       13.225        0.007      331.234       -0.882      858.731
12/21/2013  04:43:00      -74.612      -56.249      -10.199       42.685       30.565       22.278     1821.987      934.227      496.293        0.604        0.163       93.439       19.972        0.046      331.276       -0.812      858.713
12/21/2013  04:44:00     -159.596      -90.679      -15.235       35.456       23.635       20.164     1257.102      558.619      406.583        1.807        0.111      183.558       12.549        0.005      331.352       -0.690      858.663
12/21/2013  04:45:00     -180.502      -59.141       -9.390       19.443       25.026       17.446      378.039      626.318      304.373        1.874        0.065      189.944       12.417        0.004      331.373       -0.653      858.637
12/21/2013  04:46:00     -127.646      -53.495       -1.386       31.864       22.370       13.715     1015.336      500.433      188.099        1.043        0.085      138.402        8.222        0.004      331.447       -0.532      858.648
12/21/2013  04:47:00      -18.222      -16.212        7.924       45.506       17.266       14.750     2070.839      298.116      217.561        0.162        0.129       24.390       21.282        0.761      331.575       -0.323      858.665
12/21/2013  04:48:00       12.031        2.540        0.352       11.827        5.784        7.754      139.874       33.449       60.132        0.019        0.012       12.296        2.993        0.059      331.571       -0.329      858.680
12/21/2013  04:49:00      -83.067      -33.487       -3.473       49.420       24.823        9.298     2442.383      616.185       86.446        0.559        0.157       89.562        5.002        0.003      331.555       -0.354      858.663
12/21/2013  04:50:00     -150.021      -70.326      -11.140       31.761       26.215       17.960     1008.781      687.242      322.578        1.480        0.101      165.686       15.959        0.009      331.366       -0.665      858.642
12/21/2013  04:51:00     -147.135      -40.562      -14.675       14.903       21.838       10.627      222.111      476.887      112.924        1.216        0.041      152.624        9.384        0.004      331.297       -0.777      858.637
12/21/2013  04:52:00     -168.711      -63.028      -23.225       19.795       27.003        9.870      391.824      729.160       97.411        1.710        0.061      180.100        5.318        0.001      331.312       -0.753      858.621
12/21/2013  04:53:00     -146.759      -54.361       -3.584       23.784       28.498       16.430      565.686      812.156      269.960        1.308        0.082      156.504        8.319        0.003      331.300       -0.773      858.616
12/21/2013  04:54:00     -116.492      -57.327       -1.536       35.306       35.866       18.643     1246.521     1286.373      347.560        0.987        0.144      129.833       14.987        0.013      331.403       -0.605      858.615
12/21/2013  04:55:00      -65.485       -1.262        3.016       44.845       20.922       20.078     2011.032      437.722      403.134        0.357        0.143       65.497       22.581        0.119      331.374       -0.652      858.623
12/21/2013  04:56:00       -3.411        5.338       16.161       16.343       31.491       25.948      267.110      991.657      673.277        0.112        0.097        6.335       22.595       12.722      331.423       -0.571      858.625
12/21/2013  04:57:00       32.202        2.346       31.962       42.065       23.629       21.969     1769.503      558.320      482.647        0.244        0.141       32.288       17.571        0.296      331.542       -0.375      858.609
12/21/2013  04:58:00       75.379       40.915       51.761       42.853       42.359       32.578     1836.383     1794.302     1061.326        0.736        0.235       85.767       25.995        0.092      331.540       -0.379      858.602
12/21/2013  04:59:00       51.716       87.832       93.123       43.356       47.377       29.968     1879.741     2244.546      898.097        1.204        0.251      101.927       18.699        0.034      331.413       -0.587      858.599
12/21/2013  05:00:00       12.730       21.086       39.696       22.053       21.596       23.999      486.355      466.401      575.940        0.186        0.076       24.631       11.329        0.212      331.341       -0.706      858.611
12/21/2013  05:01:00       19.464       35.028       25.874       20.872       15.693       18.383      435.649      246.286      337.947        0.165        0.051       40.072       12.301        0.094      331.336       -0.716      858.619
12/21/2013  05:02:00        8.538       69.918      -15.869       15.461       15.919        7.483      239.031      253.407       56.001        0.288        0.027       70.437        7.738        0.012      331.222       -0.901      858.659
12/21/2013  05:03:00      -27.169       17.469       -8.955       16.527       14.287        6.293      273.130      204.125       39.597        0.082        0.026       32.300        8.038        0.062      331.659       -0.182      858.663
12/21/2013  05:04:00      -73.086      -12.591       -9.142       21.179       11.568        7.440      448.565      133.818       55.352        0.311        0.032       74.163        7.563        0.010      331.519       -0.413      858.662
12/21/2013  05:05:00      -92.734      -22.314       -7.907       23.254       20.073       14.935      540.738      402.939      223.045        0.516        0.058       95.381       12.624        0.018      331.214       -0.915      858.688
12/21/2013  05:06:00      -82.043      -21.766       -1.668       18.399       21.688       13.238      338.505      470.376      175.247        0.410        0.049       84.882        9.514        0.013      331.218       -0.908      858.709
12/21/2013  05:07:00     -151.048      -10.022      -14.005       21.458       15.647       13.118      460.453      244.836      172.085        1.199        0.044      151.380        7.599        0.003      331.357       -0.679      858.731
12/21/2013  05:08:00     -144.166      -26.142      -13.813       25.408       23.438       16.829      645.578      549.330      283.213        1.157        0.074      146.517       13.333        0.008      331.228       -0.893      858.743
12/21/2013  05:09:00     -104.275      -35.389       -1.299       33.629       18.247       16.821     1130.877      332.939      282.953        0.694        0.087      110.116       18.129        0.027      331.290       -0.789      858.760
12/21/2013  05:10:00      -87.364      -28.763       -5.529       29.921       15.789       12.633      895.250      249.278      159.593        0.490        0.065       91.976       14.009        0.023      331.428       -0.562      858.766
12/21/2013  05:11:00        1.482       10.573       17.820       41.866       12.710       15.385     1752.724      161.539      236.690        0.129        0.108       10.676       18.792        3.098      331.494       -0.455      858.772
12/21/2013  05:12:00       83.108       39.264       16.594       28.879       33.852       23.689      833.997     1145.954      561.184        0.563        0.127       91.917       11.993        0.017      331.601       -0.280      858.772
12/21/2013  05:13:00      116.880       38.040       38.852       55.903       52.235       39.718     3125.151     2728.536     1577.535        1.202        0.372      122.915       24.075        0.038      331.389       -0.628      858.773
12/21/2013  05:14:00       57.453       57.728       47.708       42.130       27.151       24.356     1774.944      737.159      593.221        0.601        0.155       81.445       24.926        0.094      331.230       -0.889      858.800
12/21/2013  05:15:00       50.465       21.594       -1.364       32.436       25.068       13.473     1052.097      628.405      181.525        0.244        0.093       54.891       15.694        0.082      331.303       -0.769      858.825
12/21/2013  05:16:00      -72.649      -31.595      -13.612       41.607       13.993        9.051     1731.153      195.800       81.925        0.423        0.100       79.222       14.227        0.032      331.750       -0.034      858.796
12/21/2013  05:17:00     -135.819      -42.677      -17.628       14.187       19.637        8.075      201.270      385.630       65.212        1.062        0.033      142.366        4.014        0.001      331.394       -0.619      858.757
12/21/2013  05:18:00     -176.086      -43.365      -21.690       23.153       15.591       14.293      536.039      243.074      204.292        1.717        0.049      181.347        9.490        0.003      331.441       -0.542      858.751
12/21/2013  05:19:00     -213.948      -34.930      -30.917       13.387       16.966       12.846      179.213      287.850      165.013        2.429        0.032      216.780        8.752        0.002      331.744       -0.043      858.754
12/21/2013  05:20:00     -190.115      -36.089      -22.547       42.620       24.740       21.088     1816.446      612.077      444.690        2.041        0.144      193.510       14.900        0.006      331.447       -0.532      858.768
12/21/2013  05:21:00     -167.399      -58.006       -5.230       35.723       30.841       24.087     1276.123      951.149      580.173        1.711        0.140      177.164       21.198        0.014      331.437       -0.549      858.764
12/21/2013  05:22:00     -131.078      -33.337       -2.478       27.984       43.270       20.247      783.122     1872.288      409.923        1.068        0.153      135.251       16.210        0.014      331.371       -0.656      858.756
12/21/2013  05:23:00      -48.188        3.658       10.463       34.436       28.183       16.678     1185.867      794.267      278.156        0.235        0.113       48.327       16.477        0.116      331.459       -0.513      858.767
12/21/2013  05:24:00      -11.200       -6.277       12.903       28.364       17.393       21.632      804.493      302.531      467.935        0.095        0.079       12.839       17.585        1.876      331.627       -0.235      858.774
12/21/2013  05:25:00      -72.876       -1.328       -0.935       42.285       22.131       18.817     1788.043      489.763      354.067        0.397        0.132       72.888       21.723        0.089      331.783        0.020      858.773
12/21/2013  05:26:00      -78.744      -22.414       -6.417       28.391       17.413       16.586      806.049      303.208      275.110        0.406        0.069       81.872       15.472        0.036      331.801        0.051      858.769
12/21/2013  05:27:00     -110.209       -9.907       -6.146       29.149       19.091       14.241      849.691      364.479      202.810        0.685        0.071      110.653       15.163        0.019      331.965        0.320      858.771
12/21/2013  05:28:00     -141.933      -36.013      -10.785       34.977       25.222       13.690     1223.385      636.168      187.416        1.180        0.102      146.430       13.881        0.009      331.930        0.262      858.756
12/21/2013  05:29:00     -162.681      -65.292       -3.165       21.709       19.980       11.781      471.300      399.217      138.781        1.587        0.050      175.295       10.150        0.003      331.750       -0.033      858.735
12/21/2013  05:30:00     -175.192      -34.685      -12.074       25.519       25.608       15.436      651.196      655.753      238.256        1.679        0.077      178.593       17.683        0.010      331.890        0.196      858.727
12/21/2013  05:31:00     -201.039      -34.023      -20.344       28.229       25.973       17.795      796.849      674.613      316.668        2.189        0.089      203.898       17.104        0.007      331.915        0.237      858.731
12/21/2013  05:32:00     -156.562      -24.301       -9.631       42.424       27.937       20.453     1799.769      780.492      418.329        1.410        0.150      158.437       21.912        0.019      331.810        0.066      858.708
12/21/2013  05:33:00     -137.417       -0.166       -9.721       32.384       27.770       13.952     1048.746      771.167      194.671        1.050        0.101      137.417       16.038        0.014      331.962        0.317      858.720
12/21/2013  05:34:00      -95.210      -11.946      -10.126       30.637       23.244       14.719      938.644      540.272      216.639        0.550        0.085       95.956       14.419        0.023      331.758       -0.019      858.750
12/21/2013  05:35:00     -109.002      -47.175       -4.790       25.116       31.999       18.136      630.838     1023.962      328.920        0.806        0.099      118.773       14.603        0.015      331.707       -0.105      858.755
12/21/2013  05:36:00     -144.287      -39.540      -15.398       33.863       35.656       18.147     1146.681     1271.354      329.328        1.268        0.137      149.607       14.612        0.010      331.909        0.229      858.768
12/21/2013  05:37:00     -172.565      -32.542      -20.825       27.085       26.515       16.702      733.610      703.019      278.951        1.649        0.086      175.606       14.405        0.007      332.001        0.381      858.788
12/21/2013  05:38:00     -164.010      -40.935      -12.213       36.458       30.960       22.190     1329.216      958.535      492.416        1.575        0.139      169.041       20.256        0.014      332.225        0.751      858.795
12/21/2013  05:39:00     -164.171      -29.871      -20.816       35.893       24.669       18.829     1288.290      608.542      354.540        1.526        0.113      166.866       18.941        0.013      332.216        0.735      858.797
12/21/2013  05:40:00     -133.696      -33.179      -11.969       34.415       30.772       19.078     1184.392      946.887      363.986        1.081        0.125      137.751       19.156        0.019      332.257        0.802      858.792
12/21/2013  05:41:00     -158.477       12.662      -19.512       26.831       23.835       22.247      719.882      568.125      494.937        1.372        0.089      158.982       16.775        0.011      332.596        1.362      858.791
12/21/2013  05:42:00     -144.852      -17.766      -21.379       28.693       25.339       16.056      823.297      642.073      257.805        1.174        0.086      145.937       16.069        0.012      332.222        0.744      858.805
12/21/2013  05:43:00     -141.347      -10.285      -19.305       47.419       33.351       23.250     2248.528     1112.264      540.544        1.218        0.195      141.721       23.803        0.028      332.154        0.632      858.826
12/21/2013  05:44:00     -116.178       13.658      -21.711       43.232       39.126       29.294     1868.982     1530.840      858.144        0.921        0.213      116.979       21.342        0.033      332.466        1.146      858.857
12/21/2013  05:45:00     -122.214       26.310      -22.356       24.240       33.877       17.963      587.596     1147.634      322.687        0.909        0.103      125.014       11.055        0.008      332.743        1.605      858.888
12/21/2013  05:46:00     -109.485       -0.156      -18.363       22.118       18.312       15.274      489.194      335.342      233.301        0.669        0.053      109.485       13.014        0.014      332.097        0.537      858.908
12/21/2013  05:47:00     -137.619        0.600      -30.338       18.353       20.356       14.276      336.836      414.362      203.797        1.041        0.048      137.621        7.793        0.003      331.787        0.027      858.937
12/21/2013  05:48:00     -141.157        7.532      -29.421       20.728       26.012       17.313      429.645      676.637      299.723        1.113        0.070      141.358       10.717        0.006      332.365        0.981      858.959
12/21/2013  05:49:00     -143.507       -2.127      -32.713       21.125       25.651       15.971      446.274      657.968      255.081        1.151        0.068      143.523       12.827        0.008      332.187        0.687      858.954
12/21/2013  05:50:00     -135.475        0.635      -26.246       18.953       15.813       17.665      359.202      250.038      312.063        0.998        0.046      135.476       11.534        0.007      332.083        0.516      858.930
12/21/2013  05:51:00     -132.379        1.610      -24.270       22.780       21.649       13.802      518.923      468.690      190.502        0.965        0.059      132.389        9.973        0.006      332.127        0.588      858.915
12/21/2013  05:52:00     -150.586        9.784      -28.280       25.739       18.745       14.378      662.515      351.366      206.722        1.240        0.061      150.904       11.263        0.006      332.132        0.595      858.898
12/21/2013  05:53:00     -108.651        7.624      -18.543       33.046       24.545       17.948     1092.020      602.478      322.136        0.711        0.101      108.918       16.785        0.024      332.391        1.024      858.888
12/21/2013  05:54:00     -128.360       -6.889      -24.255       30.595       30.034       17.708      936.038      902.049      313.577        0.963        0.108      128.545       15.854        0.015      332.271        0.825      858.877
12/21/2013  05:55:00      -96.053       35.796      -22.379       25.483       23.328       13.521      649.365      544.216      182.828        0.619        0.069      102.506       12.828        0.016      333.813        3.374      858.867
12/21/2013  05:56:00     -121.461       -0.899      -23.327       48.339       29.214       21.983     2336.641      853.470      483.264        0.948        0.184      121.465       21.474        0.031      332.285        0.847      858.882
12/21/2013  05:57:00     -142.491       25.795      -28.309       50.291       36.065       20.524     2529.140     1300.716      421.253        1.301        0.213      144.807       18.067        0.016      332.671        1.486      858.875
12/21/2013  05:58:00     -112.843        8.916      -18.126       27.914       25.062       20.172      779.178      628.084      406.894        0.748        0.091      113.195       16.979        0.022      332.799        1.697      858.867
12/21/2013  05:59:00     -108.391        4.015      -24.214       26.695       21.624       14.726      712.629      467.585      216.849        0.687        0.070      108.465       13.374        0.015      332.385        1.013      858.880
12/21/2013  06:00:00     -130.013       -3.472      -26.799       25.371       23.176       15.297      643.688      537.143      234.005        0.952        0.071      130.060       12.303        0.009      332.637        1.431      858.903
12/21/2013  06:01:00      -98.614       -1.201      -19.197       22.903       30.027       16.796      524.535      901.629      282.106        0.590        0.085       98.621       15.519        0.025      332.354        0.963      858.931
12/21/2013  06:02:00     -105.500       -0.341      -15.165       22.688       21.774       16.271      514.726      474.111      264.761        0.631        0.063      105.501       14.292        0.018      332.449        1.120      858.949
12/21/2013  06:03:00     -109.010        5.734      -25.162       21.533       11.656       11.471      463.653      135.872      131.588        0.664        0.037      109.160        8.456        0.006      333.016        2.055      858.957
12/21/2013  06:04:00      -82.373      -46.450       -9.150       29.239       39.189       24.584      854.898     1535.753      604.360        0.601        0.150       94.567       12.420        0.017      332.414        1.061      858.978
12/21/2013  06:05:00      -78.459       -5.440      -20.074       24.716       28.541       16.014      610.874      814.562      256.444        0.413        0.084       78.647       14.988        0.036      332.794        1.689      858.983
12/21/2013  06:06:00     -153.635       13.097      -25.462       34.532       24.706       20.731     1192.484      610.402      429.777        1.333        0.112      154.193       10.997        0.005      333.349        2.605      858.982
12/21/2013  06:07:00     -101.998      -24.628      -22.297       29.444       31.749       19.983      866.961     1008.030      399.337        0.689        0.114      104.929       21.225        0.041      332.783        1.670      858.999
12/21/2013  06:08:00      -83.435       15.993      -12.622       18.982       30.018       11.575      360.330      901.053      133.972        0.439        0.070       84.954       11.544        0.018      333.628        3.069      859.018
12/21/2013  06:09:00      -93.284       -1.938      -24.747       16.747       22.855       13.626      280.459      522.340      185.670        0.515        0.049       93.305        6.455        0.005      333.177        2.323      859.050
12/21/2013  06:10:00      -75.493       -2.974      -18.546       12.147       13.586        7.910      147.546      184.574       62.575        0.322        0.020       75.552        5.233        0.005      333.661        3.123      859.046
12/21/2013  06:11:00      -57.499        0.173      -11.281       15.722       14.674        7.029      247.169      215.327       49.411        0.197        0.026       57.499        5.951        0.011      333.607        3.033      859.050
12/21/2013  06:12:00       -1.286       18.156       -0.940       21.643        8.386       11.120      468.398       70.318      123.662        0.050        0.033       18.202       11.150        0.375      334.465        4.456      859.063
12/21/2013  06:13:00       59.340       43.004       25.656       38.918       29.470       33.884     1514.602      868.489     1148.104        0.478        0.177       73.284       14.670        0.040      333.254        2.450      859.096
12/21/2013  06:14:00      111.480       55.820       12.000       36.326       28.658       27.678     1319.545      821.301      766.071        0.930        0.145      124.674       17.603        0.020      332.269        0.822      859.116
12/21/2013  06:15:00       61.441       21.730       26.565       42.071       32.723       29.165     1770.003     1070.780      850.595        0.432        0.185       65.171       28.061        0.185      332.025        0.419      859.130
12/21/2013  06:16:00       33.009       64.546       65.298       28.401       41.501       31.797      806.597     1722.367     1011.067        0.653        0.177       72.496       31.327        0.187      331.950        0.296      859.151
12/21/2013  06:17:00       89.172       65.124       58.186       75.569       58.271       49.147     5710.599     3395.547     2415.425        1.355        0.576      110.421       45.004        0.166      331.776        0.009      859.178
12/21/2013  06:18:00       98.084       72.736       64.808       49.063       42.500       32.732     2407.212     1806.255     1071.353        1.220        0.264      122.111       24.196        0.039      331.439       -0.545      859.212
12/21/2013  06:19:00      117.292      -20.196       20.004       38.713       37.967       25.942     1498.674     1441.457      672.962        0.909        0.181      119.018       18.403        0.024      331.516       -0.419      859.235
12/21/2013  06:20:00       87.989      -77.524        7.696       27.866       28.680       20.075      776.517      822.523      402.998        0.791        0.100      117.270       21.266        0.033      331.787        0.028      859.238
12/21/2013  06:21:00        7.197      -70.019       -9.596       42.061       27.958       20.623     1769.089      781.649      425.302        0.401        0.149       70.388       17.205        0.060      332.173        0.665      859.205
12/21/2013  06:22:00      -51.458      -31.932       -7.217       26.046       12.831        7.567      678.412      164.639       57.266        0.231        0.045       60.560        6.834        0.013      331.961        0.314      859.199
12/21/2013  06:23:00      -11.167      -17.606       22.262       32.827       62.182       29.845     1077.622     3866.652      890.708        0.338        0.292       20.848       28.894        1.921      332.437        1.098      859.206
12/21/2013  06:24:00      -72.328       44.916      -19.595       56.906       39.777       21.399     3238.333     1582.247      457.931        0.645        0.264       85.139       31.759        0.139      332.268        0.820      859.249
12/21/2013  06:25:00       -7.428       -5.403       -1.118       23.870        9.225        5.087      569.774       85.103       25.873        0.038        0.034        9.185        8.430        0.842      332.561        1.304      859.217
12/21/2013  06:26:00      -41.864       -4.482       -5.649       28.855       18.491        9.778      832.593      341.928       95.610        0.154        0.064       42.103        8.258        0.038      332.986        2.006      859.210
12/21/2013  06:27:00      -92.905       -4.515      -15.811       13.702       15.486       16.539      187.754      239.801      273.534        0.480        0.035       93.014       11.340        0.015      332.100        0.544      859.215
12/21/2013  06:28:00     -127.530       -3.272      -20.807       13.215       10.646        9.076      174.638      113.338       82.381        0.854        0.019      127.572        6.143        0.002      332.036        0.439      859.243
12/21/2013  06:29:00     -125.073      -11.904      -18.587       26.475       14.656       13.760      700.926      214.812      189.331        0.862        0.055      125.638       11.816        0.009      332.161        0.643      859.271
12/21/2013  06:30:00     -107.564       -9.661      -19.030       20.874       16.919       14.979      435.735      286.245      224.357        0.649        0.047      107.997       12.440        0.013      332.106        0.553      859.299
12/21/2013  06:31:00      -99.188       -0.694      -23.053       21.783       14.311       10.236      474.496      204.799      104.766        0.558        0.039       99.191        6.648        0.004      332.138        0.609      859.319
12/21/2013  06:32:00     -132.582      -16.418      -27.463       36.352       14.006       10.993     1321.491      196.179      120.853        1.012        0.082      133.595       12.548        0.009      332.063        0.483      859.331
12/21/2013  06:33:00      -79.715      -42.936      -10.637       21.308       20.583       16.523      454.036      423.647      273.024        0.473        0.058       90.543       10.590        0.014      331.922        0.250      859.361
12/21/2013  06:34:00      -61.581      -17.750      -13.055       17.220        9.312        6.271      296.520       86.706       39.327        0.235        0.021       64.088        6.792        0.011      332.535        1.261      859.366
12/21/2013  06:35:00      -78.499      -14.452      -18.053       31.291       16.908       10.396      979.133      285.886      108.080        0.403        0.069       79.818        8.397        0.011      332.771        1.650      859.374
12/21/2013  06:36:00     -145.542      -11.758      -24.136       24.665       16.472       10.835      608.368      271.314      117.395        1.145        0.050      146.016        4.663        0.001      332.043        0.450      859.382
12/21/2013  06:37:00     -113.102      -18.180      -10.884       39.002       17.611       15.849     1521.186      310.163      251.203        0.766        0.104      114.554       19.222        0.028      331.845        0.122      859.368
12/21/2013  06:38:00     -142.864       10.908      -22.975       34.200       18.027       16.208     1169.640      324.982      262.710        1.141        0.088      143.280       16.860        0.014      332.173        0.663      859.363
12/21/2013  06:39:00     -145.910        5.095      -25.676       30.962       20.774       16.057      958.634      431.565      257.834        1.181        0.082      145.999       11.508        0.006      332.240        0.774      859.363
12/21/2013  06:40:00     -126.881       -1.752      -21.396       23.125       26.036       18.568      534.787      677.858      344.766        0.906        0.078      126.893       12.458        0.010      332.345        0.948      859.346
12/21/2013  06:41:00     -114.408       38.182      -27.856       25.941       41.726       19.563      672.944     1741.065      382.712        0.906        0.140      120.611       17.362        0.021      332.703        1.539      859.304
12/21/2013  06:42:00     -159.659       30.159      -30.892       36.874       49.651       20.818     1359.663     2465.211      433.405        1.581        0.213      162.482       21.748        0.018      332.075        0.502      859.325
12/21/2013  06:43:00     -125.571       19.770      -17.153       52.871       39.730       26.277     2795.371     1578.470      690.506        1.076        0.253      127.118       25.249        0.039      332.204        0.715      859.354
12/21/2013  06:44:00     -153.214       14.416      -27.999       34.523       32.701       24.173     1191.806     1069.329      584.337        1.366        0.142      153.891       13.638        0.008      332.973        1.983      859.363
12/21/2013  06:45:00     -130.226       -9.703      -21.900       32.209       28.804       18.760     1037.448      829.652      351.932        0.988        0.111      130.587        9.163        0.005      332.617        1.396      859.373
12/21/2013  06:46:00     -111.869       11.344      -18.842       20.654       28.411       19.387      426.602      807.169      375.866        0.730        0.080      112.443       14.709        0.017      332.409        1.053      859.375
12/21/2013  06:47:00      -88.973       -4.612      -26.762       20.759       26.291       19.471      430.954      691.236      379.108        0.508        0.075       89.093       15.960        0.032      332.405        1.047      859.393
12/21/2013  06:48:00        4.426       60.654       38.487       72.293       57.909       63.801     5226.346     3353.488     4070.577        0.891        0.633       60.815       58.748        0.933      332.817        1.726      859.423
12/21/2013  06:49:00       98.365      103.094      115.025       72.658       69.894       53.895     5279.188     4885.235     2904.632        2.330        0.653      142.492       44.386        0.097      331.340       -0.710      859.466
12/21/2013  06:50:00       85.481       83.173      100.134       71.028       61.149       48.883     5045.012     3739.163     2389.539        1.771        0.559      119.268       45.908        0.148      331.213       -0.918      859.519
12/21/2013  06:51:00      101.347       74.880       91.204       42.795       58.810       41.218     1831.376     3458.587     1698.914        1.559        0.349      126.009       40.391        0.103      331.227       -0.896      859.544
12/21/2013  06:52:00       68.088       15.892       32.118       64.265       43.899       33.553     4129.931     1927.132     1125.777        0.655        0.359       69.918       30.015        0.184      331.450       -0.527      859.540
12/21/2013  06:53:00        0.285      -17.366       16.223       18.800       23.644       19.059      353.436      559.016      363.253        0.092        0.064       17.368       17.166        0.977      331.958        0.309      859.537
12/21/2013  06:54:00        5.486       17.755       25.182       18.680       26.323       19.401      348.944      692.892      376.394        0.120        0.071       18.583       18.634        1.005      331.737       -0.056      859.544
12/21/2013  06:55:00        2.994      -31.016       -7.734       13.188       11.966        9.427      173.924      143.193       88.871        0.072        0.020       31.160        3.660        0.014      331.956        0.303      859.544
12/21/2013  06:56:00      -29.285      -15.927       -7.411       11.682        9.194        7.488      136.473       84.529       56.075        0.072        0.014       33.336        4.076        0.015      332.080        0.510      859.536
12/21/2013  06:57:00      -23.213       -5.792       -5.481       17.690        5.417        7.018      312.935       29.340       49.250        0.050        0.020       23.925        6.782        0.080      332.207        0.719      859.535
12/21/2013  06:58:00      -49.354        4.238       -7.651       11.897        8.676        7.347      141.544       75.266       53.985        0.139        0.014       49.535        7.628        0.024      331.944        0.287      859.537
12/21/2013  06:59:00      -41.548       12.575      -17.783       14.740       13.596        9.582      217.271      184.847       91.809        0.135        0.025       43.410        8.364        0.037      332.443        1.108      859.559
12/21/2013  07:00:00      -71.809       -4.674      -16.891       23.904       18.284        8.097      571.398      334.299       65.569        0.322        0.049       71.961        6.076        0.007      332.324        0.913      859.545
12/21/2013  07:01:00     -109.360      -44.207      -20.034       10.898       16.322        8.500      118.763      266.397       72.244        0.739        0.023      117.957        8.569        0.005      331.997        0.373      859.505
12/21/2013  07:02:00     -100.927      -24.634      -16.967       13.197       11.759        9.951      174.159      138.275       99.031        0.575        0.021      103.889        8.359        0.006      331.925        0.255      859.486
12/21/2013  07:03:00      -74.741      -31.822      -17.319       10.302        9.339        7.494      106.140       87.225       56.159        0.357        0.012       81.233        5.163        0.004      331.998        0.376      859.478
12/21/2013  07:04:00      -82.615      -21.557      -19.043       15.628       12.306        6.332      244.249      151.436       40.094        0.404        0.022       85.381        1.870        0.000      332.181        0.676      859.483
12/21/2013  07:05:00      -85.179      -11.704      -17.707        8.304        6.747        6.598       68.959       45.526       43.528        0.393        0.008       85.980        2.295        0.001      332.208        0.721      859.504
12/21/2013  07:06:00      -91.004      -30.471      -15.564        9.046        8.428        8.450       81.830       71.029       71.405        0.484        0.011       95.970        3.901        0.002      332.318        0.904      859.534
12/21/2013  07:07:00      -68.072      -29.962      -13.289       19.517       15.256       11.231      380.895      232.760      126.146        0.322        0.037       74.374        9.495        0.016      332.270        0.823      859.569
12/21/2013  07:08:00      -60.603        3.381      -11.896       12.668        9.014        7.897      160.488       81.255       62.363        0.206        0.015       60.697        6.602        0.012      332.394        1.029      859.631
12/21/2013  07:09:00       75.996       41.654       11.547       86.416       53.351       34.282     7467.784     2846.313     1175.286        0.956        0.574       86.663       22.789        0.069      332.154        0.632      859.672
12/21/2013  07:10:00      164.988       97.721       17.253       50.865       44.052       38.782     2587.275     1940.621     1504.073        2.155        0.302      191.757       30.021        0.025      331.616       -0.256      859.721
12/21/2013  07:11:00       89.397       45.812       13.854       47.212       34.413       20.570     2228.997     1184.253      423.132        0.706        0.192      100.452       10.392        0.011      331.673       -0.160      859.759
12/21/2013  07:12:00       34.489       21.632        6.748       32.955       19.447       11.576     1086.060      378.168      134.012        0.165        0.080       40.712       11.044        0.074      332.056        0.470      859.759
12/21/2013  07:13:00       53.759       42.009        6.902       29.543       16.973       12.456      872.786      288.067      155.149        0.301        0.066       68.226        9.160        0.018      332.001        0.380      859.762
12/21/2013  07:14:00        2.413       57.263      -12.327       11.538       25.711        8.932      133.131      661.036       79.780        0.216        0.044       57.314       12.418        0.047      332.231        0.759      859.771
12/21/2013  07:15:00      -12.648       51.567      -11.268       16.440       29.529       10.504      270.271      871.949      110.341        0.210        0.063       53.095       14.602        0.076      332.733        1.588      859.755
12/21/2013  07:16:00      -18.924       44.800       -4.638       34.630       48.638       16.868     1199.229     2365.645      284.533        0.312        0.192       48.633       16.557        0.116      332.914        1.887      859.743
12/21/2013  07:17:00      -69.935       -2.865      -10.641       14.821       22.917        9.244      219.664      525.198       85.444        0.292        0.042       69.994        8.501        0.015      332.190        0.692      859.755
12/21/2013  07:18:00      -98.295      -29.093      -18.249       14.143       20.086        9.066      200.025      403.444       82.199        0.576        0.034      102.510        7.207        0.005      331.886        0.191      859.738
12/21/2013  07:19:00     -105.673      -30.089      -20.983       15.917       19.856        9.778      253.358      394.251       95.604        0.663        0.037      109.873        9.878        0.008      332.006        0.388      859.733
12/21/2013  07:20:00     -103.724      -17.715      -21.286       12.411       20.227       13.683      154.037      409.125      187.211        0.614        0.038      105.226        6.625        0.004      332.062        0.481      859.749
12/21/2013  07:21:00      -86.511       -4.612      -15.132        8.757        9.179        8.393       76.689       84.260       70.445        0.398        0.012       86.634        5.902        0.005      332.149        0.626      859.786
12/21/2013  07:22:00      -26.751       -4.614      -13.374       39.262       19.132       10.778     1541.489      366.024      116.165        0.147        0.101       27.146        9.541        0.124      332.223        0.747      859.842
12/21/2013  07:23:00       75.200        9.709        2.035       28.200       18.080       18.207      795.239      326.903      331.511        0.360        0.073       75.824        6.289        0.007      332.441        1.105      859.908
12/21/2013  07:24:00       53.974        3.580       -0.253       48.296       23.544       17.660     2332.544      554.299      311.879        0.306        0.160       54.092       12.804        0.056      332.558        1.298      859.925
12/21/2013  07:25:00       14.419       -7.414        8.742       14.310        9.962        8.046      204.771       99.246       64.733        0.035        0.018       16.214        6.962        0.184      332.416        1.062      859.927
12/21/2013  07:26:00      -11.574      -25.933       -3.328       15.122        8.427        7.431      228.671       71.019       55.218        0.059        0.018       28.398        6.579        0.054      332.701        1.536      859.917
12/21/2013  07:27:00      -46.806      -17.756       -8.543        6.611       11.941        7.105       43.704      142.598       50.488        0.141        0.012       50.061        5.156        0.011      332.057        0.471      859.901
12/21/2013  07:28:00      -39.746      -17.623      -10.201        9.680       11.050        5.963       93.710      122.108       35.563        0.112        0.013       43.477        2.065        0.002      332.547        1.281      859.915
12/21/2013  07:29:00      -35.522       -2.002       -2.558       11.022       13.425        5.823      121.482      180.244       33.912        0.080        0.017       35.579        2.571        0.005      333.027        2.074      859.928
12/21/2013  07:30:00      -53.880       12.098       -6.508       16.765       12.493        5.165      281.077      156.072       26.676        0.178        0.023       55.221        4.725        0.007      332.889        1.844      859.927
12/21/2013  07:31:00      -76.825      -17.328      -14.314       16.343       10.751        6.197      267.098      115.584       38.404        0.341        0.021       78.755        5.231        0.004      332.573        1.322      859.915
12/21/2013  07:32:00      -53.113      -11.418       -7.295        7.140        8.752        8.732       50.980       76.599       76.243        0.160        0.010       54.327        6.679        0.015      332.616        1.394      859.911
12/21/2013  07:33:00      -43.556      -12.929       -6.394       13.663       12.096        8.583      186.680      146.322       73.667        0.126        0.020       45.434        8.916        0.039      332.848        1.778      859.920
12/21/2013  07:34:00      -85.460       -7.090      -20.105       10.771       10.603        6.371      116.014      112.416       40.591        0.401        0.013       85.754        3.303        0.001      332.592        1.354      859.949
12/21/2013  07:35:00      -81.895       23.282       -8.576       12.304       10.372        9.939      151.386      107.588       98.779        0.384        0.018       85.140        3.809        0.002      332.332        0.927      860.005
12/21/2013  07:36:00      -98.484      -11.380      -17.133       11.839       19.592        7.766      140.159      383.830       60.316        0.535        0.029       99.139        4.995        0.003      332.363        0.976      860.035
12/21/2013  07:37:00      -88.719      -31.985      -19.635       12.707       16.900       10.299      161.457      285.624      106.060        0.492        0.028       94.309        4.794        0.003      332.278        0.837      860.051
12/21/2013  07:38:00      -99.470      -17.438      -18.609       11.621       13.063        9.029      135.040      170.647       81.528        0.547        0.019      100.987        7.287        0.005      332.116        0.569      860.073
12/21/2013  07:39:00      -57.682       -0.206       -7.357       18.889       11.857        6.883      356.786      140.595       47.377        0.196        0.027       57.683        2.367        0.002      332.209        0.722      860.103
12/21/2013  07:40:00      -24.451       16.725      -11.586       26.009       15.890       13.379      676.486      252.479      179.005        0.106        0.055       29.624       12.773        0.186      333.504        2.862      860.105
12/21/2013  07:41:00      -15.043      -15.555        1.721       13.059        7.227        8.564      170.542       52.234       73.346        0.038        0.015       21.639        8.837        0.167      333.087        2.173      860.109
12/21/2013  07:42:00      -44.872      -14.526       -1.320       20.233       10.329       11.275      409.393      106.691      127.118        0.143        0.032       47.164       12.381        0.069      332.825        1.741      860.130
12/21/2013  07:43:00     -126.883      -16.157      -19.796       23.206       16.795       11.929      538.512      282.062      142.291        0.886        0.048      127.908       10.079        0.006      332.170        0.658      860.152
12/21/2013  07:44:00     -168.910       -4.370      -16.217       35.955       19.179       21.295     1292.750      367.841      453.472        1.546        0.106      168.967       18.658        0.012      331.922        0.250      860.176
12/21/2013  07:45:00      -42.051      -10.008       -1.927       44.291       35.804       18.029     1961.735     1281.898      325.063        0.272        0.178       43.225       19.773        0.209      331.814        0.072      860.173
12/21/2013  07:46:00      -45.218      -43.290        1.427       22.845       25.317       19.013      521.897      640.947      361.484        0.272        0.076       62.599       14.061        0.050      331.941        0.281      860.165
12/21/2013  07:47:00      -42.969      -39.772       -4.028       14.847       11.426        9.731      220.421      130.552       94.686        0.194        0.022       58.550        3.789        0.004      332.671        1.486      860.135
12/21/2013  07:48:00       51.800      -93.541      -12.020       49.559       34.445       13.776     2456.096     1186.483      189.770        0.770        0.192      106.925       24.375        0.052      333.315        2.549      860.095
12/21/2013  07:49:00      123.889     -151.767      -23.410       20.086       19.658       13.535      403.445      386.441      183.193        1.995        0.049      195.912        5.371        0.001      333.498        2.852      860.058
12/21/2013  07:50:00       50.061      -66.339       -3.558       51.899       59.099       25.952     2693.495     3492.689      673.514        0.689        0.343       83.108       28.863        0.121      333.356        2.616      860.075
12/21/2013  07:51:00      -83.869       37.882       -5.421       24.133       18.734       12.698      582.403      350.949      161.228        0.480        0.055       92.027        9.944        0.012      332.791        1.684      860.142
12/21/2013  07:52:00     -113.441       40.847       -7.493       44.081       27.956       21.171     1943.093      781.516      448.194        0.888        0.159      120.571       20.746        0.030      332.306        0.884      860.202
12/21/2013  07:53:00     -173.017       18.327      -16.384       50.715       53.639       27.199     2572.011     2877.147      739.793        1.836        0.309      173.985       13.116        0.006      332.219        0.738      860.237
12/21/2013  07:54:00     -115.549      -29.083       -9.857       40.957       35.288       21.704     1677.510     1245.211      471.058        0.884        0.170      119.153       13.334        0.013      332.256        0.801      860.243
12/21/2013  07:55:00      -73.414      -52.543       -0.840       28.254       23.322       17.721      798.290      543.915      314.019        0.490        0.083       90.279       14.606        0.026      332.441        1.107      860.236
12/21/2013  07:56:00       -0.975      -31.716        9.312       18.327       14.496       11.969      335.871      210.141      143.267        0.089        0.034       31.731        3.925        0.015      332.563        1.306      860.239
12/21/2013  07:57:00      -22.347      -16.577        1.414       14.632       13.363        9.191      214.098      178.574       84.470        0.063        0.024       27.824        7.568        0.074      332.491        1.188      860.273
12/21/2013  07:58:00      -35.155       -0.063       -0.447        6.572        6.897        5.470       43.190       47.575       29.921        0.068        0.006       35.155        2.492        0.005      332.615        1.393      860.317
12/21/2013  07:59:00       -6.151       13.366        4.309       16.159       11.642        8.589      261.116      135.527       73.772        0.035        0.024       14.714        8.657        0.346      332.847        1.777      860.355
12/21/2013  08:00:00       37.871       16.005        8.678       15.127       14.560       13.238      228.812      211.989      175.242        0.119        0.031       41.114        7.440        0.033      333.021        2.064      860.375
12/21/2013  08:01:00       38.467       33.395       42.803       23.465       18.135       18.475      550.584      328.896      341.328        0.282        0.061       50.940       16.701        0.107      332.869        1.813      860.386
12/21/2013  08:02:00        0.420       33.483       45.304       22.736       20.747       10.815      516.946      430.441      116.963        0.212        0.053       33.486       10.391        0.096      333.136        2.253      860.380
12/21/2013  08:03:00        6.027       20.924       33.107       10.163       18.529       10.084      103.288      343.308      101.688        0.106        0.027       21.775        6.135        0.079      333.149        2.274      860.391
12/21/2013  08:04:00      -11.342      -19.379       10.784       27.376       17.188       12.364      749.431      295.416      152.868        0.091        0.060       22.454        3.076        0.019      333.078        2.157      860.420
12/21/2013  08:05:00      -50.022       -1.871        5.161       11.832        9.696       10.601      139.995       94.020      112.376        0.144        0.017       50.057        6.958        0.019      332.998        2.025      860.437
12/21/2013  08:06:00      -14.471       -8.550       -0.211       18.310        9.830        3.543      335.269       96.633       12.552        0.036        0.022       16.808        3.549        0.045      332.911        1.881      860.435
12/21/2013  08:07:00       -7.997       -2.990       -2.353       11.121        8.643       10.799      123.679       74.693      116.621        0.020        0.016        8.538        6.802        0.635      333.276        2.484      860.446
12/21/2013  08:08:00      -25.610      -23.211       -4.547       14.824        8.189        8.833      219.745       67.064       78.017        0.079        0.018       34.563        7.078        0.042      333.164        2.298      860.464
12/21/2013  08:09:00      -85.361      -18.319       -6.133       21.337       24.099        9.527      455.247      580.776       90.765        0.439        0.056       87.305        7.430        0.007      332.651        1.453      860.467
12/21/2013  08:10:00     -109.008      -42.894        3.795       45.396       34.937       21.433     2060.798     1220.602      459.385        0.874        0.187      117.144       20.880        0.032      332.456        1.131      860.456
12/21/2013  08:11:00     -174.868      -60.475       -7.031       41.204       52.132       28.613     1697.730     2717.790      818.706        1.976        0.262      185.029       24.234        0.017      332.557        1.295      860.446
12/21/2013  08:12:00     -148.608       10.467      -14.472       47.074       32.362       23.386     2216.003     1047.267      546.916        1.311        0.191      148.976       18.656        0.016      332.453        1.126      860.462
12/21/2013  08:13:00     -106.891       -3.893       -6.731       36.553       25.137       18.546     1336.096      631.848      343.970        0.690        0.116      106.962       13.942        0.017      332.668        1.480      860.468
12/21/2013  08:14:00      -28.852      -46.728        2.376       21.196       21.490        9.031      449.280      461.809       81.563        0.201        0.050       54.918       10.228        0.035      333.030        2.078      860.458
12/21/2013  08:15:00       -9.897      -51.851       -8.075       17.067       24.801       16.327      291.273      615.087      266.570        0.201        0.059       52.788       17.089        0.105      333.398        2.688      860.474
12/21/2013  08:16:00      -60.113      -29.424        0.411       33.309       24.549       15.368     1109.478      602.675      236.173        0.321        0.097       66.928       10.025        0.022      333.443        2.760      860.501
12/21/2013  08:17:00     -142.064       35.056      -12.761       26.807       19.270        7.507      718.605      371.338       56.354        1.136        0.057      146.325        8.374        0.003      332.877        1.824      860.537
12/21/2013  08:18:00     -145.394       18.389      -14.939       57.913       52.459       25.188     3353.925     2751.935      634.413        1.422        0.337      146.553       22.167        0.023      332.703        1.538      860.560
12/21/2013  08:19:00     -168.927       22.253      -15.519       41.836       42.546       18.529     1750.287     1810.195      343.312        1.659        0.195      170.386       19.720        0.013      333.124        2.232      860.574
12/21/2013  08:20:00      -48.217      -45.692        4.586       21.610       20.637       18.052      466.976      425.885      325.890        0.283        0.061       66.428       15.515        0.055      333.232        2.412      860.559
12/21/2013  08:21:00      -23.891      -70.939       -0.848       18.139       23.549       14.908      329.015      554.559      222.256        0.335        0.055       74.854       11.759        0.025      333.908        3.531      860.552
12/21/2013  08:22:00       -7.394      -28.625       -2.060       11.171       21.033        9.996      124.790      442.400       99.921        0.077        0.033       29.564        8.537        0.083      334.008        3.697      860.541
12/21/2013  08:23:00      -19.414       14.566        5.939       14.823        8.090        8.630      219.722       65.446       74.469        0.049        0.018       24.271        6.479        0.071      333.959        3.617      860.533
12/21/2013  08:24:00      -16.766        4.541       16.069        9.540        8.399        5.917       91.021       70.544       35.008        0.038        0.010       17.370        4.963        0.082      334.402        4.352      860.527
12/21/2013  08:25:00       22.967       29.324       10.530       20.028       27.328       15.579      401.130      746.817      242.706        0.144        0.070       37.247       18.361        0.243      334.052        3.771      860.536
12/21/2013  08:26:00       33.353       77.806      -12.060       15.865       20.333       18.746      251.700      413.444      351.410        0.416        0.051       84.653       15.918        0.035      333.658        3.116      860.559
12/21/2013  08:27:00        8.636       46.816       -3.673       18.953       21.067       15.624      359.202      443.825      244.116        0.166        0.052       47.606       14.531        0.093      334.020        3.720      860.605
12/21/2013  08:28:00       19.830       67.815      -11.402       17.063       20.963       17.091      291.154      439.426      292.112        0.307        0.051       70.655       15.867        0.050      333.924        3.558      860.641
12/21/2013  08:29:00       14.345       57.005      -11.747       13.730       21.385       16.164      188.526      457.313      261.277        0.225        0.045       58.783       14.480        0.061      333.871        3.470      860.635
12/21/2013  08:30:00      -18.605        6.063        4.312       17.600       12.592       11.295      309.772      158.571      127.588        0.050        0.030       19.568        8.673        0.196      334.070        3.801      860.616
12/21/2013  08:31:00      -55.380       67.080      -14.693       11.795       21.114       11.018      139.125      445.813      121.396        0.424        0.035       86.986        8.877        0.010      333.877        3.480      860.599
12/21/2013  08:32:00      -65.748       26.270      -12.473        9.056       26.748       10.235       82.003      715.454      104.758        0.304        0.045       70.801        8.829        0.016      333.733        3.240      860.585
12/21/2013  08:33:00      -61.142      -22.531      -11.539       11.561        7.550        6.885      133.652       56.999       47.409        0.231        0.012       65.161        5.033        0.006      333.658        3.116      860.580
12/21/2013  08:34:00      -28.221       -9.002       -1.372       12.320        9.606        8.906      151.781       92.283       79.319        0.060        0.016       29.622        3.419        0.013      333.920        3.552      860.591
12/21/2013  08:35:00      -64.172       -9.384       -6.469       11.635        5.955        4.431      135.381       35.468       19.631        0.222        0.010       64.854        3.759        0.003      333.956        3.611      860.625
12/21/2013  08:36:00      -55.153       -5.177       -6.901        9.365        9.005        5.525       87.710       81.094       30.527        0.166        0.010       55.396        3.547        0.004      333.637        3.081      860.657
12/21/2013  08:37:00      -62.707      -14.328       -3.679       10.407       10.440        7.199      108.312      108.999       51.824        0.221        0.013       64.323        5.717        0.008      333.768        3.300      860.675
12/21/2013  08:38:00      -53.090      -22.127       -2.040       14.070       14.736        8.526      197.955      217.155       72.695        0.190        0.024       57.517        6.892        0.014      333.825        3.394      860.689
12/21/2013  08:39:00      -31.057      -20.421       -2.542       11.354        4.956        3.488      128.910       24.566       12.163        0.078        0.008       37.169        4.197        0.013      334.118        3.881      860.717
12/21/2013  08:40:00      -21.196      -10.860       -1.337        8.521        3.589        3.182       72.613       12.884       10.126        0.033        0.005       23.816        2.518        0.011      334.384        4.320      860.763
12/21/2013  08:41:00      -49.995      -18.307       -5.135       17.261        5.304        4.946      297.935       28.130       24.461        0.161        0.018       53.241        7.086        0.018      334.219        4.046      860.798
12/21/2013  08:42:00      -62.236      -22.147       -7.980        5.914        8.264        5.204       34.970       68.286       27.086        0.228        0.007       66.059        1.704        0.001      334.057        3.779      860.830
12/21/2013  08:43:00      -66.364      -28.821       -4.722        7.983        8.063        6.390       63.730       65.019       40.833        0.271        0.008       72.352        4.902        0.005      334.029        3.734      860.857
12/21/2013  08:44:00      -73.207      -20.858        1.133       15.518       12.289       10.615      240.817      151.017      112.679        0.315        0.025       76.120        9.743        0.016      333.974        3.641      860.874
12/21/2013  08:45:00      -80.728      -30.582       -5.065       11.685       18.219        7.771      136.540      331.922       60.383        0.400        0.026       86.327        5.689        0.004      334.197        4.011      860.899
12/21/2013  08:46:00      -97.989      -33.995       -8.382       13.715        9.638       10.933      188.093       92.882      119.525        0.561        0.020      103.718        3.747        0.001      334.429        4.397      860.900
12/21/2013  08:47:00      -72.586      -48.813       -4.855       18.754       22.744       13.863      351.711      517.307      192.175        0.437        0.053       87.472       11.572        0.018      334.519        4.546      860.887
12/21/2013  08:48:00     -101.878      -51.713       -8.612       29.442       14.374        9.134      866.853      206.617       83.426        0.714        0.058      114.251       10.709        0.009      334.555        4.606      860.875
12/21/2013  08:49:00      -98.081      -58.712       -0.807       23.288       25.287       13.163      542.324      639.447      173.273        0.721        0.068      114.311       10.614        0.009      334.455        4.439      860.854
12/21/2013  08:50:00      -95.185      -59.540        0.983       29.561       18.720       17.138      873.837      350.448      293.695        0.706        0.076      112.273       17.983        0.026      334.514        4.537      860.848
12/21/2013  08:51:00      -97.864      -64.107       -5.180       13.234       14.676        9.533      175.143      215.381       90.873        0.710        0.024      116.992        6.130        0.003      334.622        4.716      860.863
12/21/2013  08:52:00     -107.146      -36.431       -1.449       23.179       16.192       12.862      537.246      262.180      165.434        0.689        0.048      113.170       11.257        0.010      334.638        4.742      860.859
12/21/2013  08:53:00      -68.797      -24.324        0.090       16.236       13.473       11.485      263.608      181.533      131.910        0.295        0.029       72.970        8.887        0.015      334.693        4.833      860.844
12/21/2013  08:54:00      -48.932       -9.809       -3.391       22.361       13.498        9.020      500.029      182.184       81.364        0.163        0.038       49.905       10.562        0.045      334.736        4.905      860.832
12/21/2013  08:55:00      -49.089       -7.925       -8.053       18.756       10.456        7.573      351.775      109.336       57.351        0.153        0.026       49.724        8.652        0.030      334.670        4.797      860.836
12/21/2013  08:56:00      -63.332      -15.931       -7.622       10.657       13.168        4.960      113.567      173.409       24.600        0.232        0.016       65.305        4.281        0.004      334.797        5.006      860.849
12/21/2013  08:57:00      -54.459      -35.383       -4.646        7.331        5.511        4.358       53.737       30.371       18.989        0.217        0.005       64.944        2.786        0.002      334.947        5.256      860.855
12/21/2013  08:58:00      -32.465      -47.490       -5.762       22.921       10.647        9.378      525.360      113.358       87.944        0.203        0.036       57.526        8.140        0.020      334.875        5.137      860.859
12/21/2013  08:59:00      -31.613      -51.815       -4.548       15.633       15.417       13.084      244.383      237.684      171.179        0.218        0.033       60.698       11.435        0.035      334.939        5.243      860.864
12/21/2013  09:00:00      -23.575      -44.073       -3.586        9.941        9.931        7.519       98.828       98.632       56.531        0.138        0.013       49.982        6.046        0.015      335.021        5.378      860.871
12/21/2013  09:01:00      -29.223      -34.888       -3.691        8.538        5.611        4.074       72.900       31.479       16.594        0.110        0.006       45.510        3.079        0.005      335.040        5.411      860.885
12/21/2013  09:02:00      -29.049       -2.082       -3.403       11.555       13.404        7.410      133.523      179.657       54.908        0.061        0.018       29.123        6.672        0.052      334.942        5.248      860.888
12/21/2013  09:03:00      -33.543      -18.039       -3.165       10.161       12.478        6.984      103.250      155.700       48.772        0.088        0.015       38.086        4.606        0.015      335.012        5.364      860.887
12/21/2013  09:04:00      -51.385      -19.928       -4.224       12.639        9.773        6.110      159.747       95.506       37.334        0.167        0.015       55.114        7.039        0.016      335.016        5.370      860.888
12/21/2013  09:05:00      -72.920      -11.383       -5.711        9.535        7.115        5.407       90.919       50.621       29.236        0.283        0.009       73.804        4.466        0.004      334.981        5.312      860.916
12/21/2013  09:06:00      -91.455      -19.098      -12.114       11.759        9.512        7.993      138.284       90.484       63.880        0.458        0.015       93.428        5.425        0.003      335.039        5.408      860.947
12/21/2013  09:07:00      -88.339      -59.441       -4.698       26.420       16.705       10.151      698.023      279.063      103.042        0.622        0.054      106.475        9.103        0.007      335.183        5.647      860.937
12/21/2013  09:08:00      -38.777      -22.617       11.796       50.498       24.705       22.320     2550.006      610.353      498.174        0.291        0.183       44.891       27.236        0.368      335.292        5.827      860.905
12/21/2013  09:09:00      -74.622      -59.685       -3.772       52.912       34.570       24.984     2799.638     1195.078      624.203        0.688        0.231       95.555       25.710        0.072      335.259        5.774      860.883
12/21/2013  09:10:00      -44.789      -57.478        1.344       37.736       38.116       23.886     1423.978     1452.813      570.537        0.438        0.172       72.868       17.252        0.056      335.277        5.802      860.894
12/21/2013  09:11:00      -75.954      -99.183       -6.504       26.296       34.520       16.692      691.463     1191.603      278.627        0.890        0.108      124.924       16.023        0.016      335.322        5.877      860.928
12/21/2013  09:12:00      -50.932     -121.263       -8.775       32.908       18.672       16.897     1082.958      348.653      285.513        0.955        0.086      131.525       13.633        0.011      335.298        5.839      860.969
12/21/2013  09:13:00      -33.603      -11.609       15.866       32.215       73.763       24.346     1037.830     5440.909      592.744        0.429        0.354       35.552       27.385        0.593      335.376        5.969      860.994
12/21/2013  09:14:00      -14.092       16.519       53.874       40.245       44.690       34.962     1619.631     1997.199     1222.366        0.411        0.242       21.713       21.654        0.995      335.482        6.145      861.004
12/21/2013  09:15:00       42.202      -20.562       58.504       66.250       85.368       67.379     4389.106     7287.624     4539.902        1.092        0.811       46.945       35.696        0.578      335.260        5.776      861.014
12/21/2013  09:16:00      117.482       -0.821       85.131      117.517      108.138       82.395    13810.309    11693.831     6788.920        2.667        1.615      117.485       79.495        0.458      334.731        4.896      861.023
12/21/2013  09:17:00       81.192       -0.166       62.042       90.484      116.506       76.403     8187.371    13573.623     5837.491        1.902        1.380       81.192       84.518        1.084      334.666        4.787      861.064
12/21/2013  09:18:00       49.964      -35.210       39.852       59.430       90.723       54.972     3531.925     8230.717     3021.874        1.005        0.739       61.124       64.807        1.124      334.634        4.736      861.085
12/21/2013  09:19:00      -33.817      -21.485      -12.101       31.218       23.949       19.442      974.582      573.565      377.986        0.184        0.096       40.065        8.962        0.050      334.697        4.840      861.083
12/21/2013  09:20:00      -18.282      -15.353       -5.253       23.560       16.530       12.324      555.089      273.234      151.891        0.079        0.049       23.873        7.767        0.106      334.752        4.933      861.087
12/21/2013  09:21:00       -5.486        4.576       -4.714       12.029        7.614        7.040      144.695       57.968       49.560        0.016        0.013        7.144        6.451        0.816      334.905        5.187      861.104
12/21/2013  09:22:00      -36.862      -35.852       -5.045       27.152       37.251        7.872      737.223     1387.634       61.964        0.243        0.109       51.422        4.957        0.009      334.785        4.986      861.129
12/21/2013  09:23:00      -72.880      -51.505       -1.027       33.006       25.206       16.291     1089.403      635.360      265.407        0.498        0.100       89.243       17.701        0.039      334.813        5.034      861.136
12/21/2013  09:24:00      -72.992      -53.822       -6.035       30.030       32.698       17.873      901.817     1069.150      319.447        0.528        0.115       90.690       12.375        0.019      334.812        5.031      861.141
12/21/2013  09:25:00      -51.753      -27.764        5.982       35.064       21.477       17.383     1229.459      461.262      302.184        0.274        0.100       58.730        5.650        0.009      334.841        5.081      861.166
12/21/2013  09:26:00      -53.687      -39.349      -13.549       16.933       21.129       15.352      286.736      446.432      235.690        0.279        0.048       66.563       13.146        0.039      334.918        5.209      861.199
12/21/2013  09:27:00      -18.325      -40.453       -0.497       12.810       25.986        8.572      164.092      675.293       73.478        0.144        0.046       44.410        8.089        0.033      335.019        5.376      861.226
12/21/2013  09:28:00      -34.454      -14.061        3.279       19.661       27.249       13.114      386.549      742.510      171.985        0.135        0.065       37.213       10.864        0.085      335.077        5.472      861.269
12/21/2013  09:29:00      -47.727      -53.448       -3.159       14.811       16.087       10.233      219.353      258.779      104.725        0.286        0.029       71.656        6.725        0.009      335.067        5.455      861.294
12/21/2013  09:30:00      -56.958      -56.625        1.349       18.749       20.327       13.150      351.529      413.168      172.916        0.369        0.047       80.316       11.287        0.020      335.067        5.455      861.317
12/21/2013  09:31:00      -88.809      -19.904      -11.759       17.100       19.943        8.935      292.403      397.706       79.829        0.460        0.038       91.012        9.067        0.010      335.085        5.488      861.320
12/21/2013  09:32:00      -96.667      -17.637       -7.498       21.869       32.512       15.866      478.266     1057.062      251.718        0.575        0.089       98.262       12.137        0.015      335.102        5.514      861.326
12/21/2013  09:33:00      -47.889      -54.614        2.305       36.333       37.900       26.166     1320.089     1436.380      684.634        0.436        0.172       72.636       24.530        0.114      335.299        5.840      861.331
12/21/2013  09:34:00      -42.394      -52.863        8.390       54.999       35.067       30.159     3024.840     1229.672      909.579        0.491        0.258       67.762       30.552        0.203      335.330        5.891      861.318
12/21/2013  09:35:00      -57.075      -66.682       16.447       49.411       39.171       32.056     2441.459     1534.339     1027.557        0.649        0.250       87.773       32.575        0.138      335.333        5.897      861.278
12/21/2013  09:36:00      -46.166      -80.834        4.286       48.320       36.949       28.603     2334.825     1365.209      818.149        0.660        0.226       93.088       32.642        0.123      335.296        5.834      861.244
12/21/2013  09:37:00      -65.182      -76.723        6.014       51.376       29.932       20.157     2639.532      895.895      406.296        0.706        0.197      100.673       18.286        0.033      335.302        5.843      861.224
12/21/2013  09:38:00      -38.387      -52.843       15.790       44.235       30.109       26.618     1956.762      906.555      708.526        0.404        0.179       65.314       27.483        0.177      335.414        6.030      861.232
12/21/2013  09:39:00      -17.142      -40.116       11.872       41.875       26.044       23.270     1753.486      678.311      541.497        0.251        0.149       43.625       23.140        0.281      335.473        6.130      861.248
12/21/2013  09:40:00      -67.843      -34.508       -2.606       42.637       17.028       16.274     1817.883      289.949      264.851        0.409        0.119       76.115       16.703        0.048      335.459        6.107      861.270
12/21/2013  09:41:00      -65.145      -37.727       -3.095       23.397       25.685       13.609      547.427      659.737      185.208        0.353        0.070       75.281       10.721        0.020      335.442        6.079      861.298
12/21/2013  09:42:00      -67.983      -25.960        4.063       30.150       21.525       15.727      909.032      463.332      247.327        0.347        0.081       72.771       13.535        0.035      335.476        6.135      861.309
12/21/2013  09:43:00      -95.785      -39.763       -2.082       22.711       28.540       16.515      515.806      814.540      272.753        0.618        0.080      103.710       11.459        0.012      335.479        6.140      861.302
12/21/2013  09:44:00     -120.442      -46.011       -0.145       32.293       30.595       18.880     1042.857      936.063      356.441        0.948        0.117      128.931       15.161        0.014      335.559        6.275      861.310
12/21/2013  09:45:00      -95.993      -49.099       -3.510       35.497       28.981       14.448     1260.040      839.881      208.753        0.697        0.115      107.821       10.951        0.010      335.617        6.370      861.323
12/21/2013  09:46:00     -103.052      -53.721       -4.827       26.722       23.222       13.902      714.072      539.247      193.261        0.749        0.072      116.214       10.285        0.008      335.717        6.538      861.325
12/21/2013  09:47:00      -89.728      -50.867        2.153       42.053       27.060       21.797     1768.477      732.232      475.130        0.681        0.149      103.143       20.327        0.039      335.786        6.651      861.328
12/21/2013  09:48:00      -85.614      -24.449       -3.429       36.679       21.375       16.128     1345.320      456.896      260.105        0.500        0.103       89.036       18.898        0.045      335.787        6.653      861.328
12/21/2013  09:49:00      -55.724      -26.110       -5.774       17.669       16.968       14.835      312.187      287.906      220.087        0.232        0.041       61.537        9.637        0.025      335.918        6.871      861.328
12/21/2013  09:50:00      -43.200       20.089      -11.950       17.337       17.990       12.592      300.560      323.627      158.571        0.160        0.039       47.643        7.043        0.022      336.119        7.206      861.324
12/21/2013  09:51:00      -89.150       27.280      -19.276       28.447       25.197       16.772      809.210      634.904      281.306        0.539        0.086       93.231       16.684        0.032      336.084        7.149      861.338
12/21/2013  09:52:00     -103.189       12.108      -20.492       31.483       41.184       22.473      991.169     1696.120      505.028        0.720        0.160      103.897       21.174        0.042      336.105        7.183      861.345
12/21/2013  09:53:00      -28.765        4.727        5.324       33.939       28.317       15.089     1151.885      801.873      227.678        0.153        0.109       29.151       14.177        0.237      336.479        7.809      861.339
12/21/2013  09:54:00        2.678       64.885        6.494       23.659       43.666       29.739      559.743     1906.743      884.387        0.380        0.168       64.940       23.168        0.127      336.584        7.984      861.329
12/21/2013  09:55:00      -42.809       67.464       -3.115       29.204       27.626       20.833      852.867      763.218      434.034        0.422        0.103       79.900       18.473        0.053      336.441        7.744      861.320
12/21/2013  09:56:00      -45.106       12.127       -7.227       20.009       22.770       11.630      400.365      518.479      135.266        0.164        0.053       46.708       11.668        0.062      336.436        7.737      861.302
12/21/2013  09:57:00      -67.553      -36.884      -12.546       32.179       23.054       14.460     1035.482      531.499      209.103        0.393        0.089       76.966        6.082        0.006      336.231        7.393      861.277
12/21/2013  09:58:00     -134.717      -37.292      -12.525       43.997       37.121       22.410     1935.772     1377.985      502.189        1.176        0.191      139.783       23.312        0.028      336.363        7.613      861.279
12/21/2013  09:59:00     -115.656       20.147       -7.821       64.072       51.517       23.898     4105.192     2653.996      571.100        1.059        0.367      117.397       26.661        0.052      336.447        7.753      861.274
12/21/2013  10:00:00     -113.587       -3.342      -18.220       47.673       52.328       25.874     2272.707     2738.241      669.485        0.946        0.284      113.636       25.624        0.051      336.491        7.829      861.267
12/21/2013  10:01:00     -182.037      -11.818      -12.262       55.231       55.778       33.094     3050.428     3111.232     1095.190        2.034        0.363      182.421       30.020        0.027      336.416        7.700      861.248
12/21/2013  10:02:00      -65.136       45.792      -13.437       49.255       64.024       22.577     2426.088     4099.013      509.740        0.678        0.352       79.622       22.336        0.079      336.555        7.934      861.250
12/21/2013  10:03:00      -49.690       18.794      -21.142       19.617       37.691       11.886      384.835     1420.596      141.273        0.261        0.097       53.125        8.774        0.027      336.664        8.120      861.246
12/21/2013  10:04:00      -99.791      -21.652       -3.557       44.056       38.937       35.708     1940.952     1516.067     1275.069        0.759        0.237      102.113       16.586        0.026      336.571        7.964      861.262
12/21/2013  10:05:00      -95.690      -19.056       -5.743       44.481       43.062       25.148     1978.515     1854.361      632.411        0.701        0.223       97.569       25.008        0.066      336.635        8.070      861.281
12/21/2013  10:06:00      -75.181       33.129      -18.200       36.833       44.626       19.345     1356.663     1991.459      374.241        0.540        0.186       82.156       14.737        0.032      336.613        8.034      861.299
12/21/2013  10:07:00      -75.025      114.009       -9.877       52.362       52.947       40.251     2741.825     2803.342     1620.145        1.294        0.358      136.480       35.195        0.067      336.799        8.343      861.310
12/21/2013  10:08:00      -60.951       81.080        2.310       36.405       60.847       31.336     1325.317     3702.300      981.961        0.815        0.300      101.435       33.712        0.110      336.793        8.333      861.293
12/21/2013  10:09:00     -219.156       20.886      -34.385       60.286       45.325       36.534     3634.437     2054.396     1334.754        2.833        0.351      220.149       32.911        0.022      336.577        7.971      861.275
12/21/2013  10:10:00     -120.495       22.749      -13.608       76.015       44.959       33.264     5778.240     2021.279     1106.473        1.206        0.445      122.623       27.569        0.051      336.657        8.106      861.274
12/21/2013  10:11:00     -133.407       37.645      -30.464       73.652       55.430       32.415     5424.570     3072.475     1050.741        1.484        0.477      138.617       41.558        0.090      336.659        8.109      861.306
12/21/2013  10:12:00     -162.894      192.521      -38.477       89.685      118.609       44.725     8043.455    14068.151     2000.284        4.459        1.206      252.188       41.187        0.027      336.694        8.164      861.327
12/21/2013  10:13:00     -172.842      143.184      -31.916       56.699       77.103       35.148     3214.799     5944.801     1235.412        3.089        0.520      224.446       22.082        0.010      336.760        8.276      861.345
12/21/2013  10:14:00     -175.386      140.775      -31.404       67.225       72.851       36.783     4519.221     5307.210     1352.987        3.137        0.559      224.895       28.062        0.016      336.731        8.228      861.353
12/21/2013  10:15:00      -91.802      124.841      -20.183       60.210       58.007       37.532     3625.294     3364.861     1408.637        1.641        0.420      154.961       32.929        0.045      336.818        8.373      861.359
12/21/2013  10:16:00     -115.608      165.316      -32.691       75.807       56.143       40.745     5746.735     3151.995     1660.134        2.616        0.528      201.729       34.983        0.030      336.813        8.364      861.364
12/21/2013  10:17:00     -107.673      192.009      -28.191       59.291       47.819       40.343     3515.428     2286.666     1627.561        2.834        0.371      220.138       31.889        0.021      336.879        8.473      861.369
12/21/2013  10:18:00      -61.543      129.526      -12.473       53.181       62.965       35.892     2828.166     3964.607     1288.222        1.440        0.404      143.403       22.004        0.024      336.913        8.532      861.376
12/21/2013  10:19:00     -101.561      193.580      -23.170       63.353       70.867       46.055     4013.565     5022.183     2121.065        2.974        0.558      218.604       42.157        0.037      336.886        8.485      861.368
12/21/2013  10:20:00      -13.949      188.116      -16.902       45.334       76.274       31.394     2055.133     5817.661      985.612        2.236        0.443      188.633       34.155        0.033      336.993        8.665      861.370
12/21/2013  10:21:00      -32.032      258.938      -23.471       46.791       74.117       37.693     2189.426     5493.355     1420.752        3.886        0.455      260.912       36.379        0.019      336.849        8.423      861.364
12/21/2013  10:22:00      -97.572       55.007      -13.206      106.024       89.203       55.376    11241.029     7957.227     3066.553        1.749        1.113      112.009       52.861        0.223      336.867        8.455      861.352
12/21/2013  10:23:00      -25.209      103.633       -7.776       52.396       58.124       37.247     2745.359     3378.428     1387.303        0.947        0.376      106.655       41.228        0.149      337.101        8.847      861.357
12/21/2013  10:24:00       -2.285      131.295       -5.885       48.697       54.388       38.216     2371.351     2958.039     1460.495        1.203        0.339      131.315       33.015        0.063      337.020        8.714      861.336
12/21/2013  10:25:00      -63.873       63.169       -1.215       51.045       52.926       31.316     2605.609     2801.110      980.681        0.723        0.319       89.833       32.182        0.128      337.156        8.938      861.331
12/21/2013  10:26:00      -25.060       83.308        6.365      111.050       71.059       44.443    12331.995     5049.314     1975.136        1.348        0.968       86.996       25.787        0.088      337.107        8.858      861.297
12/21/2013  10:27:00      -72.252       62.255       -6.640       49.691       72.725       34.366     2469.149     5288.856     1181.023        0.904        0.447       95.374       29.124        0.093      337.071        8.797      861.290
12/21/2013  10:28:00     -103.569      -78.775        2.707      116.097       61.600       37.702    13478.525     3794.525     1421.438        1.781        0.935      130.123       49.624        0.145      337.005        8.685      861.285
12/21/2013  10:29:00       -5.593       20.112       18.510       54.939       39.890       43.876     3018.337     1591.214     1925.096        0.366        0.327       20.876       37.953        3.305      337.191        8.999      861.265
12/21/2013  10:30:00      -50.979      -20.640       10.616       95.302       79.990       44.288     9082.428     6398.386     1961.443        1.029        0.872       54.998       49.342        0.805      336.915        8.536      861.254
12/21/2013  10:31:00      -66.561      162.238      -25.406       77.353      123.244       52.545     5983.516    15189.121     2760.945        2.766        1.197      175.361       56.751        0.105      336.873        8.465      861.262
12/21/2013  10:32:00     -108.392      147.215      -19.484       73.306       89.492       47.749     5373.757     8008.839     2279.990        2.473        0.783      182.814       41.467        0.051      336.775        8.300      861.249
12/21/2013  10:33:00      -28.333      241.672      -28.606       68.929       93.985       43.233     4751.201     8833.167     1869.080        3.774        0.773      243.327       41.702        0.029      336.742        8.246      861.265
12/21/2013  10:34:00       55.359       42.112       33.950      101.192       52.863       33.121    10239.841     2794.520     1096.971        1.006        0.707       69.556       30.198        0.188      336.356        7.601      861.251
12/21/2013  10:35:00       -8.807       98.497       -1.939       54.996       54.718       36.176     3024.526     2994.049     1308.739        0.855        0.366       98.890       32.539        0.108      336.886        8.488      861.277
12/21/2013  10:36:00      -24.770       91.719       -5.708       83.692      129.066       40.077     7004.384    16658.100     1606.131        1.716        1.263       95.005       58.224        0.376      336.895        8.503      861.298
12/21/2013  10:37:00     -135.150      225.711      -38.363      105.303       83.100       48.339    11088.662     6905.648     2336.700        4.550        1.017      263.080       53.130        0.041      336.733        8.232      861.318
12/21/2013  10:38:00      -44.381       37.217        4.413       41.677       65.086       24.645     1736.972     4236.187      607.396        0.498        0.329       57.921       25.396        0.192      336.792        8.333      861.334
12/21/2013  10:39:00      -41.878      -67.400        8.443       55.230       74.453       25.465     3050.404     5543.292      648.445        0.780        0.462       79.351       22.747        0.082      336.927        8.555      861.350
12/21/2013  10:40:00      -47.139       17.178        2.644       65.067       62.717       31.480     4233.729     3933.374      990.967        0.584        0.458       50.171       30.287        0.364      336.918        8.542      861.360
12/21/2013  10:41:00       74.057       58.179        1.785       77.100       73.026       48.224     5944.483     5332.825     2325.516        1.124        0.680       94.176       39.490        0.176      336.709        8.190      861.357
12/21/2013  10:42:00       33.363       22.234       16.671       36.435       70.032       41.467     1327.539     4904.437     1719.471        0.492        0.398       40.093       39.518        0.972      336.345        7.585      861.398
12/21/2013  10:43:00        5.992       12.058       16.952       35.163       70.521       39.590     1236.469     4973.214     1567.340        0.412        0.389       13.465       30.198        5.030      336.352        7.596      861.386
12/21/2013  10:44:00       24.069        1.400       -8.681       38.735       50.487       33.267     1500.394     2548.958     1106.700        0.291        0.258       24.110       31.575        1.715      336.229        7.391      861.409
12/21/2013  10:45:00      -98.605      198.722      -26.438       63.353       66.656       31.982     4013.647     4442.993     1022.831        2.969        0.474      221.841       29.356        0.018      336.588        7.990      861.407
12/21/2013  10:46:00      -33.538      222.016       -8.206       60.950      113.680       48.224     3714.915    12923.084     2325.551        3.472        0.948      224.535       58.633        0.068      336.777        8.303      861.389
12/21/2013  10:47:00      -58.172      204.044      -14.552       56.132      113.057       41.897     3150.780    12781.997     1755.317        3.146        0.884      212.174       48.089        0.051      336.793        8.332      861.381
12/21/2013  10:48:00      -38.049      290.545      -26.631       57.499       82.693       41.518     3306.079     6838.199     1723.776        4.922        0.593      293.026       42.394        0.021      336.773        8.296      861.362
12/21/2013  10:49:00      -75.567      219.826      -34.696       50.182       61.057       38.569     2518.210     3728.002     1487.606        3.148        0.387      232.452       25.373        0.012      336.810        8.358      861.341
12/21/2013  10:50:00      -53.354      168.243      -19.749       75.042      104.516       47.616     5631.309    10923.660     2267.237        2.518        0.941      176.501       53.627        0.092      336.830        8.394      861.309
12/21/2013  10:51:00      -68.011      103.049       -0.507       67.972       89.339       46.393     4620.152     7981.530     2152.323        1.500        0.738      123.470       45.947        0.138      336.794        8.333      861.268
12/21/2013  10:52:00      -54.820       24.251        2.906       47.563       40.277       29.314     2262.231     1622.200      859.329        0.417        0.237       59.944       28.459        0.225      336.965        8.620      861.253
12/21/2013  10:53:00     -106.959       62.825      -14.924       56.100       93.311       38.605     3147.244     8706.856     1490.350        1.447        0.667      124.045       35.110        0.080      336.800        8.345      861.244
12/21/2013  10:54:00      -62.610      146.117      -21.214       70.685       80.344       45.260     4996.332     6455.171     2048.504        1.961        0.675      158.966       19.799        0.016      336.851        8.430      861.229
12/21/2013  10:55:00      -57.142       52.000       -1.552       54.839       51.912       31.472     3007.362     2694.879      990.467        0.633        0.335       77.261       22.846        0.087      336.821        8.380      861.226
12/21/2013  10:56:00       -0.176       71.234        4.340       40.060       46.736       27.071     1604.775     2184.257      732.852        0.481        0.226       71.234       25.087        0.124      336.862        8.450      861.239
12/21/2013  10:57:00      -51.531      196.232      -29.711       69.467      102.813       37.537     4825.632    10570.493     1409.009        2.942        0.840      202.885       45.785        0.051      336.735        8.235      861.262
12/21/2013  10:58:00      -95.141      193.294      -22.421       63.702       80.881       44.430     4057.944     6541.807     1973.981        2.974        0.629      215.440       39.257        0.033      336.722        8.210      861.279
12/21/2013  10:59:00       13.365      105.724      -15.025       35.943       64.190       24.362     1291.895     4120.353      593.496        0.879        0.300      106.566       29.869        0.079      336.742        8.248      861.278
12/21/2013  11:00:00       30.476       80.292      -11.522       45.878       46.193       23.659     2104.778     2133.779      559.739        0.615        0.240       85.881       29.049        0.114      336.817        8.374      861.281
12/21/2013  11:01:00      -17.660      114.907       -6.091       70.934       57.165       38.046     5031.619     3267.822     1447.499        1.165        0.487      116.256       34.391        0.088      336.766        8.289      861.276
12/21/2013  11:02:00      -90.625      155.082      -22.178       77.060       80.799       40.036     5938.199     6528.545     1602.869        2.341        0.703      179.620       37.979        0.045      336.739        8.241      861.283
12/21/2013  11:03:00      -79.947      173.697      -30.391       60.189       44.242       29.061     3622.717     1957.382      844.530        2.195        0.321      191.212       24.667        0.017      336.733        8.232      861.289
12/21/2013  11:04:00      -27.659      180.395      -28.323       45.226       65.235       27.086     2045.388     4255.575      733.668        2.057        0.352      182.504       22.791        0.016      336.793        8.332      861.272
12/21/2013  11:05:00      -18.192      190.693       -9.192       60.094       86.558       50.245     3611.343     7492.352     2524.568        2.520        0.681      191.559       47.817        0.062      336.718        8.207      861.263
12/21/2013  11:06:00       34.496      259.305      -27.596       78.537      110.286       55.815     6168.079    12162.900     3115.263        4.531        1.072      261.589       57.075        0.048      336.744        8.249      861.255
12/21/2013  11:07:00        4.846      209.365      -31.632       58.922       99.785       45.128     3471.745     9957.117     2036.498        3.016        0.773      209.421       45.320        0.047      336.864        8.448      861.246
12/21/2013  11:08:00      -94.446      151.286      -30.254       76.460       74.439       40.645     5846.168     5541.132     1651.992        2.288        0.652      178.346       49.141        0.076      336.887        8.488      861.232
12/21/2013  11:09:00      -16.162       97.246       -3.184       88.525       68.467       39.672     7836.613     4687.663     1573.836        1.191        0.705       98.580       33.838        0.118      337.006        8.688      861.222
12/21/2013  11:10:00        3.238      127.467       -9.641       50.416       80.522       39.837     2541.764     6483.833     1587.025        1.348        0.531      127.509       46.363        0.132      337.032        8.730      861.220
12/21/2013  11:11:00     -101.318      102.400      -20.167       62.793       85.966       30.608     3943.017     7390.221      936.824        1.671        0.614      144.053       26.479        0.034      337.025        8.719      861.213
12/21/2013  11:12:00       -6.061      224.205      -14.351       86.439       89.970       61.739     7471.783     8094.668     3811.681        3.494        0.969      224.287       49.602        0.049      337.039        8.741      861.206
12/21/2013  11:13:00       48.974      153.784       -9.953       53.968       83.664       54.692     2912.582     6999.595     2991.167        1.952        0.645      161.393       51.131        0.100      337.072        8.797      861.169
12/21/2013  11:14:00       38.332       49.824       32.945       70.060       44.728       41.597     4908.393     2000.583     1730.347        0.684        0.432       62.863       29.669        0.223      336.945        8.587      861.120
12/21/2013  11:15:00       81.118       49.122       21.004       62.088       48.978       33.788     3854.953     2398.810     1141.644        0.841        0.370       94.832       27.576        0.085      336.756        8.272      861.114
12/21/2013  11:16:00       42.103       18.586       11.576       51.245       35.869       27.743     2626.056     1286.609      769.697        0.347        0.234       46.022       11.888        0.067      336.748        8.259      861.090
12/21/2013  11:17:00      -26.765       30.834      -35.060       42.816       66.161       37.733     1833.173     4377.326     1423.807        0.526        0.382       40.830       17.054        0.174      336.980        8.646      861.063
12/21/2013  11:18:00       -4.528      -42.875        0.691       31.298       27.355       18.367      979.572      748.302      337.351        0.196        0.103       43.113       10.538        0.060      337.015        8.704      861.030
12/21/2013  11:19:00      -42.055       53.411      -17.396       46.604       44.576       34.979     2171.958     1987.039     1223.537        0.515        0.269       67.980       31.119        0.210      337.042        8.748      861.016
12/21/2013  11:20:00        0.326      209.600       -9.156       53.001       94.487       50.748     2809.134     8927.844     2575.313        2.916        0.716      209.601       45.700        0.048      336.960        8.608      861.025
12/21/2013  11:21:00     -122.900      135.637      -20.804       54.809       70.045       38.340     3003.985     4906.360     1469.979        2.166        0.469      183.035       32.449        0.031      336.988        8.655      861.009
12/21/2013  11:22:00      -60.929      140.056      -17.706       56.326       62.718       33.919     3172.606     3933.543     1150.483        1.595        0.413      152.735       36.911        0.058      337.036        8.737      861.007
12/21/2013  11:23:00     -104.319       54.859      -15.845       53.936       59.137       33.648     2909.121     3497.215     1132.195        1.084        0.377      117.864       32.698        0.077      337.065        8.788      861.008
12/21/2013  11:24:00      -54.854       41.143      -14.800       32.649       73.063       22.850     1065.989     5338.170      522.144        0.592        0.346       68.569       21.381        0.097      337.162        8.950      861.032
12/21/2013  11:25:00      -82.810       96.965      -19.567       46.129       57.824       37.651     2127.900     3343.567     1417.562        1.176        0.344      127.514       32.098        0.063      337.176        8.973      861.054
12/21/2013  11:26:00      -58.593        2.343      -14.534       73.860       57.653       40.404     5455.355     3323.909     1632.481        0.703        0.521       58.640       31.250        0.284      337.270        9.132      861.040
12/21/2013  11:27:00     -133.759      124.245      -18.837       79.143       73.098       40.670     6263.639     5343.376     1654.011        2.347        0.663      182.560       45.293        0.062      337.138        8.908      861.050
12/21/2013  11:28:00     -108.127      137.848      -10.265       65.006       63.113       51.534     4225.817     3983.292     2655.749        2.083        0.543      175.195       48.660        0.077      337.184        8.986      861.071
12/21/2013  11:29:00     -151.518      110.844      -22.353       61.289       91.675       43.860     3756.343     8404.267     1923.682        2.491        0.704      187.734       26.877        0.020      337.116        8.871      861.086
12/21/2013  11:30:00     -203.144      135.791      -35.407      114.203      127.443       61.216    13042.376    16241.651     3747.441        4.699        1.652      244.350       69.387        0.081      336.963        8.614      861.096
12/21/2013  11:31:00     -151.179       87.501      -24.806      117.982       82.693       57.323    13919.787     6838.058     3285.929        2.758        1.202      174.676       70.163        0.161      336.926        8.552      861.097
12/21/2013  11:32:00     -136.895       32.191       -6.585       98.300       70.186       43.252     9662.962     4926.034     1870.755        1.814        0.823      140.629       44.791        0.101      336.932        8.563      861.087
12/21/2013  11:33:00      -74.274        2.957        2.017       82.115       45.159       32.812     6742.833     2039.314     1076.632        0.769        0.493       74.333       37.801        0.259      336.936        8.571      861.057
12/21/2013  11:34:00     -200.148       62.758      -22.621       98.340       89.772       56.624     9670.737     8059.043     3206.304        3.272        1.047      209.757       45.980        0.048      336.909        8.526      861.069
12/21/2013  11:35:00     -114.144      136.594      -25.356       66.894      108.812       40.181     4474.854    11840.151     1614.510        2.513        0.896      178.008       34.708        0.038      336.936        8.570      861.074
12/21/2013  11:36:00     -128.076       88.845      -32.534       58.168       64.338       33.553     3383.481     4139.409     1125.826        1.700        0.432      155.875       29.967        0.037      337.000        8.677      861.073
12/21/2013  11:37:00     -123.407        5.599       -5.509       90.545       48.212       51.957     8198.318     2324.377     2699.571        1.425        0.661      123.533       52.802        0.183      337.013        8.700      861.052
12/21/2013  11:38:00      -66.612      124.359      -22.065       62.188      105.741       42.322     3867.299    11181.092     1791.133        1.861        0.842      141.076       51.103        0.131      336.915        8.534      861.062
12/21/2013  11:39:00      -65.094       41.061       -2.714       64.719       77.160       39.733     4188.608     5953.612     1578.699        0.882        0.586       76.962       46.225        0.361      336.954        8.602      861.051
12/21/2013  11:40:00      -83.811      109.097      -19.450       63.495       70.464       43.108     4031.611     4965.235     1858.291        1.508        0.543      137.574       42.787        0.097      337.015        8.703      861.059
12/21/2013  11:41:00      -99.777       95.168      -26.660       97.438       45.647       36.358     9494.101     2083.609     1321.900        1.631        0.645      137.886       42.061        0.093      337.066        8.787      861.064
12/21/2013  11:42:00      -87.202      199.617      -23.947       80.112       97.319       45.225     6417.883     9471.064     2045.331        3.298        0.897      217.833       50.326        0.053      337.100        8.843      861.050
12/21/2013  11:43:00     -152.090       20.354      -17.673       73.372       59.926       39.044     5383.451     3591.075     1524.466        1.718        0.525      153.446       30.516        0.040      337.107        8.856      861.047
12/21/2013  11:44:00     -198.387      -19.162      -37.519      112.910       86.976       43.623    12748.709     7564.777     1902.955        3.167        1.111      199.310       37.461        0.035      337.092        8.830      861.057
12/21/2013  11:45:00     -290.538     -128.539      -47.881      118.218       76.815       56.527    13975.386     5900.564     3195.267        6.315        1.154      317.702       54.553        0.029      336.907        8.520      861.032
12/21/2013  11:46:00      -83.133       61.326        3.927      105.275      135.146       51.250    11082.827    18264.337     2626.558        2.133        1.599      103.305       53.003        0.263      337.036        8.738      861.038
12/21/2013  11:47:00      -89.248      139.006      -24.871       59.586       63.586       39.150     3550.509     4043.137     1532.729        1.851        0.456      165.191       34.995        0.045      337.058        8.773      861.025
12/21/2013  11:48:00     -159.936      137.512      -37.530       74.871       84.375       43.132     5605.616     7119.132     1860.359        3.024        0.729      210.925       43.594        0.043      337.013        8.697      861.012
12/21/2013  11:49:00     -124.942      216.547      -43.633       66.928       62.900       34.692     4479.363     3956.448     1203.521        3.702        0.482      250.007       33.327        0.018      337.013        8.696      861.010
12/21/2013  11:50:00      -11.457      171.739       -9.407       97.396       66.734       52.322     9485.950     4453.387     2737.624        2.319        0.834      172.120       46.512        0.073      337.128        8.890      860.990
12/21/2013  11:51:00      -42.234       43.900       -0.346       56.235       57.366       35.204     3162.398     3290.901     1239.289        0.570        0.385       60.918       35.378        0.337      337.323        9.219      860.969
12/21/2013  11:52:00        4.781      108.445       -7.591       68.758       80.280       46.945     4727.640     6444.803     2203.803        1.261        0.669      108.550       48.304        0.198      337.355        9.272      860.956
12/21/2013  11:53:00       15.218      205.271      -13.688       58.222      105.959       50.610     3389.814    11227.234     2561.335        2.986        0.859      205.834       60.340        0.086      337.225        9.054      860.941
12/21/2013  11:54:00      -19.840      265.983      -15.302       60.146      109.798       56.945     3617.498    12055.688     3242.783        4.514        0.946      266.722       61.205        0.053      337.124        8.884      860.950
12/21/2013  11:55:00      -64.379      149.261       -4.566       43.765       57.949       39.458     1915.395     3358.131     1556.936        1.664        0.342      162.553       30.690        0.036      337.324        9.221      860.967
12/21/2013  11:56:00       -9.788      132.331       -6.133       46.373       73.977       45.297     2150.476     5472.582     2051.822        1.366        0.484      132.693       41.067        0.096      337.294        9.170      860.972
12/21/2013  11:57:00      -79.103      110.506      -10.358       48.503       57.547       35.332     2352.507     3311.677     1248.315        1.274        0.346      135.901       20.685        0.023      337.334        9.237      860.974
12/21/2013  11:58:00     -163.513      129.640      -34.337       72.750       84.920       40.951     5292.579     7211.463     1677.021        2.945        0.709      208.670       41.741        0.040      337.254        9.100      860.990
12/21/2013  11:59:00     -103.928       99.842      -16.465       56.004       96.569       41.718     3136.409     9325.567     1740.432        1.762        0.710      144.116       35.099        0.059      337.231        9.063      860.976
12/21/2013  12:00:00     -168.340      -23.435       -8.962       73.767      105.419       45.237     5441.583    11113.126     2046.346        2.378        0.930      169.963       43.410        0.065      337.135        8.901      860.951
12/21/2013  12:01:00     -183.647      -77.624      -13.077       86.168       77.462       52.252     7424.870     6000.330     2730.256        2.804        0.808      199.378       41.348        0.043      337.029        8.724      860.942
12/21/2013  12:02:00     -109.404       30.529      -24.461       60.580       62.061       25.335     3669.976     3851.582      641.860        1.083        0.408      113.584       27.768        0.060      337.077        8.807      860.955
12/21/2013  12:03:00      -28.766      107.431       -2.412       31.513      105.062       35.615      993.074    11038.034     1268.438        1.283        0.665      111.216       43.958        0.156      337.247        9.093      860.956
12/21/2013  12:04:00     -107.809       86.919      -18.013       59.219       61.065       26.182     3506.947     3728.982      685.513        1.371        0.396      138.484       19.448        0.020      337.190        8.996      860.973
12/21/2013  12:05:00     -114.637      200.180      -25.238       53.149      103.365       34.704     2824.784    10684.381     1204.387        3.428        0.736      230.681       33.078        0.021      337.119        8.875      860.989
12/21/2013  12:06:00     -140.656      185.499      -32.071       70.991       89.164       44.395     5039.654     7950.175     1970.947        3.509        0.748      232.796       39.028        0.028      337.101        8.846      860.989
12/21/2013  12:07:00     -185.349      198.922      -48.467       83.931       67.312       42.851     7044.431     4530.916     1836.247        4.484        0.671      271.890       42.046        0.024      337.150        8.927      860.975
12/21/2013  12:08:00     -164.977       91.971      -28.572       74.731       86.919       38.180     5584.713     7554.998     1457.732        2.554        0.730      188.881       29.296        0.024      337.175        8.969      860.980
12/21/2013  12:09:00     -104.747      192.916      -31.440       72.775       87.038       39.609     5296.258     7575.638     1568.876        3.181        0.722      219.518       41.900        0.036      337.221        9.046      860.971
12/21/2013  12:10:00      -70.030      178.227      -23.233       53.677       83.301       40.748     2881.197     6939.121     1660.424        2.434        0.574      191.491       40.003        0.044      337.316        9.206      860.962
12/21/2013  12:11:00      -72.168      228.044      -28.454       50.365       86.795       37.608     2536.665     7533.380     1414.364        3.475        0.574      239.191       41.918        0.031      337.235        9.070      860.959
12/21/2013  12:12:00      -39.880      228.452      -20.150       43.170      100.171       27.890     1863.616    10034.198      777.880        3.343        0.634      231.907       29.582        0.016      337.134        8.899      860.966
12/21/2013  12:13:00      -26.967      161.386      -13.140       52.486       68.577       32.413     2754.743     4702.842     1050.628        1.773        0.425      163.623       30.368        0.034      337.233        9.066      860.937
12/21/2013  12:14:00       32.593      127.176      -12.641       32.718       57.378       34.930     1070.437     3292.284     1220.094        1.149        0.279      131.286       37.099        0.080      337.272        9.134      860.907
12/21/2013  12:15:00       83.685       90.141       -3.110       80.749       75.027       39.792     6520.468     5629.029     1583.402        1.443        0.687      122.998       44.612        0.132      337.456        9.442      860.891
12/21/2013  12:16:00       61.320      183.205      -17.821       93.455      123.322       65.984     8733.823    15208.232     4353.915        3.296        1.415      193.194       72.518        0.141      337.358        9.276      860.879
12/21/2013  12:17:00      -33.046      273.080      -42.762       75.115       63.780       42.903     5642.196     4067.912     1840.666        4.452        0.578      275.073       25.091        0.008      337.301        9.179      860.875
12/21/2013  12:18:00     -174.854      258.820      -51.641       99.820       93.191       52.469     9964.033     8684.551     2753.006        6.081        1.070      312.348       56.872        0.033      337.237        9.072      860.881
12/21/2013  12:19:00     -170.169      180.672      -44.559       55.052       77.496       37.454     3030.701     6005.602     1402.787        3.701        0.522      248.193       41.367        0.028      337.214        9.034      860.872
12/21/2013  12:20:00     -171.579      146.002      -40.960       67.983       80.840       45.640     4621.726     6535.039     2082.996        3.283        0.662      225.290       38.424        0.029      337.254        9.102      860.846
12/21/2013  12:21:00      -97.265       91.587       -5.210       66.052       50.551       36.120     4362.924     2555.408     1304.663        1.305        0.411      133.599       29.591        0.049      337.418        9.378      860.841
12/21/2013  12:22:00      -89.306      105.055      -20.499       46.224       56.518       31.922     2136.695     3194.294     1019.021        1.289        0.318      137.885       25.830        0.035      337.503        9.519      860.821
12/21/2013  12:23:00     -141.523      128.996      -28.130       77.298       53.021       37.401     5974.940     2811.256     1398.864        2.382        0.509      191.491       36.045        0.035      337.404        9.353      860.799
12/21/2013  12:24:00     -145.911       69.605      -25.246       82.129      117.574       47.000     6745.186    13823.639     2208.987        2.477        1.139      161.663       50.276        0.097      337.390        9.329      860.794
12/21/2013  12:25:00     -109.423       93.032      -21.859       45.890       51.395       31.447     2105.847     2641.398      988.943        1.342        0.287      143.626       22.863        0.025      337.410        9.365      860.796
12/21/2013  12:26:00     -122.822      157.447      -23.227       89.785       83.237       49.650     8061.396     6928.318     2465.107        2.893        0.873      199.687       43.376        0.047      337.288        9.159      860.790
12/21/2013  12:27:00     -164.470       57.251      -10.264      100.529       42.663       48.369    10106.037     1820.149     2339.515        2.235        0.713      174.149       55.019        0.100      337.380        9.313      860.774
12/21/2013  12:28:00     -109.745       37.118      -17.778       72.876      107.436       42.905     5310.907    11542.439     1840.878        1.621        0.935      115.852       49.527        0.183      337.389        9.330      860.768
12/21/2013  12:29:00     -121.326      -21.769       -4.700       77.705       48.157       29.818     6038.138     2319.125      889.133        1.223        0.462      123.263       30.363        0.061      337.359        9.277      860.754
12/21/2013  12:30:00       -0.207       28.638        9.858       29.696       39.360       24.379      881.860     1549.182      594.318        0.197        0.151       28.638       21.252        0.551      337.707        9.863      860.759
12/21/2013  12:31:00        6.164      176.467      -14.959       89.400      106.710       53.908     7992.387    11387.026     2906.052        2.684        1.114      176.575       63.923        0.131      337.350        9.262      860.765
12/21/2013  12:32:00      -51.316      195.233      -17.095       62.445       99.687       44.581     3899.357     9937.481     1987.424        2.843        0.791      201.865       42.398        0.044      337.558        9.612      860.770
12/21/2013  12:33:00      -17.868      144.577       -8.322       75.313      107.207       44.454     5672.027    11493.323     1976.144        2.021        0.957      145.677       54.148        0.138      337.508        9.529      860.788
12/21/2013  12:34:00       59.645      164.543      -28.498       63.254      101.079       44.947     4001.065    10216.949     2020.231        2.384        0.812      175.020       44.304        0.064      337.294        9.169      860.785
12/21/2013  12:35:00      -53.976      173.472      -29.691       39.549       52.687       22.288     1564.114     2775.899      496.760        1.936        0.242      181.676       14.488        0.006      337.271        9.133      860.776
12/21/2013  12:36:00      -94.970       98.517      -19.209       64.231       53.375       34.759     4125.648     2848.887     1208.160        1.364        0.409      136.839       31.529        0.053      337.554        9.606      860.758
12/21/2013  12:37:00      -39.266       92.536      -11.616       39.060       64.135       30.914     1525.648     4113.332      955.653        0.842        0.330      100.522       33.814        0.113      337.580        9.651      860.747
12/21/2013  12:38:00      -34.150      203.658      -25.557       38.393       55.523       24.805     1474.057     3082.825      615.271        2.423        0.259      206.501       17.279        0.007      337.216        9.037      860.762
12/21/2013  12:39:00      -53.324      137.542      -10.098       51.128       53.270       32.872     2614.026     2837.709     1080.583        1.420        0.327      147.516       29.564        0.040      337.418        9.377      860.740
12/21/2013  12:40:00      -56.202       55.051       -8.194       53.561       39.651       24.112     2868.785     1572.183      581.380        0.564        0.251       78.672       22.905        0.085      337.685        9.825      860.732
12/21/2013  12:41:00     -115.878      122.442      -34.341       43.153       51.626       30.294     1862.223     2665.267      917.725        1.752        0.272      168.582       28.801        0.029      337.435        9.405      860.724
12/21/2013  12:42:00      -68.165      106.019      -15.932       38.258       48.302       29.159     1463.668     2333.095      850.256        1.039        0.232      126.041       23.156        0.034      337.481        9.484      860.699
12/21/2013  12:43:00      -74.700      190.389      -25.220       54.999       55.865       29.863     3024.908     3120.941      891.777        2.475        0.352      204.519       22.401        0.012      337.481        9.483      860.692
12/21/2013  12:44:00      -66.305       81.968       -5.767       88.836       55.990       42.813     7891.888     3134.903     1832.988        1.200        0.643      105.429       47.499        0.203      337.557        9.611      860.675
12/21/2013  12:45:00     -101.051      142.131      -21.805       68.915       93.481       33.519     4749.314     8738.755     1123.495        2.275        0.731      174.392       32.818        0.035      337.474        9.472      860.670
12/21/2013  12:46:00     -100.592      150.893      -23.480       63.467       60.318       42.247     4028.018     3638.231     1784.778        2.144        0.473      181.349       36.670        0.041      337.572        9.635      860.680
12/21/2013  12:47:00      -70.776      281.969      -44.805      105.725      126.549       38.005    11177.805    16014.769     1444.348        5.758        1.432      290.715       42.731        0.022      337.388        9.325      860.697
12/21/2013  12:48:00      -99.991      275.685      -30.451       60.897       78.792       40.905     3708.459     6208.153     1673.207        4.926        0.579      293.259       36.746        0.016      337.361        9.281      860.696
12/21/2013  12:49:00        2.830      159.953       -4.623       45.547      103.110       48.608     2074.542    10631.677     2362.710        2.034        0.753      159.979       57.614        0.130      337.480        9.481      860.704
12/21/2013  12:50:00       23.385       87.205        7.324       62.395       57.615       41.497     3893.123     3319.501     1722.012        0.857        0.447       90.286       32.760        0.132      337.695        9.843      860.711
12/21/2013  12:51:00        6.522      124.953      -16.394       72.154       65.025       39.577     5206.134     4228.260     1566.352        1.346        0.550      125.123       36.502        0.085      337.486        9.492      860.714
12/21/2013  12:52:00       44.919      158.509      -18.254       55.785       80.553       49.607     3112.022     6488.834     2460.879        1.977        0.603      164.751       48.453        0.086      337.538        9.577      860.721
12/21/2013  12:53:00       52.010      226.943      -32.209       64.863      125.404       54.482     4207.170    15726.264     2968.270        3.907        1.145      232.827       66.335        0.081      337.430        9.395      860.706
12/21/2013  12:54:00       54.774      202.753      -21.980       65.023      111.041       53.964     4228.053    12330.063     2912.136        3.203        0.974      210.021       66.469        0.100      337.497        9.507      860.709
12/21/2013  12:55:00       53.344      155.075      -15.929       56.112       85.120       55.579     3148.582     7245.429     3089.078        2.031        0.674      163.994       53.087        0.105      337.496        9.508      860.712
12/21/2013  12:56:00      -60.939      240.903      -31.903       96.362      103.431       37.497     9285.586    10698.012     1406.025        4.207        1.069      248.491       40.021        0.026      337.420        9.380      860.715
12/21/2013  12:57:00      -10.718      278.509      -45.710       70.264       45.314       32.363     4936.960     2053.338     1047.395        4.390        0.402      278.715       27.514        0.010      337.222        9.045      860.705
12/21/2013  12:58:00       -2.865      222.539      -26.050       45.014       63.057       34.164     2026.304     3976.171     1167.189        2.869        0.358      222.558       40.901        0.034      337.269        9.125      860.667
12/21/2013  12:59:00       35.338       56.128       -2.354       44.316       68.501       31.160     1963.934     4692.443      970.963        0.601        0.381       66.326       29.020        0.191      337.503        9.520      860.643
12/21/2013  13:00:00       78.259      123.995      -14.416       38.780       51.287       41.863     1503.926     2630.384     1752.539        1.380        0.294      146.626       34.757        0.056      337.311        9.201      860.638
12/21/2013  13:01:00       97.590       58.859        7.489       40.372       40.391       27.912     1629.923     1631.413      779.082        0.854        0.202      113.966        9.006        0.006      337.250        9.097      860.608
12/21/2013  13:02:00       85.391       47.431       14.224       53.036       39.405       32.008     2812.787     1552.729     1024.509        0.757        0.270       97.680       21.494        0.048      337.463        9.453      860.597
12/21/2013  13:03:00       96.615       71.781       10.584       70.056       45.165       41.427     4907.790     2039.842     1716.233        1.163        0.433      120.362       21.362        0.031      337.293        9.170      860.618
12/21/2013  13:04:00       47.368       92.590      -11.874       31.089       59.573       32.269      966.545     3548.946     1041.318        0.826        0.278      104.003       34.959        0.113      337.430        9.399      860.626
12/21/2013  13:05:00      106.876       83.491        0.469       36.002       30.693       32.530     1296.135      942.039     1058.188        1.084        0.165      135.622       18.171        0.018      337.379        9.314      860.640
12/21/2013  13:06:00       30.372       79.837       -0.561       36.780       31.180       28.591     1352.779      972.210      817.431        0.522        0.157       85.419       23.932        0.078      337.459        9.447      860.650
12/21/2013  13:07:00       43.565       18.348       21.791       37.759       22.909       25.011     1425.751      524.807      625.531        0.264        0.129       47.271       16.103        0.116      337.527        9.561      860.651
12/21/2013  13:08:00      -35.525       38.078        4.917       40.042       29.046       28.545     1603.345      843.698      814.835        0.300        0.163       52.077       10.452        0.040      337.666        9.794      860.674
12/21/2013  13:09:00      -49.421      178.750      -15.826       72.558       90.403       45.058     5264.627     8172.657     2030.200        2.505        0.773      185.456       41.717        0.051      337.658        9.779      860.690
12/21/2013  13:10:00      -42.531      208.851      -24.497       38.479       57.911       30.973     1480.621     3353.660      959.352        2.591        0.290      213.137       27.218        0.016      337.669        9.796      860.690
12/21/2013  13:11:00      -85.327      119.910      -25.218       61.850       74.535       34.484     3825.426     5555.393     1189.125        1.643        0.528      147.170       34.406        0.055      337.634        9.738      860.693
12/21/2013  13:12:00      -31.323      222.604      -24.896       52.658       64.443       29.704     2772.836     4152.948      882.306        2.948        0.390      224.797       24.171        0.012      337.408        9.359      860.682
12/21/2013  13:13:00       17.079      224.205      -34.534       36.158       60.772       35.467     1307.367     3693.240     1257.884        2.900        0.313      224.855       33.754        0.023      337.339        9.244      860.641
12/21/2013  13:14:00      -73.543      195.634      -22.740       71.404      113.447       43.493     5098.488    12870.207     1891.668        3.203        0.993      209.000       43.906        0.044      337.527        9.559      860.622
12/21/2013  13:15:00      -72.585      112.951      -11.406       65.591       60.047       37.967     4302.161     3605.675     1441.490        1.375        0.467      134.263       38.446        0.082      337.708        9.865      860.597
12/21/2013  13:16:00       60.400      132.105       -2.936       62.204       76.347       50.177     3869.398     5828.850     2517.687        1.666        0.611      145.257       52.825        0.132      337.512        9.535      860.579
12/21/2013  13:17:00      -32.668      175.848      -27.196       76.802       73.439       33.895     5898.535     5393.223     1148.850        2.258        0.622      178.857       27.850        0.024      337.407        9.359      860.575
12/21/2013  13:18:00      -77.428       72.152      -22.827       45.148       39.196       21.924     2038.316     1536.351      480.657        0.789        0.203      105.835       23.039        0.047      337.598        9.680      860.565
12/21/2013  13:19:00      -63.805      133.465      -25.275       64.007       54.673       33.857     4096.911     2989.167     1146.312        1.538        0.412      147.932       25.167        0.029      337.538        9.579      860.558
12/21/2013  13:20:00        5.226      165.678      -18.142       28.385       37.904       20.611      805.689     1436.680      424.811        1.524        0.133      165.760       20.069        0.015      337.524        9.555      860.552
12/21/2013  13:21:00       -4.943      123.771      -22.047       52.970       50.896       25.612     2805.787     2590.364      655.991        1.094        0.303      123.870       27.685        0.050      337.601        9.683      860.536
12/21/2013  13:22:00      -59.433      261.042      -31.107       66.051       87.785       41.269     4362.781     7706.201     1703.099        4.321        0.689      267.722       35.221        0.017      337.585        9.655      860.546
12/21/2013  13:23:00     -123.026       89.467       -6.902       79.786       63.824       41.405     6365.877     4073.537     1714.358        1.767        0.608      152.118       25.081        0.027      337.743        9.923      860.564
12/21/2013  13:24:00     -124.726      139.721      -20.210       79.457       91.870       51.401     6313.428     8440.062     2642.113        2.644        0.870      187.293       49.451        0.070      337.558        9.611      860.546
12/21/2013  13:25:00     -102.926       60.719      -20.045       64.947       52.766       33.520     4218.158     2784.270     1123.614        1.140        0.406      119.501       27.050        0.051      337.838       10.082      860.542
12/21/2013  13:26:00      -77.848       47.789       -8.760       49.893       72.471       34.765     2489.280     5252.113     1208.605        0.868        0.447       91.346       32.232        0.125      337.892       10.172      860.560
12/21/2013  13:27:00      -41.952        9.927      -11.405       71.925       28.740       31.290     5173.229      825.971      979.036        0.448        0.349       43.111       30.893        0.514      337.649        9.766      860.575
12/21/2013  13:28:00       25.625       74.055       40.142       52.110       40.209       32.702     2715.429     1616.758     1069.424        0.658        0.270       78.364       19.099        0.059      337.699        9.849      860.582
12/21/2013  13:29:00     -126.754       18.609      -24.437       47.166       50.671       28.235     2224.587     2567.529      797.239        1.130        0.279      128.113       20.832        0.026      337.572        9.636      860.608
12/21/2013  13:30:00      -10.552       50.044        7.819       35.381       45.532       27.138     1251.799     2073.128      736.498        0.337        0.203       51.145       21.743        0.181      337.860       10.118      860.639
12/21/2013  13:31:00        0.742      213.498      -23.020       71.776       91.379       39.911     5151.811     8350.048     1592.921        3.060        0.755      213.500       45.694        0.046      337.656        9.775      860.668
12/21/2013  13:32:00      -28.379      311.153      -32.632       59.960       72.444       34.713     3595.197     5248.165     1204.966        5.437        0.502      312.444       31.407        0.010      337.561        9.614      860.699
12/21/2013  13:33:00       -4.407      241.278      -12.186       58.547      103.372       47.594     3427.726    10685.679     2265.200        3.738        0.819      241.319       55.033        0.052      337.591        9.666      860.742
12/21/2013  13:34:00       -5.325      130.683      -12.216       69.578       85.538       40.421     4841.036     7316.812     1633.872        1.552        0.690      130.792       39.928        0.093      337.575        9.640      860.750
12/21/2013  13:35:00       14.451       68.384        6.960       63.765       49.260       35.289     4065.973     2426.580     1245.289        0.633        0.387       69.894       33.889        0.235      337.749        9.932      860.751
12/21/2013  13:36:00       82.445      106.521       -3.666       61.184       53.528       42.105     3743.427     2865.250     1772.837        1.327        0.419      134.699       34.623        0.066      337.567        9.628      860.748
12/21/2013  13:37:00       58.434       98.384      -18.143       53.763       97.929       48.816     2890.468     9590.012     2382.968        1.414        0.743      114.429       45.095        0.155      337.446        9.423      860.745
12/21/2013  13:38:00       29.976       17.718        3.983       42.818       43.796       20.167     1833.416     1918.108      406.688        0.269        0.208       34.821       15.863        0.208      337.534        9.573      860.705
12/21/2013  13:39:00      -14.323      127.614      -17.785       38.711       56.877       21.544     1498.563     3235.013      464.131        1.100        0.260      128.415       24.262        0.036      337.605        9.691      860.725
12/21/2013  13:40:00       25.660       48.422       12.058       49.311       49.130       32.657     2431.531     2413.733     1066.493        0.453        0.296       54.801       30.822        0.316      337.903       10.191      860.733
12/21/2013  13:41:00       25.011      137.776      -22.472       38.046       78.262       26.289     1447.468     6124.958      691.112        1.419        0.413      140.028       37.768        0.073      337.780        9.984      860.721
12/21/2013  13:42:00      -40.424      253.418      -16.971       58.872       86.248       41.886     3465.913     7438.661     1754.438        3.940        0.633      256.622       39.060        0.023      337.644        9.754      860.702
12/21/2013  13:43:00       -2.798      135.876      -13.170       42.038       93.186       39.247     1767.191     8683.684     1540.312        1.532        0.600      135.905       49.145        0.131      337.697        9.846      860.706
12/21/2013  13:44:00       28.973       47.052       -3.973       45.973       44.874       31.935     2113.539     2013.672     1019.839        0.411        0.257       55.257       25.198        0.208      337.678        9.813      860.706
12/21/2013  13:45:00      -56.237       75.323       -7.370       29.705       45.713       28.959      882.371     2089.723      838.649        0.635        0.191       94.001       25.448        0.073      337.885       10.161      860.703
12/21/2013  13:46:00       -3.008      107.219      -21.566       42.527       46.042       26.620     1808.515     2119.844      708.625        0.830        0.232      107.261       11.563        0.012      337.685        9.827      860.705
12/21/2013  13:47:00      -26.571      182.715      -27.846       26.529       43.176       18.944      703.803     1864.126      358.858        1.890        0.146      184.637       11.179        0.004      337.576        9.642      860.725
12/21/2013  13:48:00      -29.843       84.974        0.337       39.834       61.805       32.917     1586.759     3819.818     1083.540        0.730        0.325       90.062       36.501        0.164      338.061       10.457      860.743
12/21/2013  13:49:00      -48.173      203.459      -28.373       60.352      102.967       37.102     3642.344    10602.159     1376.539        3.007        0.781      209.084       43.176        0.043      337.962       10.288      860.752
12/21/2013  13:50:00      -11.550      172.903       -4.977       60.062       94.119       41.750     3607.426     8858.328     1743.091        2.213        0.710      173.288       42.330        0.060      337.813       10.038      860.758
12/21/2013  13:51:00       -1.454       64.820        5.894       65.950       73.646       35.856     4349.409     5423.714     1285.682        0.765        0.553       64.836       16.942        0.068      338.020       10.388      860.764
12/21/2013  13:52:00      130.159       94.546        9.288       94.910       61.236       43.361     9007.949     3749.819     1880.213        2.030        0.732      160.874       28.893        0.032      337.697        9.845      860.768
12/21/2013  13:53:00      128.268       86.449        7.906       82.053       55.297       45.699     6732.684     3057.797     2088.383        1.793        0.594      154.680       14.933        0.009      337.594        9.672      860.779
12/21/2013  13:54:00      -21.134      149.195      -20.099       46.384       59.639       39.295     2151.443     3556.801     1544.094        1.518        0.363      150.684       38.759        0.066      337.570        9.632      860.795
12/21/2013  13:55:00       19.566      151.577      -17.992       65.383       78.543       43.110     4274.969     6168.928     1858.442        1.799        0.615      152.835       47.149        0.095      337.753        9.939      860.806
12/21/2013  13:56:00       82.900      123.174        9.636      105.857       62.003       40.930    11205.638     3844.376     1675.295        1.943        0.836      148.473       35.346        0.057      337.724        9.891      860.802
12/21/2013  13:57:00       97.432       70.907       18.575       88.681       66.246       43.470     7864.258     4388.487     1889.648        1.450        0.707      120.503       48.993        0.165      337.610        9.700      860.797
12/21/2013  13:58:00      145.655      110.881        8.541       91.306       67.996       39.099     8336.756     4623.488     1528.757        2.403        0.724      183.057       27.355        0.022      337.697        9.844      860.811
12/21/2013  13:59:00       82.588      174.763       -1.787      109.590       90.228       70.976    12009.999     8141.181     5037.587        3.127        1.259      193.295       72.223        0.140      337.597        9.676      860.845
12/21/2013  14:00:00      -50.020      245.814      -29.261       51.982       75.999       38.145     2702.092     5775.776     1455.049        3.686        0.497      250.852       42.031        0.028      337.573        9.635      860.832
12/21/2013  14:01:00      -39.826      266.025      -28.167       43.314       68.008       36.671     1876.100     4625.056     1344.796        4.050        0.392      268.990       38.944        0.021      337.495        9.503      860.797
12/21/2013  14:02:00      -20.641      252.446      -25.656       57.224       81.294       45.328     3274.533     6608.721     2054.651        3.837        0.597      253.288       50.958        0.040      337.578        9.642      860.763
12/21/2013  14:03:00       40.763      228.241      -22.007       61.097       83.098       47.007     3732.887     6905.331     2209.703        3.354        0.642      231.852       48.333        0.043      337.584        9.654      860.724
12/21/2013  14:04:00      -24.867      176.336      -29.655       95.850       74.833       31.684     9187.310     5599.904     1003.869        2.419        0.790      178.080       32.959        0.034      337.677        9.809      860.708
12/21/2013  14:05:00      -65.790      252.836      -37.221       40.828       60.661       24.372     1666.926     3679.815      593.977        3.779        0.297      261.255       12.708        0.002      337.561        9.614      860.709
12/21/2013  14:06:00      -42.982      103.770       -9.048       33.520       51.482       27.996     1123.588     2650.385      783.783        0.863        0.228      112.320       30.219        0.072      337.699        9.849      860.725
12/21/2013  14:07:00     -114.864      113.748      -21.132       66.467       72.761       38.012     4417.849     5294.152     1444.895        1.887        0.558      161.655       48.130        0.089      337.820       10.051      860.722
12/21/2013  14:08:00      -79.892      157.479      -23.949       27.706       44.451       26.252      767.640     1975.859      689.194        1.759        0.172      176.585       18.702        0.011      337.631        9.734      860.719
12/21/2013  14:09:00      -22.440       75.643      -10.359       19.580       36.835       20.188      383.363     1356.797      407.568        0.424        0.107       78.902       21.318        0.073      337.767        9.965      860.687
12/21/2013  14:10:00       14.997       37.296       -0.084       37.977       47.303       25.647     1442.234     2237.540      657.778        0.298        0.217       40.199       28.444        0.501      337.735        9.910      860.654
12/21/2013  14:11:00       87.829       71.159       10.977       37.849       26.081       24.598     1432.525      680.225      605.084        0.781        0.136      113.038       16.561        0.021      337.631        9.735      860.647
12/21/2013  14:12:00      135.534       58.946       17.328       96.569       68.331       47.289     9325.511     4669.060     2236.297        1.918        0.812      147.797       31.700        0.046      337.633        9.737      860.658
12/21/2013  14:13:00      177.174      115.701        8.553       73.193       61.482       51.399     5357.258     3780.093     2641.867        2.831        0.589      211.607       27.996        0.018      337.623        9.718      860.689
12/21/2013  14:14:00      117.962       94.212        5.903       88.760       66.908       47.208     7878.385     4476.691     2228.551        1.870        0.729      150.967       34.210        0.051      337.608        9.695      860.717
12/21/2013  14:15:00       46.884      114.251       -0.160       52.730       67.940       45.378     2780.420     4615.783     2059.205        1.235        0.473      123.496       43.057        0.122      337.524        9.555      860.738
12/21/2013  14:16:00       20.696       68.769       -7.096       53.078       50.916       35.281     2817.279     2592.388     1244.742        0.593        0.333       71.816       34.809        0.235      337.686        9.828      860.757
12/21/2013  14:17:00       10.287       91.990       -4.209       42.302       48.259       24.654     1789.444     2328.927      607.835        0.666        0.236       92.564       20.705        0.050      337.596        9.677      860.773
12/21/2013  14:18:00       -7.709       28.584        4.366       25.644       33.974       24.577      657.595     1154.240      604.034        0.166        0.121       29.605       23.500        0.630      337.882       10.156      860.786
12/21/2013  14:19:00        7.964       92.227       -8.032       34.982       58.305       26.335     1223.765     3399.487      693.549        0.697        0.266       92.570       26.468        0.082      337.702        9.855      860.785
12/21/2013  14:20:00       39.820      107.431       -8.879       56.161       61.076       26.748     3154.036     3730.247      715.481        1.040        0.380      114.573       33.081        0.083      337.729        9.899      860.764
12/21/2013  14:21:00      108.806       60.523       14.858       39.135       31.926       30.884     1531.545     1019.244      953.834        0.961        0.175      124.506        8.292        0.004      337.721        9.887      860.745
12/21/2013  14:22:00       93.603       70.989       15.972       55.987       43.953       48.121     3134.528     1931.870     2315.645        1.072        0.369      117.477       28.114        0.057      337.578        9.646      860.748
12/21/2013  14:23:00      130.697       83.951       21.379       67.879       54.257       40.757     4607.615     2943.803     1661.117        1.690        0.461      155.336       25.527        0.027      337.662        9.786      860.740
12/21/2013  14:24:00      144.967       87.201       27.006       87.696       58.811       51.553     7690.535     3458.679     2657.677        2.158        0.690      169.173       48.997        0.084      337.581        9.650      860.717
12/21/2013  14:25:00      107.948       62.380       68.704       95.489       83.798       84.799     9118.066     7022.135     7190.802        2.179        1.167      124.676       58.118        0.217      337.486        9.490      860.703
12/21/2013  14:26:00      128.560       90.291       43.150       90.839       84.637       58.597     8251.656     7163.389     3433.629        2.269        0.942      157.099       45.836        0.085      337.575        9.640      860.702
12/21/2013  14:27:00      241.404      141.405       55.553       76.092       70.941       53.838     5790.010     5032.648     2898.496        4.754        0.686      279.770       33.680        0.014      337.386        9.322      860.712
12/21/2013  14:28:00      236.913      142.042       66.211       92.050       67.891       56.003     8473.281     4609.242     3136.342        4.845        0.811      276.231       32.128        0.014      337.326        9.223      860.713
12/21/2013  14:29:00      263.939      163.736       30.794       66.841       66.703       52.720     4467.727     4449.345     2779.387        5.456        0.585      310.601       26.897        0.007      337.319        9.209      860.718
12/21/2013  14:30:00      145.846      101.700       60.205      102.638       78.005       69.448    10534.469     6084.822     4823.065        2.834        1.072      177.803       58.763        0.109      337.410        9.362      860.710
12/21/2013  14:31:00      161.720      121.924       69.390       93.102       54.312       55.005     8668.064     2949.809     3025.579        3.024        0.732      202.531       24.303        0.014      337.426        9.390      860.704
12/21/2013  14:32:00      189.838      104.777       33.251       64.642       54.672       48.167     4178.612     2989.001     2320.077        2.880        0.474      216.833       22.726        0.011      337.472        9.466      860.705
12/21/2013  14:33:00      166.188       39.199       26.110       96.185       79.777       58.194     9251.511     6364.315     3386.577        2.442        0.950      170.748       48.595        0.081      337.403        9.351      860.708
12/21/2013  14:34:00       96.534      106.840       88.980       90.843       47.232       55.758     8252.519     2230.824     3108.949        2.112        0.680      143.991       56.985        0.157      337.538        9.578      860.724
12/21/2013  14:35:00      128.124       78.983       69.366      111.769       82.881       73.733    12492.244     6869.316     5436.572        2.613        1.240      150.512       49.496        0.108      337.431        9.398      860.730
12/21/2013  14:36:00      161.938       58.672       52.203      100.042       70.263       63.382    10008.339     4936.896     4017.303        2.567        0.948      172.239       50.786        0.087      337.498        9.510      860.736
12/21/2013  14:37:00      151.352       93.592       11.317       77.742       51.061       47.208     6043.848     2607.210     2228.636        2.134        0.544      177.952       32.890        0.034      337.529        9.561      860.760
12/21/2013  14:38:00      121.608       56.638       -4.602       67.413       54.216       36.677     4544.482     2939.358     1345.225        1.342        0.441      134.150       13.387        0.010      337.544        9.591      860.774
12/21/2013  14:39:00      121.940       56.323        9.580       55.380       40.879       38.223     3066.958     1671.112     1460.994        1.217        0.310      134.319       18.047        0.018      337.611        9.702      860.780
12/21/2013  14:40:00      130.446      104.726        7.095       94.912       73.286       62.098     9008.314     5370.859     3856.220        2.313        0.912      167.283       16.954        0.010      337.525        9.556      860.800
12/21/2013  14:41:00      123.132      101.945        9.149       81.134       85.488       79.849     6582.733     7308.263     6375.820        2.295        1.013      159.857       65.526        0.168      337.416        9.374      860.796
12/21/2013  14:42:00      177.356       83.501       23.443       95.404       67.097       36.529     9101.904     4502.061     1334.347        2.696        0.747      196.030       30.291        0.024      337.410        9.363      860.793
12/21/2013  14:43:00      174.496      142.799       69.679      112.147       73.169       79.814    12576.898     5353.749     6370.294        3.999        1.215      225.478       62.049        0.076      337.439        9.411      860.765
12/21/2013  14:44:00      289.891      134.047       46.829      101.164       85.982       68.940    10234.162     7392.844     4752.757        6.329        1.119      319.383       53.317        0.028      337.385        9.321      860.733
12/21/2013  14:45:00      281.892      138.727       36.691       93.996       86.553       67.067     8835.306     7491.445     4497.935        6.044        1.041      314.179       51.774        0.027      337.349        9.258      860.716
12/21/2013  14:46:00      174.339       96.954       79.881      102.537       75.799       60.083    10513.802     5745.512     3609.990        3.302        0.993      199.485       51.789        0.067      337.436        9.406      860.712
12/21/2013  14:47:00      137.274       81.659       16.626       72.406       58.843       47.835     5242.692     3462.527     2288.168        1.839        0.550      159.726       21.161        0.018      337.520        9.548      860.720
12/21/2013  14:48:00       57.448       52.455       48.157       53.930       46.241       35.203     2908.468     2138.208     1239.263        0.733        0.314       77.793       21.057        0.073      337.575        9.640      860.732
12/21/2013  14:49:00      148.058       71.338       13.935       83.753       57.470       60.783     7014.610     3302.847     3694.630        2.061        0.701      164.348       40.206        0.060      337.486        9.491      860.740
12/21/2013  14:50:00       71.882       47.670        8.047       40.854       53.002       34.356     1669.056     2809.207     1180.367        0.658        0.283       86.252       20.058        0.054      337.495        9.507      860.748
12/21/2013  14:51:00       25.684       44.735       56.170       59.723       49.430       55.727     3566.831     2443.351     3105.503        0.746        0.456       51.584       44.936        0.759      337.580        9.649      860.750
12/21/2013  14:52:00       69.143       55.855       88.489       80.480       68.439       49.902     6477.106     4683.905     2490.180        1.469        0.683       88.884       49.224        0.307      337.517        9.545      860.753
12/21/2013  14:53:00      133.887      138.479      126.741       85.014       81.607       58.781     7227.407     6659.728     3455.241        3.525        0.867      192.619       51.431        0.071      337.364        9.285      860.753
12/21/2013  14:54:00      183.681      116.990       71.442       90.743       54.898       54.671     8234.237     3013.799     2988.874        3.338        0.712      217.774       47.182        0.047      337.404        9.351      860.747
12/21/2013  14:55:00      185.783       77.197       39.423       72.918       59.845       56.196     5317.100     3581.476     3157.999        2.704        0.603      201.183       36.392        0.033      337.479        9.480      860.769
12/21/2013  14:56:00      215.338      103.540       26.905       51.232       43.231       52.096     2624.699     1868.921     2713.984        3.251        0.360      238.938       24.367        0.010      337.456        9.438      860.795
12/21/2013  14:57:00      137.989       87.213       26.412       54.788       50.885       47.769     3001.693     2589.299     2281.920        1.761        0.394      163.240       28.213        0.030      337.416        9.375      860.822
12/21/2013  14:58:00       87.716       46.390       23.859       75.966       50.832       34.713     5770.786     2583.876     1205.011        0.999        0.478       99.227       20.301        0.042      337.493        9.505      860.843
12/21/2013  14:59:00      132.514       63.974       28.799       81.732       55.066       67.566     6680.157     3032.286     4565.151        1.838        0.714      147.148       35.535        0.058      337.361        9.281      860.860
12/21/2013  15:00:00      113.200       81.228       43.636       94.093       41.657       50.246     8853.501     1735.285     2524.695        1.721        0.656      139.328       54.657        0.154      337.451        9.433      860.875
12/21/2013  15:01:00      144.419       87.006       12.702       72.666       71.672       33.006     5280.381     5136.909     1089.391        2.005        0.575      168.603       27.107        0.026      337.299        9.178      860.880
12/21/2013  15:02:00      120.342       81.703       51.318       61.656       53.012       40.837     3801.513     2810.308     1667.675        1.603        0.414      145.456       29.737        0.042      337.429        9.395      860.872
12/21/2013  15:03:00      136.300       83.785       12.844       67.503       53.592       46.765     4556.661     2872.104     2186.980        1.769        0.481      159.992       35.529        0.049      337.433        9.402      860.863
12/21/2013  15:04:00      173.929      105.097       40.007       71.551       55.834       42.451     5119.528     3117.447     1802.118        2.647        0.502      203.216       17.576        0.007      337.388        9.326      860.849
12/21/2013  15:05:00      152.549       88.422       49.666       76.544       46.694       43.936     5858.963     2180.288     1930.374        2.176        0.498      176.322       42.081        0.057      337.373        9.303      860.838
12/21/2013  15:06:00       99.514       79.295       -4.908       81.659       57.864       52.615     6668.141     3348.275     2768.337        1.450        0.639      127.243       38.390        0.091      337.413        9.369      860.849
12/21/2013  15:07:00       82.711       71.100        2.110       68.293       49.301       36.731     4663.956     2430.627     1349.130        1.017        0.422      109.070       24.717        0.051      337.359        9.279      860.872
12/21/2013  15:08:00       62.618       43.281       11.350       40.302       30.533       24.675     1624.215      932.254      608.839        0.454        0.158       76.120       17.598        0.053      337.344        9.253      860.900
12/21/2013  15:09:00       40.518       72.842        5.643       52.128       62.942       44.453     2717.352     3961.664     1976.084        0.782        0.433       83.353       36.928        0.196      337.345        9.256      860.911
12/21/2013  15:10:00      151.469       95.504       21.947       73.955       59.770       42.937     5469.288     3572.438     1843.554        2.171        0.544      179.064       13.937        0.006      337.328        9.225      860.914
12/21/2013  15:11:00      162.223       96.604       19.599       74.806       49.652       44.637     5595.960     2465.304     1992.479        2.304        0.503      188.808       31.878        0.029      337.327        9.224      860.918
12/21/2013  15:12:00      157.722       98.489       47.362       54.570       49.285       38.142     2977.846     2429.030     1454.787        2.184        0.343      185.947       28.815        0.024      337.374        9.303      860.927
12/21/2013  15:13:00      129.546       73.491       51.257       87.015       59.189       49.513     7571.554     3503.371     2451.554        1.917        0.676      148.940       48.285        0.105      337.416        9.373      860.919
12/21/2013  15:14:00       94.425       59.906       63.537       91.796       75.688       58.858     8426.439     5728.678     3464.288        1.708        0.881      111.825       50.233        0.202      337.358        9.277      860.920
12/21/2013  15:15:00       35.946       37.399       18.419       40.294       31.047       28.812     1623.588      963.913      830.138        0.322        0.171       51.873       25.115        0.234      337.433        9.403      860.932
12/21/2013  15:16:00       99.974       43.201       30.112       58.244       48.931       44.191     3392.312     2394.230     1952.871        1.025        0.387      108.909       31.357        0.083      337.373        9.303      860.929
12/21/2013  15:17:00      130.278       76.936       31.724       65.223       46.031       44.902     4254.014     2118.888     2016.187        1.614        0.419      151.300       35.024        0.054      337.285        9.155      860.928
12/21/2013  15:18:00      118.638       70.784       43.772       56.729       35.037       30.264     3218.151     1227.616      915.901        1.318        0.268      138.150       29.932        0.047      337.402        9.351      860.933
12/21/2013  15:19:00      126.904       85.227       20.276       73.515       64.351       42.127     5404.478     4141.051     1774.693        1.755        0.566      152.867       29.556        0.037      337.348        9.260      860.946
12/21/2013  15:20:00      183.782      116.305       31.800       32.122       25.900       34.962     1031.829      670.813     1222.333        2.562        0.146      217.492       17.861        0.007      337.298        9.176      860.955
12/21/2013  15:21:00       84.569       48.404       13.155       24.242       27.919       21.210      587.659      779.450      449.874        0.574        0.091       97.441       13.444        0.019      337.312        9.202      860.967
12/21/2013  15:22:00       56.816       26.238       13.666       23.827       23.024       15.186      567.702      530.093      230.606        0.272        0.066       62.582       10.264        0.027      337.400        9.348      860.973
12/21/2013  15:23:00       75.090       48.167       12.676       43.142       22.184       22.998     1861.258      492.133      528.902        0.550        0.144       89.211        9.939        0.012      337.387        9.326      860.982
12/21/2013  15:24:00      118.805       95.909       26.810       48.375       46.818       37.040     2340.150     2191.919     1371.942        1.497        0.295      152.687       29.178        0.037      337.365        9.291      860.993
12/21/2013  15:25:00      109.768       54.347       16.700       44.029       31.289       28.113     1938.571      978.993      790.335        0.949        0.185      122.485       10.964        0.008      337.369        9.297      860.993
12/21/2013  15:26:00       82.141       40.469       29.724       56.336       41.591       37.054     3173.691     1729.794     1372.964        0.777        0.314       91.569       31.414        0.118      337.387        9.326      860.988
12/21/2013  15:27:00      127.727       78.342       23.023       35.021       28.785       35.460     1226.459      828.559     1257.431        1.315        0.166      149.839       22.401        0.022      337.223        9.052      860.996
12/21/2013  15:28:00      107.814       77.706       18.795       36.448       28.286       31.418     1328.443      800.089      987.077        1.057        0.156      132.899       17.778        0.018      337.236        9.074      861.002
12/21/2013  15:29:00       96.738       50.180       15.727       33.264       23.997       20.005     1106.474      575.837      400.180        0.710        0.104      108.978       12.541        0.013      337.281        9.150      861.005
12/21/2013  15:30:00       85.081       59.093       34.323       47.716       33.170       32.126     2276.844     1100.277     1032.072        0.816        0.220      103.590       21.229        0.042      337.327        9.226      861.015
12/21/2013  15:31:00      111.883       54.678       12.290       46.638       39.246       33.219     2175.105     1540.239     1103.470        1.024        0.241      124.529       27.765        0.050      337.329        9.230      861.026
12/21/2013  15:32:00       88.953       55.934       17.068       37.740       28.107       24.940     1424.312      790.021      621.979        0.708        0.142      105.077       19.796        0.035      337.326        9.225      861.046
12/21/2013  15:33:00      129.338       84.101       26.015       47.339       54.929       34.619     2240.981     3017.222     1198.442        1.547        0.323      154.276       21.221        0.019      337.316        9.207      861.060
12/21/2013  15:34:00       92.258       55.242       16.963       40.115       34.116       28.251     1609.184     1163.892      798.147        0.771        0.179      107.532       16.351        0.023      337.266        9.123      861.072
12/21/2013  15:35:00       81.318       29.701       27.100       56.947       46.631       33.507     3243.015     2174.419     1122.693        0.738        0.327       86.572       23.329        0.073      337.286        9.158      861.080
12/21/2013  15:36:00      126.342       65.855       30.157       56.486       43.278       33.429     3190.616     1872.974     1117.471        1.369        0.309      142.476       23.547        0.027      337.360        9.282      861.081
12/21/2013  15:37:00       36.121       55.437       46.136       45.660       42.528       32.138     2084.860     1808.612     1032.844        0.572        0.246       66.167       20.758        0.098      337.365        9.290      861.087
12/21/2013  15:38:00      108.788       63.729       42.823       50.373       44.077       37.043     2537.475     1942.797     1372.220        1.179        0.293      126.081       26.853        0.045      337.317        9.209      861.098
12/21/2013  15:39:00       88.763       66.697       19.171       41.758       37.770       36.089     1743.743     1426.596     1302.430        0.858        0.224      111.029       24.014        0.047      337.310        9.198      861.114
12/21/2013  15:40:00      171.007       76.898       20.104       50.001       42.723       39.435     2500.136     1825.247     1555.084        2.072        0.294      187.502       28.543        0.023      337.259        9.110      861.130
12/21/2013  15:41:00      123.272       67.084       18.782       40.445       33.420       26.035     1635.825     1116.895      677.810        1.174        0.172      140.343       16.523        0.014      337.267        9.125      861.141
12/21/2013  15:42:00       84.499       46.111        4.878       30.987       23.286       19.085      960.168      542.257      364.233        0.558        0.093       96.261       16.282        0.029      337.295        9.172      861.163
12/21/2013  15:43:00       61.477       27.173        6.396       29.210       30.677       20.079      853.211      941.048      403.181        0.338        0.110       67.214        9.181        0.019      337.303        9.185      861.182
12/21/2013  15:44:00      127.777       77.442       33.641       45.880       37.957       26.805     2104.997     1440.729      718.497        1.386        0.213      149.413       18.833        0.016      337.321        9.217      861.190
12/21/2013  15:45:00       38.046       16.797       18.592       47.437       25.012       23.568     2250.300      625.623      555.445        0.275        0.172       41.589       22.852        0.302      337.375        9.306      861.189
12/21/2013  15:46:00       54.256       20.836       18.095       26.774       43.336       25.784      716.843     1877.981      664.838        0.348        0.163       58.119       19.845        0.117      337.306        9.190      861.184
12/21/2013  15:47:00       64.736       34.102        7.595       32.862       28.378       24.418     1079.886      805.302      596.257        0.395        0.124       73.169       18.666        0.065      337.314        9.206      861.181
12/21/2013  15:48:00       70.850       51.317       15.931       38.529       26.980       24.587     1484.481      727.907      604.543        0.536        0.141       87.482       24.209        0.077      337.239        9.079      861.175
12/21/2013  15:49:00      127.033       93.015        8.272       65.920       46.068       51.003     4345.397     2122.246     2601.356        1.696        0.453      157.446       33.031        0.044      337.276        9.140      861.168
12/21/2013  15:50:00       87.707       60.921        5.415       48.264       40.463       31.346     2329.390     1637.269      982.546        0.819        0.247      106.788       22.995        0.046      337.260        9.114      861.155
12/21/2013  15:51:00       57.837       87.469        1.992       52.416       60.290       43.504     2747.385     3634.853     1892.634        0.964        0.414      104.861       38.114        0.132      337.241        9.081      861.145
12/21/2013  15:52:00       50.117       99.088       -3.822       48.229       59.267       42.392     2325.992     3512.623     1797.072        0.999        0.382      111.042       40.712        0.134      337.249        9.096      861.147
12/21/2013  15:53:00       65.552       63.194        6.710       51.851       44.708       44.865     2688.553     1998.848     2012.830        0.752        0.335       91.053       29.664        0.106      337.248        9.093      861.155
12/21/2013  15:54:00       38.739       62.968        3.479       42.821       46.038       33.550     1833.625     2119.466     1125.579        0.528        0.254       73.930       27.524        0.139      337.224        9.054      861.175
12/21/2013  15:55:00      112.439       76.335       14.082       47.980       38.812       35.859     2302.057     1506.349     1285.902        1.188        0.255      135.903       22.530        0.027      337.282        9.151      861.186
12/21/2013  15:56:00      100.509       63.766       17.079       50.512       36.760       27.014     2551.421     1351.294      729.768        0.955        0.232      119.030       18.616        0.024      337.212        9.035      861.189
12/21/2013  15:57:00      156.190       89.941       23.986       53.018       32.520       33.406     2810.922     1057.550     1115.944        1.902        0.249      180.235       19.639        0.012      337.248        9.094      861.195
12/21/2013  15:58:00       86.961       64.533        7.502       47.662       41.382       27.906     2271.684     1712.466      778.745        0.827        0.238      108.290       22.191        0.042      337.211        9.033      861.201
12/21/2013  15:59:00       80.793       52.276        8.892       47.357       42.632       21.621     2242.723     1817.499      467.453        0.693        0.226       96.231       14.610        0.023      337.181        8.983      861.213
12/21/2013  16:00:00       61.064       53.336       12.436       36.394       37.815       28.630     1324.559     1429.943      819.656        0.515        0.179       81.077       13.512        0.028      337.131        8.897      861.239
12/21/2013  16:01:00       82.187       43.183       13.699       58.256       31.485       19.152     3393.817      991.324      366.781        0.678        0.238       92.841       18.683        0.040      337.152        8.933      861.264
12/21/2013  16:02:00       87.863       65.932       16.926       53.782       35.639       30.530     2892.557     1270.143      932.087        0.872        0.255      109.850       20.658        0.035      337.192        9.001      861.294
12/21/2013  16:03:00      119.364       63.057        8.347       38.804       33.482       26.207     1505.748     1121.076      686.810        1.080        0.166      134.996       22.784        0.028      337.163        8.953      861.316
12/21/2013  16:04:00       87.399       57.976       23.242       41.272       22.553       24.309     1703.361      508.655      590.951        0.717        0.140      104.880       21.781        0.043      337.133        8.902      861.330
12/21/2013  16:05:00       97.179       47.023        9.987       32.309       30.275       21.789     1043.889      916.587      474.742        0.709        0.122      107.958       12.538        0.013      337.141        8.914      861.357
12/21/2013  16:06:00       83.884       67.798       15.756       26.989       23.317       18.679      728.404      543.660      348.902        0.675        0.081      107.857       12.907        0.014      337.099        8.844      861.375
12/21/2013  16:07:00      109.471       75.633       15.540       37.949       35.746       29.069     1440.103     1277.812      845.021        1.075        0.178      133.057       22.739        0.029      337.133        8.900      861.388
12/21/2013  16:08:00      101.531       68.960       27.632       36.926       31.421       27.956     1363.511      987.293      781.562        0.948        0.157      122.735       22.511        0.034      337.091        8.830      861.408
12/21/2013  16:09:00      110.950       72.767       23.555       24.516       26.310       26.671      601.012      692.229      711.319        1.008        0.100      132.684       16.109        0.015      337.133        8.901      861.426
12/21/2013  16:10:00       77.047       28.098        9.323       38.212       31.772       21.476     1460.150     1009.433      461.203        0.487        0.147       82.011       15.292        0.035      337.117        8.873      861.452
12/21/2013  16:11:00       78.541       56.121       14.421       24.541       26.087       19.307      602.271      680.544      372.748        0.559        0.083       96.531       16.365        0.029      337.107        8.858      861.473
12/21/2013  16:12:00       60.770       40.497       22.617       24.715       23.699       18.444      610.813      561.651      340.190        0.368        0.076       73.028       12.622        0.030      337.083        8.816      861.487
12/21/2013  16:13:00       67.515       50.531       31.060       31.034       20.112       21.623      963.078      404.506      467.555        0.496        0.092       84.330       12.539        0.022      337.071        8.797      861.496
12/21/2013  16:14:00       62.252       76.847       25.960       37.190       27.551       26.476     1383.111      759.081      700.993        0.665        0.142       98.897       20.435        0.043      337.110        8.863      861.506
12/21/2013  16:15:00       70.067       47.426       17.478       25.608       27.851       27.631      655.775      775.656      763.465        0.483        0.110       84.609       16.114        0.036      337.099        8.843      861.512
12/21/2013  16:16:00      112.598       65.627       29.873       27.529       23.331       24.755      757.818      544.317      612.824        0.990        0.096      130.327       11.560        0.008      337.094        8.835      861.513
12/21/2013  16:17:00       64.008       38.351        3.817       31.085       24.787       18.784      966.304      614.417      352.851        0.376        0.097       74.617       13.421        0.032      337.050        8.761      861.501
12/21/2013  16:18:00       47.611       40.353        8.859       24.811       22.973       17.513      615.596      527.756      306.709        0.271        0.073       62.412       15.933        0.065      336.969        8.627      861.497
12/21/2013  16:19:00       57.642       36.917       11.685       22.925       16.252       12.947      525.556      264.129      167.617        0.289        0.048       68.451        4.951        0.005      336.977        8.638      861.501
12/21/2013  16:20:00       60.796       38.497        6.602       24.529       25.537       12.738      601.686      652.140      162.267        0.332        0.071       71.959       11.458        0.025      336.977        8.639      861.498
12/21/2013  16:21:00       47.245       36.349       11.539       28.693       18.205       16.113      823.308      331.412      259.634        0.255        0.071       59.610        5.695        0.009      336.928        8.560      861.493
12/21/2013  16:22:00       62.357       35.705        6.072       28.635       16.351       11.574      819.935      267.358      133.951        0.321        0.061       71.855       11.169        0.024      337.011        8.697      861.492
12/21/2013  16:23:00       29.051       27.096        3.753       21.765       13.533       15.874      473.715      183.154      251.970        0.125        0.045       39.726        7.106        0.032      336.937        8.573      861.505
12/21/2013  16:24:00       45.581       48.777       -3.573       27.469       19.410       17.436      754.561      376.732      304.011        0.295        0.072       66.760       14.928        0.050      336.979        8.642      861.521
12/21/2013  16:25:00       41.684       48.800        1.005       27.180       28.654       17.348      738.732      821.037      300.940        0.299        0.093       64.179       14.623        0.052      336.960        8.611      861.522
12/21/2013  16:26:00       27.700       62.271       -5.536       25.943       32.376       18.538      673.016     1048.212      343.676        0.337        0.103       68.154       20.102        0.087      336.934        8.567      861.539
12/21/2013  16:27:00       23.143       92.997      -15.752       23.448       20.362       13.007      549.831      414.597      169.184        0.528        0.057       95.834       10.672        0.012      336.927        8.556      861.552
12/21/2013  16:28:00       22.831       58.579        2.492       20.761       34.543       21.887      430.999     1193.205      479.054        0.303        0.105       62.871       20.884        0.110      336.835        8.404      861.556
12/21/2013  16:29:00       27.771      100.863      -13.041       24.713       30.271       20.409      610.725      916.354      416.532        0.653        0.097      104.616       20.237        0.037      336.892        8.497      861.567
12/21/2013  16:30:00       25.305       86.641      -13.773       20.269       22.305       13.910      410.843      497.515      193.482        0.472        0.055       90.261       13.136        0.021      336.889        8.493      861.565
12/21/2013  16:31:00       24.190       82.862      -10.835       32.879       38.053       24.103     1081.015     1448.031      580.977        0.534        0.156       86.321       25.664        0.088      336.853        8.433      861.573
12/21/2013  16:32:00       29.753       89.506      -10.130       24.665       31.780       18.727      608.348     1009.998      350.713        0.548        0.098       94.322       17.909        0.036      336.858        8.443      861.584
12/21/2013  16:33:00       20.053      121.737      -18.102       23.771       17.030       10.363      565.083      290.009      107.399        0.826        0.048      123.378        5.758        0.002      336.906        8.522      861.593
12/21/2013  16:34:00       11.927      129.023      -23.112       24.256       22.947       15.087      588.361      526.547      227.603        0.933        0.067      129.573        9.936        0.006      336.895        8.504      861.599
12/21/2013  16:35:00       10.178      136.485      -23.364       19.382       21.403       12.795      375.651      458.093      163.702        1.014        0.050      136.864       11.288        0.007      336.942        8.581      861.601
12/21/2013  16:36:00       19.019       96.766      -12.638       25.509       19.622       11.279      650.711      385.014      127.209        0.552        0.058       98.617        5.978        0.004      336.824        8.386      861.595
12/21/2013  16:37:00       22.864      112.461      -13.810       24.280       20.700       16.345      589.530      428.471      267.173        0.732        0.064      114.762        9.874        0.007      336.852        8.431      861.599
12/21/2013  16:38:00       13.471      140.234      -24.675       17.773       15.507        9.649      315.871      240.462       93.106        1.055        0.032      140.880        8.127        0.003      336.908        8.524      861.599
12/21/2013  16:39:00        8.898      127.427      -19.090       12.830       19.513        8.688      164.603      380.770       75.481        0.865        0.031      127.738        6.917        0.003      336.882        8.481      861.592
12/21/2013  16:40:00        7.872      144.804      -22.454       14.485       17.062        9.038      209.811      291.126       81.678        1.106        0.029      145.018        7.919        0.003      336.899        8.509      861.589
12/21/2013  16:41:00        9.611      148.362      -24.024       17.056       17.181       10.474      290.894      295.193      109.703        1.169        0.035      148.673        7.798        0.003      336.866        8.454      861.599
12/21/2013  16:42:00       23.442      134.470      -21.741       20.855       31.839       17.137      434.912     1013.721      293.680        1.042        0.087      136.498       19.016        0.019      336.822        8.382      861.616
12/21/2013  16:43:00       29.285      130.180      -22.983       17.346       24.742       15.834      300.884      612.176      250.720        0.975        0.058      133.433       14.345        0.012      336.757        8.274      861.631
12/21/2013  16:44:00       27.322      125.156      -17.262       22.674       40.220       24.551      514.116     1617.624      602.769        0.972        0.137      128.104       24.779        0.037      336.749        8.260      861.644
12/21/2013  16:45:00       22.001      136.498      -23.966       19.859       22.494       12.970      394.374      505.981      168.226        1.038        0.053      138.259        7.289        0.003      336.767        8.292      861.650
12/21/2013  16:46:00       26.684      142.064      -28.634       20.943       16.765       13.032      438.590      281.070      169.823        1.130        0.044      144.549       10.515        0.005      336.774        8.301      861.666
12/21/2013  16:47:00       28.407      148.633      -27.415       16.494       24.860       13.753      272.046      618.016      189.156        1.236        0.054      151.324       10.800        0.005      336.779        8.312      861.671
12/21/2013  16:48:00        2.989      148.686      -23.813       10.543       18.609        9.524      111.157      346.308       90.704        1.162        0.027      148.716        6.556        0.002      336.747        8.257      861.687
12/21/2013  16:49:00      -13.963      155.365      -21.737       15.357       19.866        9.096      235.849      394.639       82.736        1.276        0.036      155.991        7.527        0.002      336.779        8.311      861.696
12/21/2013  16:50:00      -19.830      151.768      -20.862       18.004       22.860       13.642      324.162      522.601      186.107        1.245        0.052      153.058        8.446        0.003      336.755        8.270      861.694
12/21/2013  16:51:00      -20.489      156.550      -20.362       18.476       19.327       13.611      341.349      373.514      185.258        1.312        0.045      157.885        8.974        0.003      336.845        8.421      861.689
12/21/2013  16:52:00      -18.110      155.137      -26.630       16.840       17.715       11.490      283.588      313.831      132.021        1.292        0.036      156.191        3.640        0.001      336.819        8.376      861.690
12/21/2013  16:53:00      -13.533      145.655      -19.769       20.884       19.742       11.651      436.122      389.750      135.749        1.138        0.048      146.282        7.687        0.003      336.836        8.407      861.681
12/21/2013  16:54:00      -17.095      144.813      -22.259       15.135       20.941       12.445      229.072      438.518      154.880        1.129        0.041      145.819        7.631        0.003      336.849        8.428      861.675
12/21/2013  16:55:00      -19.168      149.485      -22.170       18.901       17.767       12.693      357.255      315.659      161.117        1.202        0.042      150.709        8.256        0.003      336.910        8.528      861.679
12/21/2013  16:56:00      -18.964      140.266      -22.309       16.032       19.368       10.395      257.023      375.110      108.049        1.064        0.037      141.542        6.073        0.002      336.834        8.401      861.692
12/21/2013  16:57:00      -24.534      145.030      -21.369       18.574       22.778       14.086      344.986      518.837      198.426        1.158        0.053      147.090        8.094        0.003      336.849        8.428      861.701
12/21/2013  16:58:00      -30.074      120.435      -17.900       18.120       24.578       15.271      328.342      604.067      233.217        0.845        0.058      124.133       13.300        0.011      336.779        8.311      861.723
12/21/2013  16:59:00      -23.848      129.027      -15.390       17.975       30.563       18.315      323.088      934.087      335.426        0.952        0.080      131.212       18.086        0.019      336.910        8.528      861.735
12/21/2013  17:00:00      -25.130       81.323       -9.040       20.220       20.996       13.983      408.856      440.834      195.514        0.419        0.052       85.117        9.123        0.011      336.868        8.458      861.743
12/21/2013  17:01:00      -33.051       58.612      -19.380       23.044       31.916       12.594      531.026     1018.617      158.619        0.331        0.085       67.288       12.584        0.035      336.766        8.288      861.746
12/21/2013  17:02:00      -25.786       51.654       -7.405       25.023       25.638       14.205      626.142      657.291      201.786        0.244        0.074       57.732        9.801        0.029      336.729        8.227      861.749
12/21/2013  17:03:00      -53.095        6.273       -8.047       22.671       16.988        9.289      513.969      288.591       86.287        0.191        0.044       53.465        8.543        0.026      336.560        7.946      861.762
12/21/2013  17:04:00      -45.612      -13.332       -3.720       16.825       23.313       11.526      283.078      543.503      132.843        0.162        0.048       47.520       11.467        0.058      336.496        7.837      861.784
12/21/2013  17:05:00      -50.843      -19.984      -10.042       12.643        9.893        9.480      159.853       97.874       89.866        0.172        0.017       54.630        6.644        0.015      336.304        7.516      861.808
12/21/2013  17:06:00      -52.409      -18.686      -11.208       10.902       10.029        6.732      118.843      100.588       45.318        0.174        0.013       55.640        4.242        0.006      336.178        7.305      861.831
12/21/2013  17:07:00      -56.986      -25.381      -14.061       15.653       15.579        9.812      245.029      242.706       96.283        0.234        0.029       62.382       10.427        0.028      336.130        7.224      861.846
12/21/2013  17:08:00      -63.876      -23.560       -7.700       16.556       13.807       12.352      274.114      190.634      152.583        0.266        0.031       68.083        8.171        0.014      336.064        7.115      861.845
12/21/2013  17:09:00      -76.508      -27.810      -10.844       10.617       13.879       11.991      112.723      192.619      143.782        0.360        0.022       81.405        8.808        0.012      335.947        6.920      861.836
12/21/2013  17:10:00      -91.790      -38.502       -8.451       15.838       13.390        7.635      250.849      179.283       58.290        0.523        0.024       99.538        1.906        0.000      335.901        6.844      861.822
12/21/2013  17:11:00     -113.015      -47.894      -11.117        9.470        9.597        6.435       89.677       92.099       41.405        0.771        0.011      122.745        3.780        0.001      335.880        6.809      861.813
12/21/2013  17:12:00     -115.615      -19.076      -16.170       20.340       20.338       10.671      413.711      413.618      113.862        0.747        0.047      117.178        7.276        0.004      335.798        6.671      861.820
12/21/2013  17:13:00     -137.403      -27.938      -18.305       17.553       17.023       12.194      308.104      289.782      148.683        1.037        0.037      140.214        4.440        0.001      335.684        6.483      861.841
12/21/2013  17:14:00     -147.659      -58.797      -10.211       13.658       16.091       11.059      186.530      258.928      122.298        1.297        0.028      158.935        6.749        0.002      335.589        6.324      861.854
12/21/2013  17:15:00     -121.676      -65.588       -4.710       31.082       27.323       20.286      966.105      746.565      411.514        1.063        0.106      138.228       16.833        0.015      335.462        6.111      861.863
12/21/2013  17:16:00     -158.463     -105.811        0.523       48.736       37.168       25.836     2375.155     1381.436      667.506        2.036        0.221      190.542       25.529        0.018      335.482        6.144      861.870
12/21/2013  17:17:00     -164.027      -40.128       -3.185       45.727       50.034       27.328     2090.953     2503.410      746.812        1.693        0.267      168.865       22.859        0.018      335.585        6.318      861.860
12/21/2013  17:18:00     -173.627      -38.162      -13.759       53.786       47.131       27.886     2892.963     2221.361      777.643        1.884        0.295      177.772       27.995        0.025      335.541        6.242      861.849
12/21/2013  17:19:00     -141.576      -57.348        3.554       60.646       38.461       23.679     3677.891     1479.262      560.692        1.453        0.286      152.750       26.709        0.031      335.558        6.273      861.846
12/21/2013  17:20:00     -160.842      -32.947      -16.628       31.596       31.873       18.044      998.316     1015.918      325.580        1.479        0.117      164.181       14.348        0.008      335.602        6.347      861.834
12/21/2013  17:21:00     -135.231      -24.754      -15.346       30.924       30.207       23.986      956.277      912.473      575.349        1.079        0.122      137.478       19.549        0.020      335.553        6.264      861.836
12/21/2013  17:22:00      -96.217      -26.389        2.785       40.374       32.875       20.965     1630.097     1080.750      439.529        0.656        0.158       99.770       20.476        0.042      335.515        6.198      861.858
12/21/2013  17:23:00     -160.881       24.690      -14.315       50.239       37.454       21.719     2523.978     1402.779      471.697        1.555        0.220      162.764       22.312        0.019      335.572        6.294      861.877
12/21/2013  17:24:00     -143.089       11.757       -9.418       51.238       32.192       23.614     2625.309     1036.351      557.608        1.246        0.211      143.571       21.251        0.022      335.580        6.308      861.898
12/21/2013  17:25:00     -120.065        4.797       -2.637       57.772       37.093       24.324     3337.643     1375.920      591.670        0.987        0.265      120.161       29.601        0.061      335.589        6.324      861.903
12/21/2013  17:26:00     -159.873       29.833      -12.183       44.829       31.928       20.974     2009.674     1019.417      439.916        1.503        0.173      162.633       20.961        0.017      335.573        6.298      861.910
12/21/2013  17:27:00     -160.971       32.154       -8.569       45.692       44.833       23.211     2087.798     2009.983      538.751        1.583        0.232      164.151       22.143        0.018      335.506        6.185      861.921
12/21/2013  17:28:00     -184.277       40.743      -19.703       41.798       42.692       30.534     1747.079     1822.581      932.305        2.025        0.225      188.727       26.790        0.020      335.447        6.086      861.925
12/21/2013  17:29:00     -140.315        7.493      -19.500       48.105       38.126       28.344     2314.121     1453.593      803.390        1.235        0.229      140.515       27.815        0.039      335.394        5.997      861.927
12/21/2013  17:30:00     -120.506        8.724       -8.399       40.436       45.726       28.054     1635.068     2090.825      787.046        0.959        0.226      120.822       22.854        0.036      335.307        5.853      861.923
12/21/2013  17:31:00     -140.485       18.046      -12.260       44.535       42.637       29.792     1983.329     1817.918      887.554        1.245        0.234      141.639       23.326        0.027      335.250        5.758      861.903
12/21/2013  17:32:00     -130.553       22.212      -15.585       45.466       45.941       24.121     2067.178     2110.545      581.799        1.127        0.238      132.429       14.533        0.012      335.211        5.694      861.896
12/21/2013  17:33:00     -140.327       14.043      -19.001       54.634       47.974       28.887     2984.823     2301.497      834.432        1.318        0.306      141.028       19.824        0.020      335.161        5.611      861.890
12/21/2013  17:34:00     -165.167       41.359      -34.142       45.913       52.425       34.934     2107.974     2748.359     1220.418        1.812        0.304      170.266       23.605        0.019      335.117        5.538      861.892
12/21/2013  17:35:00     -189.086       35.088      -26.198       45.775       46.460       30.014     2095.337     2158.528      900.849        2.141        0.258      192.314       23.291        0.015      335.095        5.503      861.895
12/21/2013  17:36:00     -186.229       48.031      -13.466       54.477       41.074       30.892     2967.734     1687.090      954.293        2.139        0.280      192.323       25.014        0.017      335.052        5.430      861.889
12/21/2013  17:37:00     -231.768       58.228      -23.116       56.534       43.848       36.577     3196.072     1922.649     1337.886        3.205        0.323      238.971       29.266        0.015      335.012        5.361      861.886
12/21/2013  17:38:00     -187.364       36.292      -22.630       59.587       52.414       28.737     3550.647     2747.210      825.819        2.203        0.356      190.846       21.107        0.012      334.940        5.242      861.883
12/21/2013  17:39:00     -196.892       -3.427      -14.465       56.002       47.414       35.513     3136.240     2248.063     1261.160        2.282        0.332      196.922       31.948        0.026      334.912        5.195      861.880
12/21/2013  17:40:00     -165.321       -2.722      -13.619       81.803       48.903       28.061     6691.677     2391.508      787.429        1.870        0.494      165.344       32.590        0.039      334.928        5.222      861.892
12/21/2013  17:41:00     -165.027      -28.702       -6.696       67.333       54.046       41.511     4533.696     2920.931     1723.156        1.864        0.459      167.504       41.310        0.061      334.833        5.066      861.900
12/21/2013  17:42:00     -168.165       17.787      -16.540       81.017       43.707       36.823     6563.730     1910.297     1355.947        1.935        0.491      169.103       43.391        0.066      334.857        5.104      861.911
12/21/2013  17:43:00     -181.943       13.834      -11.910       64.219       43.289       30.403     4124.026     1873.909      924.324        2.018        0.346      182.468       33.383        0.033      334.788        4.990      861.924
12/21/2013  17:44:00     -190.992      -12.506      -20.893       53.572       43.833       32.879     2869.943     1921.355     1081.055        2.147        0.294      191.401       30.668        0.026      334.752        4.929      861.947
12/21/2013  17:45:00     -200.891       -3.618      -18.655       73.878       48.447       41.891     5457.982     2347.117     1754.822        2.514        0.478      200.923       46.858        0.054      334.701        4.843      861.965
12/21/2013  17:46:00     -190.152      -21.104      -19.805       67.108       51.784       33.686     4503.526     2681.608     1134.750        2.266        0.416      191.320       34.573        0.033      334.645        4.751      861.965
12/21/2013  17:47:00     -178.185       10.782      -14.833       77.669       57.759       34.912     6032.419     3336.055     1218.862        2.133        0.529      178.511       34.254        0.037      334.638        4.740      861.977
12/21/2013  17:48:00     -193.096       -8.712      -23.556       63.406       47.199       30.761     4020.300     2227.769      946.220        2.255        0.360      193.292       34.085        0.031      334.717        4.871      861.977
12/21/2013  17:49:00     -217.044        8.705      -12.509       62.324       38.443       30.755     3884.294     1477.851      945.861        2.682        0.315      217.218       32.620        0.023      334.668        4.789      861.982
12/21/2013  17:50:00     -102.426      -26.936        1.073       59.298       50.365       31.498     3516.239     2536.619      992.109        0.913        0.352      105.908       31.955        0.091      334.593        4.667      861.996
12/21/2013  17:51:00     -130.835       -6.518       -9.237       57.178       56.261       29.687     3269.297     3165.301      881.344        1.228        0.366      130.997       28.671        0.048      334.609        4.694      862.007
12/21/2013  17:52:00     -149.894      -40.240        0.314       64.529       54.299       31.313     4163.948     2948.329      980.482        1.609        0.405      155.201       31.234        0.041      334.625        4.720      862.044
12/21/2013  17:53:00     -156.327      -92.354       -0.100       75.427       53.032       34.520     5689.184     2812.358     1191.613        2.133        0.485      181.569       38.005        0.044      334.712        4.863      862.069
12/21/2013  17:54:00     -183.565     -153.927      -15.246       62.775       61.688       34.633     3940.685     3805.445     1199.448        3.328        0.447      239.562       30.947        0.017      335.001        5.343      862.094
12/21/2013  17:55:00     -169.493      -83.467        0.122       72.808       44.178       32.005     5301.052     1951.714     1024.322        2.198        0.414      188.931       29.143        0.024      335.001        5.345      862.102
12/21/2013  17:56:00     -179.873     -102.775       -7.285       51.895       49.938       26.396     2693.073     2493.803      696.769        2.443        0.294      207.164       26.866        0.017      335.115        5.534      862.110
12/21/2013  17:57:00     -166.086      -41.995       -2.114       60.310       31.237       28.068     3637.289      975.725      787.832        1.738        0.270      171.313       26.545        0.024      335.110        5.526      862.123
12/21/2013  17:58:00     -183.764      -97.622       -6.698       39.965       37.612       24.106     1597.191     1414.687      581.083        2.347        0.180      208.085       17.915        0.007      335.137        5.569      862.141
12/21/2013  17:59:00     -194.699      -61.109        1.196       41.615       33.084       26.089     1731.792     1094.526      680.642        2.257        0.175      204.063       23.773        0.014      335.164        5.613      862.152
12/21/2013  18:00:00     -168.441      -74.352       -8.894       43.282       42.729       25.954     1873.308     1825.809      673.624        1.918        0.219      184.121       18.153        0.010      335.113        5.532      862.158
12/21/2013  18:01:00     -127.201      -58.654        2.864       69.002       44.419       30.075     4761.238     1973.083      904.530        1.363        0.382      140.072       32.880        0.055      335.115        5.534      862.140
12/21/2013  18:02:00      -77.080      -30.430        3.688       39.648       32.228       21.618     1572.002     1038.671      467.318        0.498        0.154       82.869       21.602        0.068      335.120        5.544      862.124
12/21/2013  18:03:00      -40.491       13.910        9.222       32.005       24.875       12.742     1024.321      618.781      162.348        0.186        0.090       42.813       10.214        0.057      334.982        5.314      862.135
12/21/2013  18:04:00       35.274       29.560       10.867       29.646       29.306       17.563      878.862      858.837      308.459        0.214        0.102       46.023       10.417        0.051      335.040        5.410      862.153
12/21/2013  18:05:00       39.512       25.875       24.488       37.777       24.606       27.856     1427.139      605.436      775.946        0.282        0.140       47.230       19.890        0.177      334.932        5.230      862.163
12/21/2013  18:06:00       58.377       13.581        7.743       27.733       18.415       21.501      769.116      339.122      462.292        0.261        0.079       59.936       13.066        0.048      334.971        5.295      862.167
12/21/2013  18:07:00       18.207      -16.783        4.675       26.418       12.418        7.439      697.908      154.199       55.337        0.077        0.045       24.762        4.325        0.030      335.136        5.568      862.154
12/21/2013  18:08:00      -68.885       -0.895      -10.607       29.542       10.631       12.015      872.709      113.009      144.367        0.299        0.057       68.891        8.530        0.015      335.237        5.737      862.151
12/21/2013  18:09:00     -125.168        5.577      -13.386       14.460       13.946        9.005      209.087      194.502       81.085        0.818        0.024      125.292        7.321        0.003      335.151        5.595      862.172
12/21/2013  18:10:00     -118.994        0.196      -12.630       23.405       19.344       12.458      547.788      374.185      155.195        0.770        0.054      118.994       10.424        0.008      335.099        5.508      862.207
12/21/2013  18:11:00      -82.676       18.900       -8.737       43.696       28.851       21.945     1909.376      832.406      481.580        0.525        0.161       84.809       20.869        0.061      335.069        5.459      862.225
12/21/2013  18:12:00     -104.678       35.696       -6.569       43.791       28.726       22.714     1917.670      825.190      515.937        0.777        0.163      110.597       18.117        0.027      335.063        5.449      862.249
12/21/2013  18:13:00     -142.312       36.906      -16.235       46.994       31.304       22.085     2208.428      979.947      487.747        1.278        0.184      147.020       17.402        0.014      335.094        5.501      862.259
12/21/2013  18:14:00     -177.422       16.319      -15.951       51.705       34.976       20.544     2673.418     1223.342      422.049        1.816        0.216      178.171       22.657        0.016      334.947        5.255      862.261
12/21/2013  18:15:00     -155.475      -15.768      -13.921       56.661       34.421       24.319     3210.511     1184.774      591.392        1.480        0.249      156.273       26.719        0.029      334.857        5.105      862.242
12/21/2013  18:16:00      -90.139      -30.351       -7.035       25.936       34.536       21.214      672.675     1192.748      450.021        0.571        0.116       95.112       11.694        0.015      334.809        5.026      862.244
12/21/2013  18:17:00     -105.791      -52.498        0.717       39.163       34.209       25.034     1533.724     1170.235      626.701        0.864        0.167      118.100       18.385        0.024      334.742        4.916      862.267
12/21/2013  18:18:00      -97.098       16.299      -10.559       44.047       35.435       21.642     1940.106     1255.625      468.375        0.673        0.183       98.456       18.404        0.035      334.697        4.841      862.308
12/21/2013  18:19:00     -138.140        7.182      -13.091       44.003       29.191       18.822     1936.297      852.135      354.268        1.122        0.157      138.326       19.420        0.020      334.614        4.702      862.328
12/21/2013  18:20:00      -93.602      -32.826      -10.164       52.668       41.800       28.663     2773.886     1747.264      821.582        0.764        0.267       99.191       27.445        0.077      334.487        4.493      862.329
12/21/2013  18:21:00     -125.829      -44.340       -6.087       33.883       37.044       18.925     1148.091     1372.241      358.168        1.036        0.144      133.413       13.086        0.010      334.435        4.406      862.315
12/21/2013  18:22:00     -119.158      -55.327      -10.929       34.295       28.370       23.442     1176.139      804.831      549.527        0.995        0.127      131.376       14.755        0.013      334.397        4.343      862.338
12/21/2013  18:23:00     -129.418      -45.626      -18.644       23.669       25.391       12.401      560.202      644.678      153.778        1.027        0.068      137.225        8.438        0.004      334.322        4.218      862.364
12/21/2013  18:24:00     -118.673      -74.491       -5.475       21.193       26.277       17.256      449.147      690.476      297.783        1.055        0.072      140.115       14.106        0.010      334.298        4.180      862.385
12/21/2013  18:25:00      -37.558      -37.795        9.131       48.941       28.031       24.913     2395.192      785.723      620.674        0.336        0.190       53.283       25.556        0.230      334.345        4.258      862.421
12/21/2013  18:26:00      -79.935      -41.650       -9.189       21.010       11.845       13.773      441.429      140.305      189.686        0.449        0.039       90.135        8.618        0.009      334.305        4.190      862.438
12/21/2013  18:27:00      -86.198      -45.429      -15.294       20.355       17.707       16.019      414.334      313.550      256.604        0.536        0.049       97.436        7.716        0.006      334.328        4.228      862.445
12/21/2013  18:28:00      -84.895      -42.976       -6.199       33.675       22.476       20.748     1134.018      505.161      430.500        0.558        0.103       95.153       16.223        0.029      334.335        4.240      862.455
12/21/2013  18:29:00     -128.601      -51.085       -6.344       44.712       22.612       19.582     1999.144      511.310      383.453        1.104        0.145      138.376       21.092        0.023      334.335        4.241      862.473
12/21/2013  18:30:00     -100.766      -82.926        0.153       52.170       41.325       28.230     2721.676     1707.778      796.949        1.113        0.261      130.501       27.307        0.044      334.400        4.348      862.485
12/21/2013  18:31:00     -128.184     -110.751      -13.093       42.226       32.623       23.228     1783.041     1064.246      539.531        1.613        0.169      169.402       14.171        0.007      334.556        4.606      862.490
12/21/2013  18:32:00     -129.516      -70.347       -0.781       44.621       41.745       29.497     1991.045     1742.609      870.051        1.316        0.230      147.387       21.650        0.022      334.550        4.596      862.523
12/21/2013  18:33:00     -123.011      -54.687       -7.009       28.334       31.258       20.500      802.817      977.067      420.233        1.019        0.110      134.619       15.280        0.013      334.408        4.362      862.560
12/21/2013  18:34:00      -88.737      -49.108       -2.439       41.948       29.973       19.687     1759.639      898.406      387.578        0.667        0.152      101.419       21.147        0.043      334.402        4.351      862.573
12/21/2013  18:35:00     -110.579      -39.428       -4.539       56.004       34.008       18.611     3136.479     1156.525      346.377        0.922        0.232      117.398       20.965        0.032      334.483        4.485      862.580
12/21/2013  18:36:00     -152.765      -34.050      -12.833       43.074       29.320       16.961     1855.408      859.673      287.668        1.383        0.150      156.514       20.984        0.018      334.424        4.388      862.586
12/21/2013  18:37:00     -131.839      -24.315       -7.331       40.068       27.687       19.419     1605.413      766.586      377.086        1.039        0.137      134.062       17.011        0.016      334.336        4.242      862.574
12/21/2013  18:38:00     -117.912      -21.887       -1.525       57.672       27.482       22.954     3326.031      755.258      526.905        0.950        0.230      119.926       26.842        0.050      334.324        4.222      862.576
12/21/2013  18:39:00     -115.734        4.141       -6.278       57.548       43.700       29.689     3311.770     1909.699      881.421        0.978        0.305      115.808       32.726        0.080      334.267        4.127      862.599
12/21/2013  18:40:00     -164.841       -1.758      -15.644       33.958       28.055       21.415     1153.165      787.056      458.590        1.491        0.120      164.850       17.349        0.011      334.232        4.068      862.620
12/21/2013  18:41:00     -141.257      -31.788      -10.573       38.843       58.276       21.627     1508.744     3396.147      467.749        1.322        0.269      144.789       17.013        0.014      334.171        3.967      862.639
12/21/2013  18:42:00     -158.179       -1.081      -15.341       46.082       43.802       26.456     2123.572     1918.618      699.918        1.500        0.237      158.182       24.684        0.024      334.115        3.873      862.667
12/21/2013  18:43:00     -143.120       -8.452      -14.473       61.907       55.729       35.851     3832.517     3105.743     1285.297        1.449        0.411      143.370       34.591        0.058      334.078        3.812      862.682
12/21/2013  18:44:00     -147.443      -16.834      -14.063       49.876       40.632       26.686     2487.581     1650.975      712.149        1.353        0.243      148.401       27.610        0.035      334.047        3.761      862.687
12/21/2013  18:45:00     -120.248      -20.208      -11.164       56.093       42.750       24.225     3146.370     1827.603      586.835        1.028        0.278      121.934       26.867        0.049      333.999        3.683      862.698
12/21/2013  18:46:00     -123.236      -20.177      -13.392       43.885       37.677       24.670     1925.921     1419.520      608.616        0.986        0.198      124.877       21.649        0.030      334.033        3.739      862.696
12/21/2013  18:47:00     -107.487        3.157       -7.184       42.967       43.627       26.156     1846.172     1903.283      684.150        0.802        0.222      107.533       21.598        0.040      334.098        3.845      862.704
12/21/2013  18:48:00     -106.679       -9.259       -9.545       29.388       33.288       17.799      863.672     1108.110      316.800        0.692        0.114      107.080       13.318        0.015      334.201        4.019      862.724
12/21/2013  18:49:00     -107.034      -31.341      -13.287       26.088       35.168       22.912      680.572     1236.801      524.955        0.753        0.122      111.529       10.251        0.008      334.205        4.025      862.724
12/21/2013  18:50:00      -96.211      -28.362      -14.192       29.937       27.883       23.648      896.221      777.457      559.240        0.625        0.112      100.304        5.800        0.003      334.174        3.973      862.727
12/21/2013  18:51:00     -128.498      -23.397      -16.552       25.013       20.763       16.380      625.653      431.102      268.296        0.933        0.066      130.611       11.757        0.008      333.952        3.604      862.721
12/21/2013  18:52:00     -133.382      -41.936      -14.760       30.281       29.554       19.088      916.937      873.430      364.351        1.096        0.108      139.819       14.150        0.010      333.998        3.681      862.705
12/21/2013  18:53:00      -81.181       -3.405       -5.752       42.053       25.740       24.868     1768.437      662.573      618.434        0.484        0.152       81.253       14.933        0.034      333.960        3.619      862.700
12/21/2013  18:54:00      -97.638       -9.443      -15.223       35.734       26.439       19.143     1276.933      699.000      366.444        0.610        0.117       98.094       16.080        0.027      333.913        3.540      862.703
12/21/2013  18:55:00     -121.118      -15.704      -14.655       40.439       23.018       16.356     1635.275      529.820      267.522        0.878        0.122      122.132       20.047        0.027      333.942        3.589      862.706
12/21/2013  18:56:00      -74.827      -10.348       -8.533       31.907       24.388       16.114     1018.068      594.753      259.660        0.383        0.094       75.539       11.625        0.024      334.010        3.700      862.721
12/21/2013  18:57:00      -88.492      -16.711       -9.932       30.924       29.585       14.424      956.299      875.284      208.042        0.512        0.102       90.056       12.506        0.019      333.995        3.677      862.724
12/21/2013  18:58:00      -75.208      -17.428       -6.444       37.685       26.010       15.161     1420.151      676.511      229.863        0.416        0.116       77.201       11.033        0.020      334.011        3.703      862.740
12/21/2013  18:59:00      -88.267      -40.265       -1.630       28.675       25.933       17.209      822.263      672.542      296.143        0.560        0.090       97.017       13.308        0.019      334.131        3.902      862.747
12/21/2013  19:00:00     -139.659      -56.695       -7.281       29.629       24.073       15.815      877.879      579.506      250.103        1.224        0.085      150.728       16.414        0.012      334.245        4.090      862.746
12/21/2013  19:01:00     -122.451      -72.147       -5.898       35.710       16.233       15.786     1275.220      263.518      249.202        1.101        0.089      142.125       16.773        0.014      334.263        4.121      862.764
12/21/2013  19:02:00     -108.163      -75.378       -2.543       40.188       31.291       20.450     1615.079      979.118      418.219        1.020        0.151      131.837       16.260        0.015      334.299        4.182      862.783
12/21/2013  19:03:00      -55.582      -58.225        4.478       36.183       29.788       22.810     1309.190      887.322      520.274        0.461        0.136       80.496       20.228        0.063      334.296        4.176      862.781
12/21/2013  19:04:00      -84.246      -73.980        1.967       31.264       33.467       19.939      977.458     1120.045      397.578        0.753        0.125      112.118       19.470        0.030      334.408        4.362      862.792
12/21/2013  19:05:00      -78.510      -43.072        3.751       39.195       31.680       22.879     1536.237     1003.616      523.460        0.555        0.153       89.549       15.733        0.031      334.318        4.213      862.807
12/21/2013  19:06:00     -113.395      -73.566        1.049       55.182       43.152       30.412     3045.031     1862.088      924.891        1.205        0.292      135.168       28.365        0.044      334.305        4.191      862.818
12/21/2013  19:07:00     -196.374     -133.252      -11.494       46.297       34.285       27.139     2143.446     1175.461      736.548        3.025        0.203      237.316       19.384        0.007      334.298        4.174      862.849
12/21/2013  19:08:00     -161.488      -97.489       -7.892       58.463       44.537       30.446     3417.899     1983.547      926.955        2.099        0.316      188.633       28.957        0.024      334.330        4.230      862.868
12/21/2013  19:09:00     -185.141     -122.156      -15.107       54.816       52.456       32.497     3004.752     2751.672     1056.039        2.812        0.341      221.809       28.746        0.017      334.429        4.395      862.868
12/21/2013  19:10:00      -56.486      -39.876        9.948       60.337       53.474       36.850     3640.540     2859.449     1357.914        0.637        0.393       69.144       30.717        0.197      334.364        4.290      862.881
12/21/2013  19:11:00      -78.706      -58.606       10.057       77.443       41.660       30.938     5997.472     1735.567      957.183        0.921        0.435       98.129       31.122        0.101      334.366        4.292      862.905
12/21/2013  19:12:00     -116.698      -82.527       -4.941       51.533       58.593       34.915     2655.654     3433.193     1219.023        1.388        0.365      142.930       25.749        0.032      334.391        4.331      862.920
12/21/2013  19:13:00     -119.597      -95.778       -8.659       32.664       41.695       21.390     1066.939     1738.484      457.513        1.341        0.163      153.222       16.940        0.012      334.412        4.367      862.919
12/21/2013  19:14:00      -81.472      -64.758        2.538       45.039       38.674       26.907     2028.467     1495.704      724.005        0.754        0.212      104.073       28.565        0.075      334.407        4.361      862.920
12/21/2013  19:15:00      -74.158      -48.300       -0.808       34.147       26.939       20.187     1166.005      725.718      407.525        0.507        0.115       88.500       15.469        0.031      334.417        4.376      862.924
12/21/2013  19:16:00     -105.822      -24.813       -7.932       28.269       24.877       17.521      799.118      618.888      306.991        0.680        0.086      108.692       16.668        0.024      334.443        4.420      862.922
12/21/2013  19:17:00      -88.154      -11.950      -11.956       30.959       24.006       18.953      958.434      576.309      359.199        0.498        0.095       88.960       13.773        0.024      334.395        4.340      862.938
12/21/2013  19:18:00      -74.482      -31.881       -0.779       30.455       24.183       16.943      927.505      584.812      287.066        0.418        0.090       81.019       13.929        0.030      334.320        4.215      862.935
12/21/2013  19:19:00      -98.438       -1.999       -8.399       20.219       26.138       15.033      408.801      683.201      225.997        0.554        0.066       98.458        9.755        0.010      334.282        4.153      862.937
12/21/2013  19:20:00      -85.783        6.207      -13.025       20.216       18.319       11.630      408.685      335.590      135.253        0.422        0.044       86.007        7.271        0.007      334.274        4.138      862.944
12/21/2013  19:21:00      -78.568       16.520       -6.760       25.921       18.110       15.257      671.876      327.971      232.782        0.386        0.062       80.286       12.090        0.023      334.286        4.159      862.944
12/21/2013  19:22:00      -95.601       35.594       -8.363       23.069       20.398       15.454      532.182      416.075      238.838        0.583        0.059      102.012       11.630        0.013      334.250        4.098      862.926
12/21/2013  19:23:00     -115.151       24.086      -10.169       18.747       19.371       12.612      351.466      375.247      159.060        0.741        0.044      117.643        5.226        0.002      334.267        4.129      862.900
12/21/2013  19:24:00      -96.140      -13.792      -16.278       18.615       18.020       12.701      346.516      324.719      161.315        0.527        0.042       97.124        7.300        0.006      334.112        3.870      862.867
12/21/2013  19:25:00      -90.009      -17.466      -16.558       20.348       20.347       12.921      414.028      414.001      166.945        0.484        0.050       91.688        9.292        0.010      334.045        3.760      862.859
12/21/2013  19:26:00      -96.055      -19.187       -7.626       24.167       22.783       16.021      584.064      519.075      256.663        0.551        0.068       97.953       11.205        0.013      334.142        3.920      862.874
12/21/2013  19:27:00      -89.542        9.699      -14.366       36.852       28.262       20.067     1358.089      798.734      402.692        0.544        0.128       90.066       13.459        0.022      334.303        4.186      862.893
12/21/2013  19:28:00      -92.052       20.936      -13.132       43.158       30.741       17.763     1862.643      945.010      315.507        0.610        0.156       94.403       17.986        0.036      334.356        4.276      862.903
12/21/2013  19:29:00      -76.138      -10.793       -5.045       34.810       16.660       13.220     1211.764      277.549      174.775        0.380        0.083       76.899       16.296        0.045      334.217        4.046      862.914
12/21/2013  19:30:00      -59.528      -13.697      -14.033       14.203       13.866       13.370      201.718      192.254      178.757        0.225        0.029       61.083        9.928        0.026      334.124        3.888      862.934
12/21/2013  19:31:00      -72.678      -41.168       -6.218       19.283       16.648       14.908      371.850      277.155      222.237        0.394        0.044       83.528        7.454        0.008      334.025        3.727      862.958
12/21/2013  19:32:00       -8.482      -39.474       -5.207       26.831       13.276       13.157      719.919      176.248      173.098        0.136        0.053       40.375        5.680        0.020      334.196        4.010      862.988
12/21/2013  19:33:00      -39.620      -16.988      -19.549       29.303       22.768       18.760      858.683      518.371      351.922        0.198        0.086       43.108       13.180        0.093      334.191        4.002      863.021
12/21/2013  19:34:00       18.118       39.511       45.785       30.979       26.627       23.959      959.688      708.986      574.040        0.311        0.112       43.468       21.874        0.253      333.951        3.604      863.041
12/21/2013  19:35:00       -2.066        5.291        4.664        9.330       13.346        5.873       87.052      178.111       34.495        0.018        0.015        5.680        1.293        0.052      333.986        3.659      863.060
12/21/2013  19:36:00       -9.695      -21.517        2.909        9.214       19.553        7.336       84.892      382.327       53.810        0.054        0.026       23.601        3.808        0.026      334.338        4.246      863.081
12/21/2013  19:37:00      -11.436       -7.040        3.004       23.336       19.491       15.161      544.588      379.893      229.853        0.067        0.058       13.429       13.348        0.988      334.021        3.719      863.098
12/21/2013  19:38:00      -30.733      -39.362        2.954       37.926       26.831       14.947     1438.410      719.924      223.414        0.244        0.119       49.939       10.696        0.046      334.006        3.695      863.112
12/21/2013  19:39:00      -87.141      -50.818       -1.632       37.489       36.779       22.337     1405.452     1352.704      498.929        0.672        0.163      100.876       14.972        0.022      334.002        3.687      863.118
12/21/2013  19:40:00      -99.208      -59.318       -7.293       28.311       22.077       16.573      801.508      487.394      274.661        0.749        0.078      115.589        8.263        0.005      334.143        3.920      863.120
12/21/2013  19:41:00     -103.734      -58.226        1.393       52.741       38.864       20.427     2781.564     1510.379      417.267        0.943        0.235      118.958       17.707        0.022      333.997        3.680      863.118
12/21/2013  19:42:00      -82.832      -39.481        5.024       44.599       32.086       22.923     1989.084     1029.515      525.471        0.599        0.177       91.760       24.430        0.071      333.966        3.628      863.114
12/21/2013  19:43:00      -95.003      -41.310       -6.499       26.476       23.244       16.382      700.978      540.294      268.382        0.614        0.075      103.596       17.225        0.028      333.930        3.570      863.120
12/21/2013  19:44:00      -84.064      -34.092       -0.387       27.215       31.850       16.228      740.658     1014.410      263.340        0.512        0.101       90.714       13.811        0.023      333.957        3.614      863.122
12/21/2013  19:45:00      -47.362      -57.157       -4.881       32.158       43.837       21.906     1034.151     1921.681      479.888        0.448        0.172       74.230       26.347        0.126      334.053        3.772      863.123
12/21/2013  19:46:00     -109.229       -8.759      -12.505       28.476       23.372       16.908      810.858      546.273      285.871        0.690        0.082      109.580       16.808        0.024      333.919        3.551      863.126
12/21/2013  19:47:00      -99.078      -23.120       -2.460       36.896       25.768       21.029     1361.292      663.973      442.230        0.641        0.123      101.740       19.127        0.035      333.821        3.386      863.128
12/21/2013  19:48:00     -126.682      -33.366       -0.962       25.688       24.131       15.636      659.879      582.294      244.496        0.932        0.074      131.003       14.295        0.012      333.860        3.451      863.120
12/21/2013  19:49:00      -74.184      -28.517        5.830       32.116       21.928       18.130     1031.461      480.854      328.715        0.410        0.092       79.477       19.733        0.062      333.871        3.470      863.111
12/21/2013  19:50:00     -106.993      -26.971      -12.535       17.673       17.554       10.472      312.342      308.138      109.658        0.653        0.037      110.340        7.122        0.004      333.930        3.569      863.123
12/21/2013  19:51:00     -102.057      -23.533       -5.433       29.065       23.482       15.316      844.762      551.418      234.592        0.631        0.082      104.735       14.659        0.020      333.849        3.434      863.141
12/21/2013  19:52:00     -107.992      -30.993       -4.613       33.930       30.510       22.089     1151.278      930.844      487.920        0.761        0.129      112.351       19.988        0.032      333.744        3.260      863.160
12/21/2013  19:53:00      -96.879      -16.390       -3.167       45.274       35.044       19.582     2049.752     1228.061      383.454        0.666        0.183       98.255       22.307        0.052      333.713        3.207      863.181
12/21/2013  19:54:00     -125.710       -1.119      -10.364       58.717       41.022       20.417     3447.713     1682.770      416.858        1.073        0.277      125.715       21.486        0.029      333.672        3.140      863.194
12/21/2013  19:55:00     -163.802       25.562      -12.951       43.534       37.447       22.978     1895.214     1402.303      527.978        1.574        0.191      165.785       19.701        0.014      333.667        3.131      863.206
12/21/2013  19:56:00     -188.461       42.239       -9.671       37.467       27.784       15.445     1403.810      771.927      238.537        1.990        0.121      193.136       16.867        0.008      333.677        3.148      863.204
12/21/2013  19:57:00     -175.139        6.294      -18.666       47.394       32.977       26.583     2246.239     1087.491      706.670        1.755        0.202      175.252       26.774        0.023      333.628        3.066      863.214
12/21/2013  19:58:00     -102.337      -22.314      -12.236       54.412       48.260       25.033     2960.629     2328.984      626.675        0.852        0.296      104.742       17.435        0.028      333.555        2.947      863.228
12/21/2013  19:59:00     -149.809       12.266      -13.082       63.657       41.297       27.733     4052.254     1705.407      769.137        1.464        0.326      150.310       27.733        0.034      333.529        2.901      863.256
12/21/2013  20:00:00     -197.419       35.489      -16.558       42.726       35.932       21.768     1825.530     1291.106      473.840        2.205        0.180      200.584       15.370        0.006      333.487        2.830      863.294
12/21/2013  20:01:00     -195.616       34.624      -19.139       58.037       50.882       28.273     3368.344     2588.954      799.353        2.329        0.338      198.656       22.131        0.012      333.434        2.744      863.335
12/21/2013  20:02:00     -179.187       31.435      -22.956       47.003       44.841       29.900     2209.270     2010.754      894.014        1.937        0.256      181.924       24.543        0.018      333.386        2.665      863.380
12/21/2013  20:03:00     -108.864      -11.168       -5.028       63.844       59.763       42.499     4076.090     3571.589     1806.206        1.073        0.473      109.435       39.216        0.128      333.390        2.673      863.394
12/21/2013  20:04:00      -57.657       16.929       -5.155       35.211       49.335       23.669     1239.829     2433.952      560.226        0.394        0.212       60.091       16.820        0.078      333.356        2.618      863.388
12/21/2013  20:05:00     -122.005       22.116      -23.499       42.927       46.370       27.685     1842.706     2150.214      766.466        1.034        0.238      123.993       16.823        0.018      333.338        2.588      863.384
12/21/2013  20:06:00      -88.710       -0.228       -8.211       48.143       32.493       24.223     2317.785     1055.822      586.762        0.595        0.198       88.711       14.120        0.025      333.348        2.604      863.388
12/21/2013  20:07:00     -137.276        5.665      -18.839       41.323       39.860       23.793     1707.567     1588.787      566.111        1.155        0.193      137.392       20.127        0.021      333.374        2.647      863.396
12/21/2013  20:08:00      -87.315       -7.828       -4.250       40.621       42.102       24.800     1650.049     1772.537      615.019        0.587        0.202       87.665       21.582        0.061      333.435        2.749      863.419
12/21/2013  20:09:00      -95.152      -18.538      -12.154       33.459       39.355       22.179     1119.508     1548.806      491.928        0.635        0.158       96.942       14.073        0.021      333.500        2.855      863.455
12/21/2013  20:10:00      -84.839       -0.216       -6.228       46.377       31.956       25.188     2150.780     1021.172      634.427        0.552        0.190       84.839       24.318        0.082      333.589        3.004      863.497
12/21/2013  20:11:00     -124.283       26.649      -12.397       61.059       32.542       22.456     3728.158     1059.004      504.276        1.080        0.265      127.108       19.311        0.023      333.802        3.356      863.513
12/21/2013  20:12:00     -148.485       16.848      -13.348       35.948       35.007       21.586     1292.257     1225.518      465.938        1.275        0.149      149.438       19.347        0.017      333.839        3.416      863.546
12/21/2013  20:13:00     -100.182      -18.201      -10.389       38.836       31.420       18.686     1508.214      987.204      349.164        0.666        0.142      101.822       17.966        0.031      333.689        3.167      863.580
12/21/2013  20:14:00      -74.747       -8.512       -4.641       37.129       31.967       18.780     1378.527     1021.917      352.692        0.422        0.138       75.231       18.978        0.064      333.722        3.223      863.606
12/21/2013  20:15:00      -45.402      -24.785       -0.870       34.465       27.770       14.425     1187.847      771.181      208.076        0.242        0.108       51.727       15.766        0.093      333.608        3.035      863.626
12/21/2013  20:16:00      -77.123      -25.677       -4.731       15.998       16.677       13.293      255.927      278.114      176.714        0.367        0.036       81.285       11.427        0.020      333.575        2.979      863.648
12/21/2013  20:17:00      -89.662      -37.770       -3.659       13.063       19.728        7.793      170.640      389.194       60.735        0.505        0.031       97.293        5.854        0.004      333.612        3.040      863.654
12/21/2013  20:18:00     -101.754      -35.574       -1.684       16.630       17.422       11.180      276.548      303.512      124.982        0.616        0.035      107.793        6.826        0.004      333.761        3.289      863.667
12/21/2013  20:19:00      -92.354      -52.097       -0.904       30.451       18.808       14.586      927.292      353.744      212.757        0.637        0.075      106.035       14.298        0.018      333.800        3.353      863.692
12/21/2013  20:20:00      -52.628      -40.146       -1.231       28.094       19.694       12.218      789.253      387.853      149.279        0.285        0.066       66.193        9.886        0.022      333.837        3.413      863.720
12/21/2013  20:21:00      -13.682       -6.284        5.512       21.637       11.712       11.736      468.154      137.171      137.736        0.050        0.037       15.056        9.585        0.405      333.806        3.364      863.725
12/21/2013  20:22:00      -41.971       -5.148       -2.085       16.619        7.781        6.840      276.200       60.543       46.784        0.109        0.019       42.285        5.388        0.016      333.735        3.245      863.724
12/21/2013  20:23:00      -40.499        2.416        2.186       15.211       10.271        9.165      231.373      105.503       84.003        0.104        0.021       40.571        8.541        0.044      333.687        3.165      863.709
12/21/2013  20:24:00      -49.296       -0.055       -3.258       16.649        9.013        7.995      277.205       81.232       63.914        0.143        0.021       49.296        6.761        0.019      333.668        3.134      863.702
12/21/2013  20:25:00      -64.124      -23.067      -10.693       11.268        7.763        8.948      126.978       60.260       80.060        0.251        0.013       68.146        7.264        0.011      333.715        3.212      863.695
12/21/2013  20:26:00      -52.036      -24.269       -8.120        7.390        8.513        5.353       54.610       72.469       28.650        0.176        0.008       57.417        3.011        0.003      333.726        3.230      863.705
12/21/2013  20:27:00      -63.263      -36.993       -9.037       17.829       10.082        6.861      317.881      101.641       47.075        0.296        0.023       73.284        6.972        0.009      333.693        3.174      863.728
12/21/2013  20:28:00     -112.951      -23.947       -6.507       16.514       20.342       11.438      272.717      413.808      130.827        0.710        0.041      115.462        9.414        0.007      333.455        2.782      863.749
12/21/2013  20:29:00      -78.271      -43.028      -12.624       32.812       20.811       12.941     1076.618      433.101      167.462        0.491        0.084       89.318        8.232        0.008      333.254        2.447      863.758
12/21/2013  20:30:00      -67.866      -33.652      -13.679       21.438       14.052       10.468      459.597      197.458      109.571        0.335        0.038       75.751        6.851        0.008      333.308        2.536      863.750
12/21/2013  20:31:00      -73.408      -29.119       -6.693       23.127       14.557       14.680      534.869      211.913      215.515        0.362        0.048       78.972       14.935        0.036      333.341        2.592      863.750
12/21/2013  20:32:00      -56.345       -3.122        3.019       26.079       19.441       13.649      680.110      377.962      186.291        0.222        0.062       56.431       14.183        0.063      333.314        2.548      863.770
12/21/2013  20:33:00      -13.907        7.603        3.349       16.247       12.443       10.576      263.971      154.840      111.850        0.040        0.027       15.850       10.987        0.481      333.247        2.436      863.791
12/21/2013  20:34:00      -67.855      -35.062       -8.384       34.546       14.559       12.329     1193.426      211.970      152.005        0.373        0.078       76.378       12.268        0.026      333.311        2.542      863.806
12/21/2013  20:35:00        1.283      -24.526        8.703       17.500       15.821       14.714      306.253      250.306      216.516        0.073        0.039       24.560       12.893        0.276      333.322        2.560      863.824
12/21/2013  20:36:00       -0.454       -2.168       14.563       12.095        8.018        5.140      146.280       64.295       26.421        0.023        0.012        2.215        4.425        3.991      333.335        2.580      863.835
12/21/2013  20:37:00       13.238       37.731       34.142       13.627       16.454       13.039      185.685      270.723      170.024        0.170        0.031       39.986       11.186        0.078      333.224        2.398      863.847
12/21/2013  20:38:00       24.214       17.948       21.370       15.061       25.536       15.493      226.847      652.077      240.029        0.124        0.056       30.141       15.889        0.278      333.316        2.550      863.866
12/21/2013  20:39:00       -2.475      -15.631        7.375       15.585       22.084       14.849      242.905      487.685      220.495        0.063        0.048       15.825       12.378        0.612      333.393        2.678      863.876
12/21/2013  20:40:00      -68.969      -26.040        0.621       26.219       18.167       12.655      687.455      330.024      160.149        0.331        0.059       73.721        6.408        0.008      333.393        2.679      863.883
12/21/2013  20:41:00      -66.417      -39.533       -3.279       21.860       15.768       13.744      477.851      248.637      188.905        0.345        0.046       77.292        5.711        0.005      333.251        2.442      863.898
12/21/2013  20:42:00      -78.187      -53.559       -1.454       20.482       17.637       15.206      419.527      311.062      231.218        0.497        0.048       94.772       11.205        0.014      333.164        2.300      863.923
12/21/2013  20:43:00     -101.989      -54.555      -11.579       22.321       16.251       13.634      498.227      264.092      185.889        0.723        0.047      115.663       13.089        0.013      333.308        2.536      863.956
12/21/2013  20:44:00      -87.394      -34.441       -3.942       28.022       20.398       15.018      785.226      416.068      225.527        0.513        0.071       93.936       11.674        0.015      333.261        2.460      863.987
12/21/2013  20:45:00      -79.677      -34.570        2.948       24.344       21.020       13.364      592.617      441.854      178.603        0.438        0.061       86.853        9.609        0.012      333.345        2.598      864.016
12/21/2013  20:46:00      -92.578      -24.397       -6.335       16.936       14.560       12.525      286.821      211.995      156.871        0.493        0.033       95.738        8.768        0.008      333.511        2.872      864.038
12/21/2013  20:47:00      -86.128      -22.520        2.105       22.395       18.004       16.567      501.551      324.128      274.467        0.451        0.055       89.024       14.129        0.025      333.369        2.638      864.049
12/21/2013  20:48:00     -105.133      -45.504        2.238       23.200       21.019       11.851      538.238      441.805      140.452        0.712        0.056      114.558       11.714        0.010      333.463        2.794      864.052
12/21/2013  20:49:00      -86.543      -56.231       -0.654       25.896       18.405       13.563      670.614      338.740      183.965        0.592        0.060      103.207       10.698        0.011      333.396        2.683      864.053
12/21/2013  20:50:00      -48.957      -28.329        3.300       27.056       24.643       18.193      732.039      607.263      330.973        0.244        0.084       56.562       18.349        0.105      333.274        2.482      864.050
12/21/2013  20:51:00      -32.487      -27.555        2.136       22.292       20.189       17.920      496.917      407.613      321.109        0.152        0.061       42.599       11.731        0.076      333.389        2.671      864.051
12/21/2013  20:52:00      -38.987      -27.130        1.853       25.179       18.241       13.653      633.973      332.719      186.401        0.171        0.058       47.498       11.025        0.054      333.296        2.516      864.054
12/21/2013  20:53:00      -28.261      -22.806        0.213       25.460       18.083       10.654      648.215      327.006      113.514        0.120        0.054       36.315        9.916        0.075      333.246        2.433      864.064
12/21/2013  20:54:00      -75.459      -41.939       -0.528       38.063       22.020       19.099     1448.797      484.890      364.782        0.488        0.115       86.331       19.379        0.050      333.213        2.381      864.088
12/21/2013  20:55:00      -54.962      -42.792        5.319       28.807       22.446       13.396      829.866      503.832      179.462        0.320        0.076       69.656        9.575        0.019      333.178        2.321      864.108
12/21/2013  20:56:00      -74.222      -21.779       -1.760       23.161       24.188       15.187      536.453      585.078      230.654        0.367        0.068       77.351       14.349        0.034      333.224        2.398      864.122
12/21/2013  20:57:00      -83.879       -8.443        0.187       30.197       23.625       13.418      911.846      558.135      180.031        0.438        0.083       84.303       10.360        0.015      333.214        2.381      864.131
12/21/2013  20:58:00     -103.831      -28.656      -10.362       21.032       18.463       14.386      442.350      340.867      206.963        0.635        0.050      107.713       10.402        0.009      333.207        2.370      864.130
12/21/2013  20:59:00      -88.512      -40.187       -0.287       22.091       19.592       13.754      488.001      383.831      189.160        0.526        0.053       97.208       13.811        0.020      333.138        2.255      864.116
12/21/2013  21:00:00      -62.383      -53.231        0.990       37.064       24.044       20.268     1373.729      578.125      410.774        0.454        0.118       82.007       18.597        0.051      333.090        2.177      864.102
12/21/2013  21:01:00      -96.779      -73.389        4.561       63.389       37.380       27.883     4018.136     1397.272      777.485        1.048        0.310      121.458       28.390        0.055      333.109        2.208      864.102
12/21/2013  21:02:00     -149.608      -52.718       -4.870       22.275       25.243       14.921      496.184      637.187      222.650        1.327        0.068      158.625        6.996        0.002      333.074        2.151      864.102
12/21/2013  21:03:00     -135.213      -33.719       -1.433       28.167       20.953       15.825      793.399      439.022      250.430        1.045        0.074      139.354       14.580        0.011      333.064        2.135      864.112
12/21/2013  21:04:00     -100.667      -39.170        2.367       44.821       35.059       18.973     2008.959     1229.123      359.968        0.764        0.180      108.020       21.142        0.038      333.068        2.142      864.119
12/21/2013  21:05:00     -142.330      -29.163       -0.237       32.724       23.449       19.810     1070.890      549.874      392.431        1.156        0.101      145.286       18.279        0.016      333.012        2.049      864.129
12/21/2013  21:06:00     -139.701      -38.369        0.767       32.249       21.690       15.280     1040.015      470.435      233.487        1.137        0.087      144.874       14.946        0.011      332.965        1.971      864.134
12/21/2013  21:07:00     -132.703      -37.521       -0.909       34.552       29.353       19.894     1193.842      861.593      395.783        1.073        0.123      137.905       16.053        0.014      332.861        1.801      864.143
12/21/2013  21:08:00     -126.327      -45.624        0.328       36.326       29.073       18.430     1319.557      845.235      339.677        1.027        0.125      134.314       15.075        0.013      332.850        1.781      864.157
12/21/2013  21:09:00     -128.277      -62.897       -0.249       25.434       23.770       19.026      646.884      565.008      361.976        1.099        0.079      142.867       13.950        0.010      332.824        1.738      864.173
12/21/2013  21:10:00     -120.690      -50.733       -3.451       21.784       21.007       15.971      474.538      441.278      255.080        0.916        0.059      130.919       12.333        0.009      332.826        1.742      864.192
12/21/2013  21:11:00     -103.071      -38.501       -1.751       40.141       20.462       18.641     1611.329      418.705      347.479        0.724        0.119      110.027       19.529        0.032      332.814        1.721      864.208
12/21/2013  21:12:00     -100.894      -45.289        5.336       45.609       33.739       20.536     2080.209     1138.347      421.731        0.795        0.182      110.593       22.578        0.042      332.859        1.798      864.202
12/21/2013  21:13:00     -157.402      -48.370       -2.723       33.462       28.978       21.688     1119.710      839.726      470.360        1.478        0.121      164.667       14.587        0.008      332.872        1.818      864.184
12/21/2013  21:14:00     -132.350      -40.955        2.035       36.309       25.351       18.912     1318.360      642.693      357.677        1.076        0.116      138.542       20.094        0.021      332.866        1.808      864.165
12/21/2013  21:15:00     -129.279      -33.841        1.588       30.681       24.426       15.439      941.328      596.617      238.371        0.982        0.089      133.635       15.668        0.014      332.881        1.832      864.180
12/21/2013  21:16:00     -134.889      -31.968       -8.449       29.017       16.605       15.243      841.973      275.734      232.344        1.032        0.068      138.626       14.423        0.011      332.907        1.876      864.201
12/21/2013  21:17:00     -114.698      -26.483      -13.620       18.422       23.722       12.080      339.379      562.717      145.936        0.755        0.052      117.716       11.002        0.009      332.941        1.931      864.219
12/21/2013  21:18:00      -87.277      -16.267       -6.970       17.488       14.973       11.402      305.833      224.199      130.001        0.430        0.033       88.780        9.321        0.011      332.945        1.937      864.223
12/21/2013  21:19:00      -93.025      -31.124      -11.682       10.148        8.710        6.882      102.984       75.861       47.357        0.499        0.011       98.093        3.953        0.002      332.860        1.798      864.222
12/21/2013  21:20:00      -97.028      -32.982      -10.623       13.689       13.871       10.409      187.383      192.397      108.339        0.555        0.024      102.480        8.727        0.007      332.840        1.765      864.216
12/21/2013  21:21:00      -87.120      -43.121      -15.655       16.500       15.625        9.985      272.242      244.141       99.709        0.516        0.031       97.208        7.940        0.007      332.812        1.719      864.196
12/21/2013  21:22:00      -87.394      -67.791      -13.914       25.064       17.962       12.344      628.226      322.618      152.363        0.676        0.055      110.605        5.060        0.002      332.866        1.807      864.169
12/21/2013  21:23:00     -122.141      -83.292       -4.634       23.704       25.428       18.863      561.869      646.573      355.800        1.172        0.078      147.838       14.278        0.009      332.856        1.792      864.141
12/21/2013  21:24:00     -103.213      -29.970       -9.448       24.252       14.012       14.427      588.155      196.336      208.146        0.632        0.050      107.476       14.545        0.018      332.827        1.743      864.121
12/21/2013  21:25:00      -68.267      -44.581        2.036       27.783       25.203       20.085      771.875      635.170      403.408        0.423        0.091       81.534       14.521        0.032      332.792        1.686      864.106
12/21/2013  21:26:00      -86.501      -48.146        0.484       35.374       22.712       16.739     1251.318      515.834      280.210        0.592        0.102       98.997       13.883        0.020      332.765        1.640      864.096
12/21/2013  21:27:00      -91.301      -63.332        3.472       61.552       41.302       24.160     3788.701     1705.817      583.687        0.922        0.304      111.116       19.788        0.032      332.797        1.694      864.086
12/21/2013  21:28:00     -177.407     -101.960       -4.572       64.845       44.703       33.586     4204.871     1998.362     1128.000        2.461        0.367      204.619       36.811        0.032      333.006        2.038      864.087
12/21/2013  21:29:00     -164.081      -88.655        2.198       51.566       43.235       30.382     2659.056     1869.251      923.040        2.012        0.273      186.500       23.286        0.016      332.912        1.882      864.075
12/21/2013  21:30:00     -149.002      -83.979       -0.966       44.013       46.560       28.629     1937.127     2167.856      819.619        1.709        0.246      171.038       27.571        0.026      332.910        1.879      864.049
12/21/2013  21:31:00     -183.615      -72.157       -6.468       33.861       30.367       23.830     1146.583      922.143      567.872        2.080        0.132      197.284       14.798        0.006      333.024        2.067      864.032
12/21/2013  21:32:00     -137.432      -54.965       -5.661       51.025       38.895       19.720     2603.501     1512.786      388.886        1.322        0.225      148.016       19.271        0.017      332.980        1.995      864.036
12/21/2013  21:33:00     -110.400      -35.884        2.154       45.695       30.531       23.655     2088.030      932.149      559.538        0.853        0.179      116.086       24.567        0.045      332.959        1.960      864.049
12/21/2013  21:34:00     -118.579      -27.005        2.299       61.440       36.154       28.370     3774.867     1307.132      804.881        1.034        0.294      121.615       30.364        0.062      332.997        2.024      864.064
12/21/2013  21:35:00     -131.883      -49.646       -1.302       35.732       35.684       20.753     1276.793     1273.360      430.675        1.142        0.149      140.918       15.630        0.012      333.010        2.044      864.106
12/21/2013  21:36:00     -120.349      -25.524       -6.388       34.283       31.769       20.738     1175.344     1009.294      430.055        0.889        0.131      123.026       20.784        0.029      332.954        1.952      864.144
12/21/2013  21:37:00     -112.321      -30.278       -7.685       25.550       24.617       18.285      652.804      605.980      334.335        0.759        0.080      116.331       15.374        0.017      332.869        1.813      864.149
12/21/2013  21:38:00     -130.529      -39.870       -3.201       29.425       27.965       21.486      865.813      782.049      461.652        1.037        0.105      136.482       16.045        0.014      332.805        1.708      864.139
12/21/2013  21:39:00     -143.930      -57.397        4.205       40.443       26.458       20.426     1635.661      700.050      417.241        1.339        0.138      154.952       22.301        0.021      332.763        1.638      864.138
12/21/2013  21:40:00     -146.584      -41.097        4.402       34.797       29.152       19.902     1210.853      849.815      396.074        1.283        0.123      152.236       18.398        0.015      332.811        1.718      864.150
12/21/2013  21:41:00     -123.616      -58.765        7.145       43.656       29.619       20.979     1905.876      877.309      440.098        1.100        0.161      136.873       21.818        0.025      332.752        1.620      864.161
12/21/2013  21:42:00     -128.033      -68.990        4.292       37.702       31.062       18.408     1421.437      964.849      338.849        1.195        0.136      145.438       19.259        0.018      332.738        1.597      864.163
12/21/2013  21:43:00     -127.176      -31.487        2.531       26.339       21.478       15.979      693.741      461.303      255.337        0.929        0.071      131.016       13.625        0.011      332.663        1.471      864.165
12/21/2013  21:44:00     -108.785      -56.447        0.272       17.105       21.708       13.688      292.595      471.246      187.371        0.799        0.048      122.559       10.568        0.007      332.723        1.572      864.185
12/21/2013  21:45:00     -122.421      -37.028       -7.077       18.724       17.595        8.972      350.601      309.579       80.498        0.857        0.037      127.898        5.848        0.002      332.680        1.500      864.195
12/21/2013  21:46:00     -103.710      -26.553       -7.617       24.957       27.105       16.807      622.845      734.663      282.486        0.658        0.082      107.055       10.858        0.010      332.572        1.320      864.198
12/21/2013  21:47:00     -122.940      -41.462       -4.673       23.481       17.354       14.147      551.350      301.154      200.139        0.895        0.053      129.743        9.634        0.006      332.664        1.474      864.194
12/21/2013  21:48:00     -111.269      -41.116       -4.080       17.832       15.768       13.180      317.987      248.640      173.715        0.741        0.037      118.622        9.218        0.006      332.680        1.499      864.184
12/21/2013  21:49:00      -86.356      -42.442       -2.193       16.947       15.839       12.115      287.216      250.870      146.776        0.497        0.034       96.222       11.343        0.014      332.746        1.610      864.160
12/21/2013  21:50:00      -95.209      -42.092       -4.561       14.200       13.322       11.777      201.649      177.489      138.706        0.569        0.026      104.099        7.835        0.006      332.800        1.700      864.141
12/21/2013  21:51:00      -83.844      -23.783       -5.293       10.770       11.742        8.721      115.988      137.872       76.063        0.398        0.016       87.152        5.303        0.004      332.787        1.679      864.120
12/21/2013  21:52:00      -80.903      -22.532       -3.886       10.450       12.799        7.295      109.199      163.819       53.212        0.370        0.016       83.982        5.032        0.004      332.791        1.685      864.106
12/21/2013  21:53:00      -80.787      -45.452       -7.535       20.073       13.356       13.146      402.939      178.372      172.828        0.470        0.038       92.695        6.037        0.004      332.703        1.537      864.099
12/21/2013  21:54:00      -80.024      -48.892       -2.292       24.733       20.042       16.831      611.723      401.692      283.271        0.505        0.065       93.778       14.105        0.023      332.623        1.406      864.103
12/21/2013  21:55:00     -108.173      -55.154       -0.505       21.487       20.500       14.199      461.673      420.242      201.610        0.791        0.054      121.423        9.173        0.006      332.615        1.393      864.110
12/21/2013  21:56:00     -116.124      -41.050       -4.848       32.393       26.253       17.356     1049.317      689.246      301.232        0.862        0.102      123.166       16.524        0.018      332.611        1.385      864.115
12/21/2013  21:57:00     -107.578      -51.533        0.863       32.901       22.506       14.622     1082.487      506.506      213.795        0.802        0.090      119.284       13.188        0.012      332.541        1.269      864.131
12/21/2013  21:58:00     -104.159      -41.048       -0.674       34.634       23.052       17.147     1199.544      531.393      294.018        0.728        0.101      111.955       17.442        0.024      332.495        1.195      864.152
12/21/2013  21:59:00     -102.190      -52.060        5.224       26.617       25.480       15.988      708.470      649.251      255.622        0.740        0.081      114.687       11.039        0.009      332.561        1.303      864.181
12/21/2013  22:00:00      -76.318      -51.615        3.866       32.375       25.344       19.665     1048.153      642.331      386.729        0.529        0.104       92.133       16.034        0.030      332.646        1.442      864.202
12/21/2013  22:01:00      -33.930      -31.183       10.205       30.749       27.568       14.964      945.494      759.998      223.930        0.208        0.096       46.083       14.541        0.100      332.671        1.486      864.226
12/21/2013  22:02:00       -9.543      -20.895        5.696       22.604       23.005       12.307      510.928      529.210      151.467        0.088        0.060       22.971       14.486        0.398      332.701        1.534      864.269
12/21/2013  22:03:00       10.352       -8.956       17.183       11.472        9.573        7.415      131.599       91.639       54.979        0.038        0.014       13.688        7.096        0.269      332.709        1.547      864.325
12/21/2013  22:04:00      -19.188        2.036        4.263       19.162       12.677        8.121      367.195      160.701       65.957        0.049        0.030       19.295       10.716        0.308      332.703        1.540      864.369
12/21/2013  22:05:00      -52.250      -16.844       -0.060       23.822       13.903        9.902      567.503      193.289       98.048        0.194        0.043       54.898       11.228        0.042      332.755        1.626      864.393
12/21/2013  22:06:00      -71.341      -31.445       -2.304       22.631       14.719       10.253      512.142      216.636      105.121        0.346        0.042       77.964       10.019        0.017      332.752        1.618      864.412
12/21/2013  22:07:00     -110.760      -52.550       -2.810       19.608       17.254       11.988      384.486      297.685      143.710        0.793        0.041      122.594        8.511        0.005      332.745        1.608      864.424
12/21/2013  22:08:00      -93.938      -48.318        0.627       32.640       20.074       14.047     1065.357      402.956      197.305        0.641        0.083      105.636       14.430        0.019      332.742        1.603      864.428
12/21/2013  22:09:00      -70.184      -37.223        9.549       33.788       26.857       16.794     1141.653      721.301      282.031        0.427        0.107       79.444       14.299        0.032      332.743        1.604      864.420
12/21/2013  22:10:00     -127.687      -42.528       -0.439       32.331       28.866       16.301     1045.325      833.245      265.710        1.013        0.107      134.583       10.979        0.007      332.690        1.517      864.409
12/21/2013  22:11:00      -93.613      -47.775        6.001       45.485       27.761       22.036     2068.846      770.662      485.584        0.720        0.166      105.099       19.419        0.034      332.702        1.538      864.380
12/21/2013  22:12:00     -126.082      -52.786        1.515       37.722       27.606       23.079     1422.980      762.073      532.618        1.070        0.136      136.686       22.267        0.027      332.625        1.410      864.349
12/21/2013  22:13:00      -76.289      -43.977        4.005       41.821       21.868       17.155     1749.003      478.209      294.305        0.515        0.126       88.057       12.475        0.020      332.725        1.575      864.326
12/21/2013  22:14:00     -101.797      -29.775        1.110       33.232       28.149       15.264     1104.345      792.393      233.004        0.669        0.106      106.062       14.646        0.019      332.726        1.576      864.337
12/21/2013  22:15:00      -94.285       -6.966       -9.165       15.029       15.293        8.884      225.868      233.878       78.922        0.478        0.027       94.542        6.430        0.005      332.613        1.388      864.361
12/21/2013  22:16:00     -117.025      -13.404      -14.743       28.360       17.662       10.634      804.287      311.953      113.083        0.766        0.061      117.790       11.446        0.009      332.567        1.312      864.398
12/21/2013  22:17:00      -89.006       -4.629       -7.811       23.412       14.380       14.825      548.116      206.773      219.794        0.449        0.049       89.126       12.684        0.020      332.497        1.198      864.438
12/21/2013  22:18:00      -85.879        8.273      -12.106        8.523       10.178        7.728       72.644      103.599       59.718        0.391        0.012       86.276        4.526        0.003      332.546        1.279      864.471
12/21/2013  22:19:00     -101.753        2.722      -10.764       17.296       13.825        8.413      299.135      191.120       70.771        0.552        0.028      101.789        3.264        0.001      332.578        1.332      864.518
12/21/2013  22:20:00     -102.240      -52.974       -8.649       28.744       17.779       14.281      826.239      316.089      203.951        0.734        0.067      115.149        7.761        0.005      332.501        1.203      864.568
12/21/2013  22:21:00      -96.468      -54.687       -6.965       20.631       21.074       12.058      425.623      444.128      145.388        0.668        0.051      110.891       11.588        0.011      332.385        1.013      864.591
12/21/2013  22:22:00     -103.034        3.434      -14.749       16.618       17.729       14.453      276.164      314.334      208.902        0.582        0.040      103.091       10.778        0.011      332.252        0.793      864.594
12/21/2013  22:23:00     -143.529        6.264      -16.251       18.377       11.024        8.667      337.715      121.518       75.114        1.072        0.027      143.666        6.561        0.002      332.227        0.754      864.583
12/21/2013  22:24:00     -126.970       11.673      -10.637       21.757       14.351       12.659      473.351      205.937      160.252        0.860        0.042      127.505        9.111        0.005      332.229        0.756      864.584
12/21/2013  22:25:00      -83.395      -14.956       -5.856       30.608       29.041       18.929      936.848      843.389      358.288        0.468        0.107       84.725       15.901        0.035      332.308        0.885      864.605
12/21/2013  22:26:00     -116.504       -7.227       -7.776       25.230       20.313       15.888      636.559      412.621      252.436        0.749        0.065      116.728       10.927        0.009      332.316        0.898      864.632
12/21/2013  22:27:00     -139.182       -0.329       -9.718       34.831       17.283       17.675     1213.181      298.706      312.402        1.064        0.091      139.183       18.808        0.018      332.310        0.889      864.644
12/21/2013  22:28:00     -152.851       18.362      -19.100       35.639       28.265       21.262     1270.135      798.905      452.073        1.329        0.126      153.950       16.322        0.011      332.336        0.932      864.651
12/21/2013  22:29:00     -125.897       30.711      -13.683       42.622       28.778       20.365     1816.663      828.148      414.746        1.002        0.153      129.588       20.985        0.026      332.366        0.982      864.657
12/21/2013  22:30:00     -132.297       25.744      -12.133       34.835       21.512       18.600     1213.509      462.755      345.949        1.017        0.101      134.779        9.508        0.005      332.337        0.934      864.651
12/21/2013  22:31:00      -84.115      -65.496        1.763       41.510       35.697       22.785     1723.073     1274.292      519.165        0.744        0.176      106.607       22.366        0.044      332.289        0.855      864.634
12/21/2013  22:32:00     -143.523      -31.305      -13.507       21.981       30.083       14.708      483.175      904.978      216.318        1.168        0.080      146.898       15.170        0.011      332.220        0.744      864.633
12/21/2013  22:33:00     -107.253      -36.264       -8.503       23.214       33.882       16.277      538.878     1147.998      264.925        0.742        0.098      113.218       11.294        0.010      332.220        0.742      864.641
12/21/2013  22:34:00     -135.258      -34.374       -8.935       27.205       31.022       19.450      740.131      962.393      378.288        1.082        0.104      139.558       10.492        0.006      332.199        0.709      864.638
12/21/2013  22:35:00      -97.897      -17.063       -6.924       44.364       29.602       22.087     1968.198      876.290      487.834        0.663        0.167       99.373       22.941        0.053      332.194        0.700      864.620
12/21/2013  22:36:00      -94.220        8.430      -15.442       44.881       33.037       25.869     2014.341     1091.461      669.183        0.648        0.189       94.597       20.635        0.048      332.234        0.764      864.596
12/21/2013  22:37:00      -61.555      -32.340       -1.555       53.828       47.818       29.447     2897.411     2286.563      867.114        0.544        0.303       69.533       24.719        0.126      332.201        0.710      864.588
12/21/2013  22:38:00      -93.085       -7.139       -5.947       45.377       35.228       24.781     2059.071     1241.016      614.081        0.633        0.196       93.358       22.719        0.059      332.175        0.667      864.587
12/21/2013  22:39:00     -108.955      -24.668       -0.347       45.615       32.359       23.515     2080.745     1047.075      552.948        0.808        0.184      111.712       24.838        0.049      332.140        0.610      864.595
12/21/2013  22:40:00     -100.498      -20.947        0.036       53.598       28.893       20.574     2872.717      834.812      423.296        0.733        0.207      102.658       18.335        0.032      332.180        0.676      864.605
12/21/2013  22:41:00     -105.291      -44.894       -4.002       46.412       41.172       19.349     2154.046     1695.109      374.389        0.867        0.211      114.462       15.631        0.019      332.115        0.567      864.617
12/21/2013  22:42:00     -123.517      -63.657       -4.620       23.150       26.112       15.044      535.945      681.822      226.333        1.039        0.072      138.955       12.455        0.008      332.102        0.546      864.635
12/21/2013  22:43:00     -103.641      -49.501        1.125       28.671       24.219       17.325      822.001      586.564      300.170        0.745        0.085      114.855       13.613        0.014      332.133        0.598      864.641
12/21/2013  22:44:00      -63.807      -32.281        2.301       34.217       25.368       15.908     1170.828      643.558      253.049        0.359        0.103       71.508       15.342        0.046      332.170        0.658      864.642
12/21/2013  22:45:00      -84.039      -41.646       -6.367       19.756       18.338       10.894      390.314      336.270      118.681        0.484        0.042       93.792        9.634        0.011      332.272        0.825      864.648
12/21/2013  22:46:00      -92.304      -49.794       -3.629       27.878       15.204       14.047      777.168      231.150      197.331        0.611        0.060      104.878       15.799        0.023      332.235        0.767      864.664
12/21/2013  22:47:00      -88.259      -47.543        0.676       23.964       19.920       15.862      574.285      396.822      251.588        0.564        0.061      100.249       15.395        0.024      332.208        0.721      864.674
12/21/2013  22:48:00      -86.647      -67.197       -1.947       28.764       23.725       19.909      827.385      562.860      396.367        0.691        0.089      109.650       16.803        0.023      332.198        0.705      864.661
12/21/2013  22:49:00      -84.593      -51.723      -11.293       34.281       26.636       16.356     1175.175      709.477      267.511        0.606        0.108       99.153       18.612        0.035      332.148        0.623      864.642
12/21/2013  22:50:00     -119.893      -67.506       -3.892       30.132       23.125       17.646      907.911      534.760      311.384        1.035        0.088      137.591       15.318        0.012      332.167        0.655      864.628
12/21/2013  22:51:00      -78.414      -44.000       -3.320       35.590       18.368       14.241     1266.645      337.389      202.809        0.495        0.090       89.915       11.806        0.017      332.146        0.619      864.637
12/21/2013  22:52:00      -10.180       -7.533       -0.277       22.198       11.932       17.914      492.763      142.373      320.923        0.056        0.048       12.664       14.956        1.395      332.170        0.658      864.655
12/21/2013  22:53:00      -59.689      -20.959      -10.146       30.509       13.631       13.563      930.824      185.811      183.965        0.270        0.065       63.261       15.410        0.059      332.159        0.640      864.668
12/21/2013  22:54:00      -89.479      -26.797      -13.351       17.424       24.652        9.107      303.586      607.731       82.941        0.495        0.050       93.405       10.186        0.012      332.257        0.800      864.678
12/21/2013  22:55:00     -104.440      -44.048      -10.535       11.125        8.722        7.547      123.766       76.079       56.958        0.661        0.013      113.349        4.476        0.002      332.224        0.749      864.691
12/21/2013  22:56:00     -103.446      -25.681       -7.628       15.676       16.175       10.909      245.740      261.631      119.008        0.602        0.031      106.586        7.295        0.005      332.289        0.855      864.702
12/21/2013  22:57:00     -115.630      -39.516      -13.275       13.916       11.892        7.513      193.643      141.419       56.442        0.775        0.020      122.196        6.581        0.003      332.360        0.972      864.724
12/21/2013  22:58:00     -122.123      -31.300      -14.331       14.251       16.358       13.433      203.077      267.597      180.456        0.838        0.033      126.071        9.454        0.006      332.339        0.938      864.730
12/21/2013  22:59:00     -114.020      -46.601      -13.415       20.563       18.964       15.779      422.853      359.615      248.980        0.819        0.052      123.176       13.200        0.011      332.329        0.920      864.741
12/21/2013  23:00:00     -116.548      -62.453      -10.427       16.685       22.619       16.001      278.388      511.616      256.034        0.932        0.052      132.227       10.218        0.006      332.294        0.863      864.750
12/21/2013  23:01:00     -120.525        3.385       -7.939       21.391       24.715       22.261      457.558      610.844      495.537        0.808        0.078      120.572       15.233        0.016      332.207        0.720      864.751
12/21/2013  23:02:00     -125.346      -20.000      -19.848       21.399       20.855       16.700      457.904      434.951      278.891        0.884        0.059      126.931       13.831        0.012      332.187        0.687      864.747
12/21/2013  23:03:00      -85.691      -23.164       -7.486       29.012       31.362       20.080      841.703      983.594      403.219        0.508        0.111       88.767       17.529        0.039      332.184        0.684      864.754
12/21/2013  23:04:00     -105.974      -25.528      -15.522       23.387       17.412       13.387      546.964      303.178      179.223        0.658        0.051      109.005        7.507        0.005      332.192        0.696      864.779
12/21/2013  23:05:00      -69.183       -4.518       -4.336       19.106       21.751       13.256      365.023      473.125      175.711        0.292        0.051       69.331        9.717        0.020      332.212        0.727      864.822
12/21/2013  23:06:00      -68.725       -9.381       -8.408       18.385       20.461       15.592      337.994      418.668      243.124        0.294        0.050       69.362       10.799        0.024      332.299        0.871      864.869
12/21/2013  23:07:00      -76.677        3.955      -14.457       17.885       10.964        9.875      319.877      120.202       97.518        0.332        0.027       76.779        9.087        0.014      332.313        0.894      864.902
12/21/2013  23:08:00      -66.888      -12.768       -5.132       12.786       15.173       11.622      163.491      230.211      135.065        0.260        0.026       68.095        5.261        0.006      332.308        0.885      864.925
12/21/2013  23:09:00      -80.788       -9.726      -10.424       15.861       17.348       11.435      251.585      300.956      130.767        0.371        0.034       81.372        8.354        0.011      332.251        0.794      864.926
12/21/2013  23:10:00      -95.412      -18.417      -10.366       21.057       15.536       13.646      443.407      241.368      186.219        0.521        0.044       97.173       11.530        0.014      332.204        0.717      864.924
12/21/2013  23:11:00     -108.979      -14.574      -17.455       31.466       24.360       15.838      990.108      593.409      250.856        0.711        0.092      109.949       17.686        0.026      332.212        0.728      864.938
12/21/2013  23:12:00     -107.179      -14.000      -13.349       26.658       20.700       12.867      710.673      428.480      165.564        0.658        0.065      108.090        9.280        0.007      332.155        0.633      864.961
12/21/2013  23:13:00      -94.202      -13.678      -12.878       26.499       25.295       14.154      702.209      639.818      200.337        0.538        0.077       95.190       11.977        0.016      332.164        0.649      864.974
12/21/2013  23:14:00      -72.781      -12.642       -4.149       36.838       22.921       19.334     1357.053      525.350      373.821        0.386        0.113       73.871       18.486        0.063      332.200        0.708      864.986
12/21/2013  23:15:00     -100.580        5.713      -11.468       34.410       26.190       22.237     1184.014      685.931      494.480        0.632        0.118      100.743       16.650        0.027      332.166        0.654      864.997
12/21/2013  23:16:00      -89.537      -21.729       -8.652       23.381       21.031       13.276      546.650      442.320      176.246        0.486        0.058       92.135        7.764        0.007      332.123        0.581      865.027
12/21/2013  23:17:00      -87.815      -20.149      -20.331       20.992       17.375       12.560      440.685      301.887      157.763        0.472        0.045       90.097        9.009        0.010      332.158        0.639      865.050
12/21/2013  23:18:00     -102.013      -45.406       -8.590       24.700       23.157       13.068      610.070      536.245      170.782        0.693        0.066      111.661        9.269        0.007      332.199        0.706      865.054
12/21/2013  23:19:00     -117.062      -17.234      -10.648       38.147       29.552       22.496     1455.163      873.308      506.085        0.847        0.142      118.324       22.620        0.037      332.133        0.599      865.064
12/21/2013  23:20:00     -124.315      -21.815       -7.597       46.248       37.800       22.867     2138.865     1428.818      522.887        1.004        0.205      126.215       21.978        0.030      332.131        0.596      865.079
12/21/2013  23:21:00      -83.176      -24.001       -4.526       36.670       27.363       19.389     1344.681      748.753      375.931        0.499        0.123       86.570       10.626        0.015      332.148        0.622      865.106
12/21/2013  23:22:00     -104.356      -26.920      -10.618       26.616       24.160       16.541      708.420      583.726      273.605        0.665        0.078      107.772        9.079        0.007      332.180        0.675      865.147
12/21/2013  23:23:00      -71.115      -27.595      -12.042       23.968       21.224       14.601      574.489      450.462      213.187        0.360        0.062       76.281       10.749        0.020      332.232        0.762      865.172
12/21/2013  23:24:00      -83.241      -39.034       -9.581       12.680       18.712       12.607      160.782      350.136      158.935        0.461        0.033       91.938        6.887        0.006      332.209        0.724      865.197
12/21/2013  23:25:00     -108.171      -24.761      -13.004       14.288       18.120       12.807      204.135      328.319      164.018        0.659        0.035      110.969        6.261        0.003      332.100        0.544      865.200
12/21/2013  23:26:00     -113.162      -31.353      -14.120       26.017       23.461       16.151      676.902      550.430      260.853        0.774        0.074      117.425        8.961        0.006      332.145        0.617      865.179
12/21/2013  23:27:00     -109.652      -18.757       -0.964       44.356       31.870       22.518     1967.430     1015.691      507.044        0.793        0.175      111.245       21.389        0.037      332.191        0.694      865.143
12/21/2013  23:28:00      -99.749      -23.420       -6.692       28.902       22.405       16.082      835.300      501.972      258.618        0.607        0.080      102.462       15.696        0.023      332.199        0.707      865.102
12/21/2013  23:29:00      -95.316      -21.584       -7.893       17.084       19.253       13.424      291.875      370.688      180.208        0.523        0.042       97.730        9.467        0.009      332.170        0.660      865.087
12/21/2013  23:30:00      -78.369      -24.179       -8.301       27.174       15.878       14.296      738.428      252.107      204.379        0.399        0.060       82.015       15.189        0.034      332.152        0.630      865.091
12/21/2013  23:31:00      -65.110      -25.047      -10.561        9.719       16.134        7.997       94.452      260.313       63.950        0.270        0.021       69.761        4.850        0.005      332.269        0.823      865.121
12/21/2013  23:32:00      -81.933       -0.558       -6.108       22.922       17.540       11.382      525.433      307.640      129.555        0.386        0.048       81.935       12.361        0.023      332.349        0.954      865.152
12/21/2013  23:33:00      -98.404        4.344      -14.338       14.489       12.601        8.938      209.943      158.778       79.894        0.518        0.022       98.499        4.185        0.002      332.453        1.125      865.167
12/21/2013  23:34:00      -86.232      -38.774       -7.117       27.045       18.657       15.496      731.456      348.080      240.141        0.515        0.066       94.548       16.408        0.030      332.411        1.055      865.173
12/21/2013  23:35:00      -83.993      -53.569       -4.074       37.513       34.488       20.345     1407.223     1189.406      413.916        0.648        0.151       99.621       19.294        0.038      332.364        0.977      865.168
12/21/2013  23:36:00      -76.621      -66.799        2.234       36.245       36.915       25.033     1313.716     1362.708      626.636        0.682        0.165      101.651       16.312        0.026      332.207        0.720      865.168
12/21/2013  23:37:00      -83.268      -93.912       -3.188       29.982       44.158       19.769      898.928     1949.955      390.818        0.950        0.162      125.512       16.877        0.018      332.374        0.996      865.182
12/21/2013  23:38:00     -100.521      -53.196       -2.159       52.088       33.612       20.564     2713.123     1129.795      422.888        0.860        0.213      113.729       22.310        0.038      332.402        1.041      865.193
12/21/2013  23:39:00     -143.076      -64.078       -1.623       56.231       40.210       28.601     3161.944     1616.858      818.013        1.509        0.280      156.770       28.876        0.034      332.316        0.899      865.193
12/21/2013  23:40:00     -126.890      -56.989       -7.389       43.678       36.189       21.449     1907.742     1309.623      460.076        1.154        0.184      139.100       16.202        0.014      332.281        0.844      865.200
12/21/2013  23:41:00     -125.992      -70.847        2.845       36.625       28.476       19.893     1341.393      810.886      395.734        1.172        0.127      144.545       20.123        0.019      332.299        0.872      865.210
12/21/2013  23:42:00     -141.954      -40.768        0.855       40.719       27.822       24.753     1658.006      774.047      612.690        1.243        0.152      147.692       20.428        0.019      332.310        0.889      865.213
12/21/2013  23:43:00     -118.102      -43.138       -1.621       52.540       38.028       26.158     2760.430     1446.153      684.220        1.035        0.245      125.733       27.989        0.050      332.454        1.126      865.205
12/21/2013  23:44:00      -72.899      -39.401        2.661       29.402       22.527       18.355      864.467      507.466      336.896        0.429        0.085       82.866       13.079        0.025      332.462        1.139      865.201
12/21/2013  23:45:00      -38.952      -44.242        3.719       43.970       32.247       20.470     1933.348     1039.844      419.038        0.344        0.170       58.946       22.439        0.145      332.414        1.060      865.202
12/21/2013  23:46:00      -93.641      -76.483      -12.930       33.401       29.850       19.644     1115.638      891.042      385.881        0.859        0.120      120.906       16.853        0.019      332.502        1.205      865.205
12/21/2013  23:47:00      -50.161      -50.984       -3.985       38.881       24.489       14.071     1511.749      599.723      198.001        0.372        0.115       71.522       13.691        0.037      332.542        1.272      865.202
12/21/2013  23:48:00      -28.346      -61.884        5.666       38.766       30.375       18.695     1502.808      922.666      349.490        0.372        0.139       68.067       21.705        0.102      332.509        1.217      865.194
12/21/2013  23:49:00      -37.963      -43.179       10.672       25.852       21.990       12.039      668.344      483.557      144.932        0.236        0.065       57.494        8.081        0.020      332.461        1.139      865.177
12/21/2013  23:50:00      -54.924      -39.246       -1.632       28.996       20.699       15.998      840.776      428.428      255.932        0.304        0.076       67.505        7.494        0.012      332.378        1.000      865.166
12/21/2013  23:51:00      -45.929      -41.869       -4.422       35.427       24.438       16.693     1255.070      597.208      278.643        0.301        0.107       62.149        6.984        0.013      332.403        1.043      865.166
12/21/2013  23:52:00      -11.031      -19.732       13.849       28.244       17.938       15.654      797.741      321.789      245.056        0.103        0.068       22.606       18.109        0.642      332.412        1.058      865.163
12/21/2013  23:53:00      -51.334      -15.640       -7.820       14.878       10.691        8.815      221.358      114.291       77.712        0.168        0.021       53.663        1.544        0.001      332.320        0.903      865.159
12/21/2013  23:54:00      -42.453      -17.993       -5.573        7.917        8.945        7.086       62.674       80.017       50.209        0.117        0.010       46.108        3.907        0.007      332.320        0.905      865.171
12/21/2013  23:55:00      -48.024      -21.505       -6.035       11.685        6.056        6.145      136.534       36.680       37.767        0.151        0.011       52.619        2.690        0.003      332.360        0.973      865.182
12/21/2013  23:56:00      -57.327      -16.169       -8.127        7.140        8.297        5.831       50.973       68.841       33.995        0.188        0.008       59.564        3.030        0.003      332.339        0.937      865.181
12/21/2013  23:57:00      -66.761      -22.821      -10.117        4.855        6.709        5.923       23.567       45.015       35.083        0.259        0.005       70.554        1.495        0.000      332.342        0.942      865.158
12/21/2013  23:58:00      -66.831      -24.598       -9.068        9.191        9.804        6.496       84.471       96.112       42.197        0.269        0.011       71.214        2.993        0.002      332.276        0.832      865.133
12/21/2013  23:59:00      -36.596      -20.520       -5.897       11.061        8.888        8.534      122.355       78.998       72.828        0.103        0.014       41.957        2.822        0.005      332.260        0.808      865.114
